<?xml version="1.0" encoding="UTF-8" standalone="no" ?>
<gpx xmlns="http://www.topografix.com/GPX/1/1" xmlns:xsi="http://www.w3.org/2001/XMLSchema-instance" xsi:schemaLocation="http://www.topografix.com/GPX/1/1 http://www.topografix.com/GPX/1/1/gpx.xsd" version="1.1" creator="VisuGPX - https://www.visugpx.com">
  <metadata>
    <name>Mont Rachais / Col de Vence March 13, 2021</name>
  </metadata>
  <trk>
    <name><![CDATA[ACTIVE LOG053100]]></name>
    <trkseg>
      <trkpt lat="45.19655" lon="5.7394">
        <ele>187.845</ele>
        <time>2021-03-13T04:31:00Z</time>
      </trkpt>
      <trkpt lat="45.19667" lon="5.73963">
        <ele>191.057</ele>
        <time>2021-03-13T04:32:27Z</time>
      </trkpt>
      <trkpt lat="45.19673" lon="5.73965">
        <ele>191.308</ele>
        <time>2021-03-13T04:32:41Z</time>
      </trkpt>
      <trkpt lat="45.19687" lon="5.73968">
        <ele>192.744</ele>
        <time>2021-03-13T04:33:10Z</time>
      </trkpt>
      <trkpt lat="45.19684" lon="5.73963">
        <ele>193.685</ele>
        <time>2021-03-13T04:33:35Z</time>
      </trkpt>
      <trkpt lat="45.19674" lon="5.73963">
        <ele>194.939</ele>
        <time>2021-03-13T04:34:00Z</time>
      </trkpt>
      <trkpt lat="45.19669" lon="5.73968">
        <ele>194.169</ele>
        <time>2021-03-13T04:34:09Z</time>
      </trkpt>
      <trkpt lat="45.19665" lon="5.7397">
        <ele>194.377</ele>
        <time>2021-03-13T04:34:17Z</time>
      </trkpt>
      <trkpt lat="45.19659" lon="5.7397">
        <ele>195.075</ele>
        <time>2021-03-13T04:34:25Z</time>
      </trkpt>
      <trkpt lat="45.19654" lon="5.73969">
        <ele>193.934</ele>
        <time>2021-03-13T04:34:31Z</time>
      </trkpt>
      <trkpt lat="45.1965" lon="5.73966">
        <ele>192.66</ele>
        <time>2021-03-13T04:34:43Z</time>
      </trkpt>
      <trkpt lat="45.19643" lon="5.73968">
        <ele>191.705</ele>
        <time>2021-03-13T04:34:49Z</time>
      </trkpt>
      <trkpt lat="45.19643" lon="5.7397">
        <ele>188.469</ele>
        <time>2021-03-13T04:35:03Z</time>
      </trkpt>
      <trkpt lat="45.19645" lon="5.73975">
        <ele>187.689</ele>
        <time>2021-03-13T04:35:09Z</time>
      </trkpt>
      <trkpt lat="45.19648" lon="5.73978">
        <ele>188.119</ele>
        <time>2021-03-13T04:35:15Z</time>
      </trkpt>
      <trkpt lat="45.19656" lon="5.73976">
        <ele>188.634</ele>
        <time>2021-03-13T04:35:23Z</time>
      </trkpt>
      <trkpt lat="45.1965" lon="5.73974">
        <ele>188.991</ele>
        <time>2021-03-13T04:35:36Z</time>
      </trkpt>
      <trkpt lat="45.19664" lon="5.73958">
        <ele>189.072</ele>
        <time>2021-03-13T04:35:44Z</time>
      </trkpt>
      <trkpt lat="45.19666" lon="5.73953">
        <ele>190.064</ele>
        <time>2021-03-13T04:35:49Z</time>
      </trkpt>
      <trkpt lat="45.19667" lon="5.73953">
        <ele>190.09</ele>
        <time>2021-03-13T04:35:50Z</time>
      </trkpt>
      <trkpt lat="45.19671" lon="5.73959">
        <ele>189.706</ele>
        <time>2021-03-13T04:35:54Z</time>
      </trkpt>
      <trkpt lat="45.19674" lon="5.7396">
        <ele>190.031</ele>
        <time>2021-03-13T04:35:56Z</time>
      </trkpt>
      <trkpt lat="45.19677" lon="5.73972">
        <ele>190.339</ele>
        <time>2021-03-13T04:36:04Z</time>
      </trkpt>
      <trkpt lat="45.1968" lon="5.73984">
        <ele>190.386</ele>
        <time>2021-03-13T04:36:10Z</time>
      </trkpt>
      <trkpt lat="45.1968" lon="5.73987">
        <ele>189.095</ele>
        <time>2021-03-13T04:36:11Z</time>
      </trkpt>
      <trkpt lat="45.19686" lon="5.74002">
        <ele>189.953</ele>
        <time>2021-03-13T04:36:17Z</time>
      </trkpt>
      <trkpt lat="45.19686" lon="5.74004">
        <ele>189.472</ele>
        <time>2021-03-13T04:36:18Z</time>
      </trkpt>
      <trkpt lat="45.19689" lon="5.74026">
        <ele>189.426</ele>
        <time>2021-03-13T04:36:25Z</time>
      </trkpt>
      <trkpt lat="45.19693" lon="5.7405">
        <ele>190.548</ele>
        <time>2021-03-13T04:36:33Z</time>
      </trkpt>
      <trkpt lat="45.19702" lon="5.74069">
        <ele>190.399</ele>
        <time>2021-03-13T04:36:40Z</time>
      </trkpt>
      <trkpt lat="45.19706" lon="5.74087">
        <ele>189.695</ele>
        <time>2021-03-13T04:36:46Z</time>
      </trkpt>
      <trkpt lat="45.19709" lon="5.74108">
        <ele>190.625</ele>
        <time>2021-03-13T04:36:52Z</time>
      </trkpt>
      <trkpt lat="45.19712" lon="5.74131">
        <ele>190.199</ele>
        <time>2021-03-13T04:36:59Z</time>
      </trkpt>
      <trkpt lat="45.1972" lon="5.74149">
        <ele>190.141</ele>
        <time>2021-03-13T04:37:05Z</time>
      </trkpt>
      <trkpt lat="45.19721" lon="5.74169">
        <ele>190.391</ele>
        <time>2021-03-13T04:37:10Z</time>
      </trkpt>
      <trkpt lat="45.19725" lon="5.74197">
        <ele>190.924</ele>
        <time>2021-03-13T04:37:18Z</time>
      </trkpt>
      <trkpt lat="45.19727" lon="5.74218">
        <ele>190.447</ele>
        <time>2021-03-13T04:37:24Z</time>
      </trkpt>
      <trkpt lat="45.19728" lon="5.7424">
        <ele>191.322</ele>
        <time>2021-03-13T04:37:30Z</time>
      </trkpt>
      <trkpt lat="45.19731" lon="5.74244">
        <ele>192.361</ele>
        <time>2021-03-13T04:37:34Z</time>
      </trkpt>
      <trkpt lat="45.19742" lon="5.74242">
        <ele>192.952</ele>
        <time>2021-03-13T04:37:39Z</time>
      </trkpt>
      <trkpt lat="45.19765" lon="5.74237">
        <ele>193.103</ele>
        <time>2021-03-13T04:37:47Z</time>
      </trkpt>
      <trkpt lat="45.19781" lon="5.74233">
        <ele>193.248</ele>
        <time>2021-03-13T04:37:54Z</time>
      </trkpt>
      <trkpt lat="45.19796" lon="5.74231">
        <ele>193.671</ele>
        <time>2021-03-13T04:38:02Z</time>
      </trkpt>
      <trkpt lat="45.19812" lon="5.74221">
        <ele>193.897</ele>
        <time>2021-03-13T04:38:08Z</time>
      </trkpt>
      <trkpt lat="45.19831" lon="5.74215">
        <ele>193.326</ele>
        <time>2021-03-13T04:38:15Z</time>
      </trkpt>
      <trkpt lat="45.19847" lon="5.74211">
        <ele>194.2</ele>
        <time>2021-03-13T04:38:21Z</time>
      </trkpt>
      <trkpt lat="45.19866" lon="5.74203">
        <ele>193.228</ele>
        <time>2021-03-13T04:38:28Z</time>
      </trkpt>
      <trkpt lat="45.19886" lon="5.74195">
        <ele>193.84</ele>
        <time>2021-03-13T04:38:35Z</time>
      </trkpt>
      <trkpt lat="45.19904" lon="5.74186">
        <ele>193.727</ele>
        <time>2021-03-13T04:38:42Z</time>
      </trkpt>
      <trkpt lat="45.19921" lon="5.74174">
        <ele>194.017</ele>
        <time>2021-03-13T04:38:50Z</time>
      </trkpt>
      <trkpt lat="45.1994" lon="5.7416">
        <ele>194.366</ele>
        <time>2021-03-13T04:38:58Z</time>
      </trkpt>
      <trkpt lat="45.19953" lon="5.74147">
        <ele>194.632</ele>
        <time>2021-03-13T04:39:04Z</time>
      </trkpt>
      <trkpt lat="45.19965" lon="5.74136">
        <ele>194.06</ele>
        <time>2021-03-13T04:39:09Z</time>
      </trkpt>
      <trkpt lat="45.19977" lon="5.74118">
        <ele>194.661</ele>
        <time>2021-03-13T04:39:16Z</time>
      </trkpt>
      <trkpt lat="45.1998" lon="5.74114">
        <ele>194.946</ele>
        <time>2021-03-13T04:39:18Z</time>
      </trkpt>
      <trkpt lat="45.19993" lon="5.74108">
        <ele>194.19</ele>
        <time>2021-03-13T04:39:24Z</time>
      </trkpt>
      <trkpt lat="45.20009" lon="5.74091">
        <ele>192.711</ele>
        <time>2021-03-13T04:39:31Z</time>
      </trkpt>
      <trkpt lat="45.20012" lon="5.74085">
        <ele>191.928</ele>
        <time>2021-03-13T04:39:36Z</time>
      </trkpt>
      <trkpt lat="45.20011" lon="5.74088">
        <ele>191.738</ele>
        <time>2021-03-13T04:39:37Z</time>
      </trkpt>
      <trkpt lat="45.20018" lon="5.74083">
        <ele>194.635</ele>
        <time>2021-03-13T04:39:39Z</time>
      </trkpt>
      <trkpt lat="45.20028" lon="5.74073">
        <ele>192.161</ele>
        <time>2021-03-13T04:39:42Z</time>
      </trkpt>
      <trkpt lat="45.20036" lon="5.74047">
        <ele>192.806</ele>
        <time>2021-03-13T04:39:48Z</time>
      </trkpt>
      <trkpt lat="45.20037" lon="5.74044">
        <ele>192.75</ele>
        <time>2021-03-13T04:39:49Z</time>
      </trkpt>
      <trkpt lat="45.20043" lon="5.74031">
        <ele>195.012</ele>
        <time>2021-03-13T04:39:56Z</time>
      </trkpt>
      <trkpt lat="45.20053" lon="5.74011">
        <ele>194.484</ele>
        <time>2021-03-13T04:40:03Z</time>
      </trkpt>
      <trkpt lat="45.20068" lon="5.73995">
        <ele>193.91</ele>
        <time>2021-03-13T04:40:09Z</time>
      </trkpt>
      <trkpt lat="45.2007" lon="5.73992">
        <ele>193.767</ele>
        <time>2021-03-13T04:40:10Z</time>
      </trkpt>
      <trkpt lat="45.2009" lon="5.73968">
        <ele>193.923</ele>
        <time>2021-03-13T04:40:17Z</time>
      </trkpt>
      <trkpt lat="45.20092" lon="5.73965">
        <ele>194.229</ele>
        <time>2021-03-13T04:40:18Z</time>
      </trkpt>
      <trkpt lat="45.20109" lon="5.73939">
        <ele>194.126</ele>
        <time>2021-03-13T04:40:26Z</time>
      </trkpt>
      <trkpt lat="45.20131" lon="5.73911">
        <ele>194.017</ele>
        <time>2021-03-13T04:40:36Z</time>
      </trkpt>
      <trkpt lat="45.20145" lon="5.73888">
        <ele>193.779</ele>
        <time>2021-03-13T04:40:44Z</time>
      </trkpt>
      <trkpt lat="45.20155" lon="5.73864">
        <ele>193.573</ele>
        <time>2021-03-13T04:40:50Z</time>
      </trkpt>
      <trkpt lat="45.20167" lon="5.73848">
        <ele>194.013</ele>
        <time>2021-03-13T04:40:56Z</time>
      </trkpt>
      <trkpt lat="45.20174" lon="5.7383">
        <ele>193.751</ele>
        <time>2021-03-13T04:41:02Z</time>
      </trkpt>
      <trkpt lat="45.20177" lon="5.73805">
        <ele>194.159</ele>
        <time>2021-03-13T04:41:09Z</time>
      </trkpt>
      <trkpt lat="45.20173" lon="5.73784">
        <ele>191.299</ele>
        <time>2021-03-13T04:41:16Z</time>
      </trkpt>
      <trkpt lat="45.20173" lon="5.73781">
        <ele>195.212</ele>
        <time>2021-03-13T04:41:17Z</time>
      </trkpt>
      <trkpt lat="45.20172" lon="5.73768">
        <ele>194.525</ele>
        <time>2021-03-13T04:41:21Z</time>
      </trkpt>
      <trkpt lat="45.20172" lon="5.73751">
        <ele>193.927</ele>
        <time>2021-03-13T04:41:25Z</time>
      </trkpt>
      <trkpt lat="45.20172" lon="5.73729">
        <ele>193.846</ele>
        <time>2021-03-13T04:41:31Z</time>
      </trkpt>
      <trkpt lat="45.20167" lon="5.73698">
        <ele>194.114</ele>
        <time>2021-03-13T04:41:39Z</time>
      </trkpt>
      <trkpt lat="45.2016" lon="5.73681">
        <ele>194.536</ele>
        <time>2021-03-13T04:41:45Z</time>
      </trkpt>
      <trkpt lat="45.20158" lon="5.73663">
        <ele>193.995</ele>
        <time>2021-03-13T04:41:49Z</time>
      </trkpt>
      <trkpt lat="45.20148" lon="5.73631">
        <ele>195.221</ele>
        <time>2021-03-13T04:41:57Z</time>
      </trkpt>
      <trkpt lat="45.20144" lon="5.73608">
        <ele>193.818</ele>
        <time>2021-03-13T04:42:03Z</time>
      </trkpt>
      <trkpt lat="45.20138" lon="5.73591">
        <ele>194.173</ele>
        <time>2021-03-13T04:42:08Z</time>
      </trkpt>
      <trkpt lat="45.20124" lon="5.73573">
        <ele>194.89</ele>
        <time>2021-03-13T04:42:15Z</time>
      </trkpt>
      <trkpt lat="45.20112" lon="5.73555">
        <ele>194.566</ele>
        <time>2021-03-13T04:42:21Z</time>
      </trkpt>
      <trkpt lat="45.2011" lon="5.73553">
        <ele>194.701</ele>
        <time>2021-03-13T04:42:22Z</time>
      </trkpt>
      <trkpt lat="45.20094" lon="5.73538">
        <ele>193.965</ele>
        <time>2021-03-13T04:42:28Z</time>
      </trkpt>
      <trkpt lat="45.20083" lon="5.73524">
        <ele>194.702</ele>
        <time>2021-03-13T04:42:33Z</time>
      </trkpt>
      <trkpt lat="45.20065" lon="5.7351">
        <ele>194.158</ele>
        <time>2021-03-13T04:42:40Z</time>
      </trkpt>
      <trkpt lat="45.20049" lon="5.73504">
        <ele>194.573</ele>
        <time>2021-03-13T04:42:45Z</time>
      </trkpt>
      <trkpt lat="45.20044" lon="5.73502">
        <ele>194.393</ele>
        <time>2021-03-13T04:42:47Z</time>
      </trkpt>
      <trkpt lat="45.20023" lon="5.73478">
        <ele>193.166</ele>
        <time>2021-03-13T04:42:55Z</time>
      </trkpt>
      <trkpt lat="45.20013" lon="5.73457">
        <ele>192.36</ele>
        <time>2021-03-13T04:43:01Z</time>
      </trkpt>
      <trkpt lat="45.20002" lon="5.73443">
        <ele>193.256</ele>
        <time>2021-03-13T04:43:06Z</time>
      </trkpt>
      <trkpt lat="45.19999" lon="5.73442">
        <ele>193.456</ele>
        <time>2021-03-13T04:43:07Z</time>
      </trkpt>
      <trkpt lat="45.19988" lon="5.73442">
        <ele>193.864</ele>
        <time>2021-03-13T04:43:11Z</time>
      </trkpt>
      <trkpt lat="45.1997" lon="5.73433">
        <ele>193.573</ele>
        <time>2021-03-13T04:43:19Z</time>
      </trkpt>
      <trkpt lat="45.19957" lon="5.73428">
        <ele>193.953</ele>
        <time>2021-03-13T04:43:24Z</time>
      </trkpt>
      <trkpt lat="45.19944" lon="5.73421">
        <ele>194.164</ele>
        <time>2021-03-13T04:43:30Z</time>
      </trkpt>
      <trkpt lat="45.19922" lon="5.73419">
        <ele>195.053</ele>
        <time>2021-03-13T04:43:37Z</time>
      </trkpt>
      <trkpt lat="45.19916" lon="5.73418">
        <ele>193.303</ele>
        <time>2021-03-13T04:43:39Z</time>
      </trkpt>
      <trkpt lat="45.19896" lon="5.73419">
        <ele>194.84</ele>
        <time>2021-03-13T04:43:46Z</time>
      </trkpt>
      <trkpt lat="45.19878" lon="5.73415">
        <ele>194.263</ele>
        <time>2021-03-13T04:43:52Z</time>
      </trkpt>
      <trkpt lat="45.19867" lon="5.73412">
        <ele>195.202</ele>
        <time>2021-03-13T04:43:57Z</time>
      </trkpt>
      <trkpt lat="45.19859" lon="5.73411">
        <ele>194.368</ele>
        <time>2021-03-13T04:44:00Z</time>
      </trkpt>
      <trkpt lat="45.19847" lon="5.73398">
        <ele>194.821</ele>
        <time>2021-03-13T04:44:07Z</time>
      </trkpt>
      <trkpt lat="45.19838" lon="5.73394">
        <ele>194.294</ele>
        <time>2021-03-13T04:44:11Z</time>
      </trkpt>
      <trkpt lat="45.1983" lon="5.73391">
        <ele>193.793</ele>
        <time>2021-03-13T04:44:14Z</time>
      </trkpt>
      <trkpt lat="45.19818" lon="5.73385">
        <ele>194.721</ele>
        <time>2021-03-13T04:44:19Z</time>
      </trkpt>
      <trkpt lat="45.19792" lon="5.73384">
        <ele>194.588</ele>
        <time>2021-03-13T04:44:27Z</time>
      </trkpt>
      <trkpt lat="45.1978" lon="5.7338">
        <ele>195.278</ele>
        <time>2021-03-13T04:44:32Z</time>
      </trkpt>
      <trkpt lat="45.19761" lon="5.73378">
        <ele>194.931</ele>
        <time>2021-03-13T04:44:38Z</time>
      </trkpt>
      <trkpt lat="45.19737" lon="5.73372">
        <ele>195.271</ele>
        <time>2021-03-13T04:44:46Z</time>
      </trkpt>
      <trkpt lat="45.19723" lon="5.73367">
        <ele>196.231</ele>
        <time>2021-03-13T04:44:51Z</time>
      </trkpt>
      <trkpt lat="45.1973" lon="5.7335">
        <ele>197.289</ele>
        <time>2021-03-13T04:44:56Z</time>
      </trkpt>
      <trkpt lat="45.19734" lon="5.7334">
        <ele>197.19</ele>
        <time>2021-03-13T04:44:58Z</time>
      </trkpt>
      <trkpt lat="45.19744" lon="5.73308">
        <ele>197.277</ele>
        <time>2021-03-13T04:45:06Z</time>
      </trkpt>
      <trkpt lat="45.19752" lon="5.73279">
        <ele>197.151</ele>
        <time>2021-03-13T04:45:14Z</time>
      </trkpt>
      <trkpt lat="45.1976" lon="5.73249">
        <ele>196.609</ele>
        <time>2021-03-13T04:45:21Z</time>
      </trkpt>
      <trkpt lat="45.19768" lon="5.73226">
        <ele>196.977</ele>
        <time>2021-03-13T04:45:27Z</time>
      </trkpt>
      <trkpt lat="45.19774" lon="5.73213">
        <ele>196.793</ele>
        <time>2021-03-13T04:45:31Z</time>
      </trkpt>
      <trkpt lat="45.1978" lon="5.7319">
        <ele>196.883</ele>
        <time>2021-03-13T04:45:38Z</time>
      </trkpt>
      <trkpt lat="45.1978" lon="5.7318">
        <ele>195.551</ele>
        <time>2021-03-13T04:45:41Z</time>
      </trkpt>
      <trkpt lat="45.19775" lon="5.73165">
        <ele>196.732</ele>
        <time>2021-03-13T04:45:47Z</time>
      </trkpt>
      <trkpt lat="45.19776" lon="5.7316">
        <ele>197.657</ele>
        <time>2021-03-13T04:45:49Z</time>
      </trkpt>
      <trkpt lat="45.19777" lon="5.73155">
        <ele>197.975</ele>
        <time>2021-03-13T04:45:51Z</time>
      </trkpt>
      <trkpt lat="45.19783" lon="5.73141">
        <ele>199.906</ele>
        <time>2021-03-13T04:45:57Z</time>
      </trkpt>
      <trkpt lat="45.19786" lon="5.73133">
        <ele>201.217</ele>
        <time>2021-03-13T04:46:02Z</time>
      </trkpt>
      <trkpt lat="45.19794" lon="5.73126">
        <ele>203.266</ele>
        <time>2021-03-13T04:46:07Z</time>
      </trkpt>
      <trkpt lat="45.19797" lon="5.73124">
        <ele>204.446</ele>
        <time>2021-03-13T04:46:13Z</time>
      </trkpt>
      <trkpt lat="45.19784" lon="5.73127">
        <ele>206.173</ele>
        <time>2021-03-13T04:46:19Z</time>
      </trkpt>
      <trkpt lat="45.19781" lon="5.73124">
        <ele>208.09</ele>
        <time>2021-03-13T04:46:24Z</time>
      </trkpt>
      <trkpt lat="45.19781" lon="5.73123">
        <ele>207.675</ele>
        <time>2021-03-13T04:46:25Z</time>
      </trkpt>
      <trkpt lat="45.19756" lon="5.73099">
        <ele>208.314</ele>
        <time>2021-03-13T04:46:27Z</time>
      </trkpt>
      <trkpt lat="45.19752" lon="5.73099">
        <ele>208.861</ele>
        <time>2021-03-13T04:46:31Z</time>
      </trkpt>
      <trkpt lat="45.19746" lon="5.73091">
        <ele>211.599</ele>
        <time>2021-03-13T04:46:39Z</time>
      </trkpt>
      <trkpt lat="45.19752" lon="5.73093">
        <ele>212.293</ele>
        <time>2021-03-13T04:46:42Z</time>
      </trkpt>
      <trkpt lat="45.19772" lon="5.73093">
        <ele>213.7</ele>
        <time>2021-03-13T04:46:49Z</time>
      </trkpt>
      <trkpt lat="45.1978" lon="5.73096">
        <ele>215.038</ele>
        <time>2021-03-13T04:46:54Z</time>
      </trkpt>
      <trkpt lat="45.19791" lon="5.731">
        <ele>216.023</ele>
        <time>2021-03-13T04:46:59Z</time>
      </trkpt>
      <trkpt lat="45.19803" lon="5.73098">
        <ele>216.635</ele>
        <time>2021-03-13T04:47:05Z</time>
      </trkpt>
      <trkpt lat="45.19792" lon="5.73092">
        <ele>217.52</ele>
        <time>2021-03-13T04:47:11Z</time>
      </trkpt>
      <trkpt lat="45.19778" lon="5.73087">
        <ele>219.163</ele>
        <time>2021-03-13T04:47:18Z</time>
      </trkpt>
      <trkpt lat="45.19765" lon="5.73083">
        <ele>220.465</ele>
        <time>2021-03-13T04:47:24Z</time>
      </trkpt>
      <trkpt lat="45.19753" lon="5.73079">
        <ele>222.204</ele>
        <time>2021-03-13T04:47:30Z</time>
      </trkpt>
      <trkpt lat="45.19745" lon="5.73072">
        <ele>223.764</ele>
        <time>2021-03-13T04:47:36Z</time>
      </trkpt>
      <trkpt lat="45.19744" lon="5.73063">
        <ele>224.779</ele>
        <time>2021-03-13T04:47:41Z</time>
      </trkpt>
      <trkpt lat="45.19745" lon="5.73063">
        <ele>225.009</ele>
        <time>2021-03-13T04:47:42Z</time>
      </trkpt>
      <trkpt lat="45.19756" lon="5.73063">
        <ele>226.335</ele>
        <time>2021-03-13T04:47:47Z</time>
      </trkpt>
      <trkpt lat="45.19762" lon="5.73071">
        <ele>227.811</ele>
        <time>2021-03-13T04:47:52Z</time>
      </trkpt>
      <trkpt lat="45.19767" lon="5.73073">
        <ele>228.429</ele>
        <time>2021-03-13T04:47:55Z</time>
      </trkpt>
      <trkpt lat="45.19788" lon="5.73068">
        <ele>229.58</ele>
        <time>2021-03-13T04:48:02Z</time>
      </trkpt>
      <trkpt lat="45.19792" lon="5.73067">
        <ele>231.027</ele>
        <time>2021-03-13T04:48:06Z</time>
      </trkpt>
      <trkpt lat="45.19778" lon="5.73067">
        <ele>233.394</ele>
        <time>2021-03-13T04:48:12Z</time>
      </trkpt>
      <trkpt lat="45.19773" lon="5.73065">
        <ele>233.321</ele>
        <time>2021-03-13T04:48:14Z</time>
      </trkpt>
      <trkpt lat="45.1977" lon="5.73061">
        <ele>233.503</ele>
        <time>2021-03-13T04:48:16Z</time>
      </trkpt>
      <trkpt lat="45.19761" lon="5.73054">
        <ele>234.506</ele>
        <time>2021-03-13T04:48:22Z</time>
      </trkpt>
      <trkpt lat="45.19756" lon="5.73053">
        <ele>235.206</ele>
        <time>2021-03-13T04:48:24Z</time>
      </trkpt>
      <trkpt lat="45.1975" lon="5.73047">
        <ele>236.502</ele>
        <time>2021-03-13T04:48:29Z</time>
      </trkpt>
      <trkpt lat="45.19751" lon="5.7304">
        <ele>237.879</ele>
        <time>2021-03-13T04:48:36Z</time>
      </trkpt>
      <trkpt lat="45.19755" lon="5.73043">
        <ele>238.675</ele>
        <time>2021-03-13T04:48:40Z</time>
      </trkpt>
      <trkpt lat="45.1976" lon="5.73047">
        <ele>239.625</ele>
        <time>2021-03-13T04:48:44Z</time>
      </trkpt>
      <trkpt lat="45.1977" lon="5.73051">
        <ele>241.789</ele>
        <time>2021-03-13T04:48:51Z</time>
      </trkpt>
      <trkpt lat="45.19789" lon="5.73052">
        <ele>243.373</ele>
        <time>2021-03-13T04:48:58Z</time>
      </trkpt>
      <trkpt lat="45.19799" lon="5.73047">
        <ele>244.258</ele>
        <time>2021-03-13T04:49:03Z</time>
      </trkpt>
      <trkpt lat="45.19787" lon="5.7304">
        <ele>245.689</ele>
        <time>2021-03-13T04:49:10Z</time>
      </trkpt>
      <trkpt lat="45.19786" lon="5.73038">
        <ele>246.473</ele>
        <time>2021-03-13T04:49:11Z</time>
      </trkpt>
      <trkpt lat="45.19781" lon="5.73032">
        <ele>246.759</ele>
        <time>2021-03-13T04:49:15Z</time>
      </trkpt>
      <trkpt lat="45.1977" lon="5.73024">
        <ele>248.69</ele>
        <time>2021-03-13T04:49:22Z</time>
      </trkpt>
      <trkpt lat="45.19763" lon="5.73017">
        <ele>249.37</ele>
        <time>2021-03-13T04:49:27Z</time>
      </trkpt>
      <trkpt lat="45.19763" lon="5.73013">
        <ele>250.147</ele>
        <time>2021-03-13T04:49:29Z</time>
      </trkpt>
      <trkpt lat="45.19767" lon="5.73014">
        <ele>250.471</ele>
        <time>2021-03-13T04:49:32Z</time>
      </trkpt>
      <trkpt lat="45.19781" lon="5.73019">
        <ele>252.268</ele>
        <time>2021-03-13T04:49:40Z</time>
      </trkpt>
      <trkpt lat="45.19792" lon="5.73026">
        <ele>253.567</ele>
        <time>2021-03-13T04:49:47Z</time>
      </trkpt>
      <trkpt lat="45.19798" lon="5.73029">
        <ele>254.59</ele>
        <time>2021-03-13T04:49:50Z</time>
      </trkpt>
      <trkpt lat="45.19801" lon="5.73029">
        <ele>255.477</ele>
        <time>2021-03-13T04:49:52Z</time>
      </trkpt>
      <trkpt lat="45.19805" lon="5.73022">
        <ele>257.531</ele>
        <time>2021-03-13T04:49:58Z</time>
      </trkpt>
      <trkpt lat="45.19793" lon="5.73014">
        <ele>257.745</ele>
        <time>2021-03-13T04:50:04Z</time>
      </trkpt>
      <trkpt lat="45.1979" lon="5.73013">
        <ele>257.877</ele>
        <time>2021-03-13T04:50:06Z</time>
      </trkpt>
      <trkpt lat="45.19781" lon="5.72998">
        <ele>259.443</ele>
        <time>2021-03-13T04:50:14Z</time>
      </trkpt>
      <trkpt lat="45.19773" lon="5.72992">
        <ele>260.794</ele>
        <time>2021-03-13T04:50:19Z</time>
      </trkpt>
      <trkpt lat="45.19769" lon="5.7299">
        <ele>260.652</ele>
        <time>2021-03-13T04:50:21Z</time>
      </trkpt>
      <trkpt lat="45.19759" lon="5.72978">
        <ele>262.539</ele>
        <time>2021-03-13T04:50:28Z</time>
      </trkpt>
      <trkpt lat="45.19752" lon="5.72972">
        <ele>263.856</ele>
        <time>2021-03-13T04:50:33Z</time>
      </trkpt>
      <trkpt lat="45.19749" lon="5.72968">
        <ele>264.374</ele>
        <time>2021-03-13T04:50:35Z</time>
      </trkpt>
      <trkpt lat="45.19746" lon="5.72964">
        <ele>265.834</ele>
        <time>2021-03-13T04:50:37Z</time>
      </trkpt>
      <trkpt lat="45.1974" lon="5.72951">
        <ele>265.653</ele>
        <time>2021-03-13T04:50:43Z</time>
      </trkpt>
      <trkpt lat="45.19732" lon="5.72936">
        <ele>266.851</ele>
        <time>2021-03-13T04:50:49Z</time>
      </trkpt>
      <trkpt lat="45.19729" lon="5.72932">
        <ele>267.436</ele>
        <time>2021-03-13T04:50:51Z</time>
      </trkpt>
      <trkpt lat="45.19723" lon="5.72921">
        <ele>269.312</ele>
        <time>2021-03-13T04:50:56Z</time>
      </trkpt>
      <trkpt lat="45.19715" lon="5.7291">
        <ele>270.434</ele>
        <time>2021-03-13T04:51:02Z</time>
      </trkpt>
      <trkpt lat="45.19707" lon="5.72894">
        <ele>272.471</ele>
        <time>2021-03-13T04:51:10Z</time>
      </trkpt>
      <trkpt lat="45.19702" lon="5.7288">
        <ele>273.357</ele>
        <time>2021-03-13T04:51:16Z</time>
      </trkpt>
      <trkpt lat="45.19693" lon="5.72865">
        <ele>275.077</ele>
        <time>2021-03-13T04:51:23Z</time>
      </trkpt>
      <trkpt lat="45.19688" lon="5.72854">
        <ele>275.536</ele>
        <time>2021-03-13T04:51:27Z</time>
      </trkpt>
      <trkpt lat="45.1969" lon="5.72851">
        <ele>276.633</ele>
        <time>2021-03-13T04:51:31Z</time>
      </trkpt>
      <trkpt lat="45.19699" lon="5.72864">
        <ele>278.061</ele>
        <time>2021-03-13T04:51:37Z</time>
      </trkpt>
      <trkpt lat="45.19707" lon="5.72865">
        <ele>278.85</ele>
        <time>2021-03-13T04:51:41Z</time>
      </trkpt>
      <trkpt lat="45.19709" lon="5.72868">
        <ele>279.458</ele>
        <time>2021-03-13T04:51:43Z</time>
      </trkpt>
      <trkpt lat="45.19711" lon="5.72875">
        <ele>279.593</ele>
        <time>2021-03-13T04:51:47Z</time>
      </trkpt>
      <trkpt lat="45.19713" lon="5.7288">
        <ele>280.463</ele>
        <time>2021-03-13T04:51:50Z</time>
      </trkpt>
      <trkpt lat="45.1972" lon="5.72887">
        <ele>281.321</ele>
        <time>2021-03-13T04:51:54Z</time>
      </trkpt>
      <trkpt lat="45.19737" lon="5.72895">
        <ele>283.607</ele>
        <time>2021-03-13T04:52:01Z</time>
      </trkpt>
      <trkpt lat="45.19742" lon="5.72906">
        <ele>284.857</ele>
        <time>2021-03-13T04:52:06Z</time>
      </trkpt>
      <trkpt lat="45.1975" lon="5.72912">
        <ele>286.376</ele>
        <time>2021-03-13T04:52:12Z</time>
      </trkpt>
      <trkpt lat="45.1976" lon="5.72915">
        <ele>286.71</ele>
        <time>2021-03-13T04:52:16Z</time>
      </trkpt>
      <trkpt lat="45.19762" lon="5.72918">
        <ele>287.346</ele>
        <time>2021-03-13T04:52:18Z</time>
      </trkpt>
      <trkpt lat="45.19768" lon="5.72923">
        <ele>288.779</ele>
        <time>2021-03-13T04:52:25Z</time>
      </trkpt>
      <trkpt lat="45.19778" lon="5.72921">
        <ele>289.548</ele>
        <time>2021-03-13T04:52:30Z</time>
      </trkpt>
      <trkpt lat="45.1979" lon="5.72929">
        <ele>290.793</ele>
        <time>2021-03-13T04:52:35Z</time>
      </trkpt>
      <trkpt lat="45.19793" lon="5.72924">
        <ele>290.626</ele>
        <time>2021-03-13T04:52:39Z</time>
      </trkpt>
      <trkpt lat="45.19781" lon="5.72916">
        <ele>293.705</ele>
        <time>2021-03-13T04:52:46Z</time>
      </trkpt>
      <trkpt lat="45.1977" lon="5.72907">
        <ele>294.997</ele>
        <time>2021-03-13T04:52:53Z</time>
      </trkpt>
      <trkpt lat="45.19768" lon="5.72906">
        <ele>295.606</ele>
        <time>2021-03-13T04:52:54Z</time>
      </trkpt>
      <trkpt lat="45.19759" lon="5.72893">
        <ele>296.448</ele>
        <time>2021-03-13T04:53:01Z</time>
      </trkpt>
      <trkpt lat="45.19748" lon="5.72881">
        <ele>299.201</ele>
        <time>2021-03-13T04:53:08Z</time>
      </trkpt>
      <trkpt lat="45.19739" lon="5.72869">
        <ele>299.695</ele>
        <time>2021-03-13T04:53:13Z</time>
      </trkpt>
      <trkpt lat="45.19731" lon="5.72858">
        <ele>301.758</ele>
        <time>2021-03-13T04:53:20Z</time>
      </trkpt>
      <trkpt lat="45.19728" lon="5.72854">
        <ele>301.838</ele>
        <time>2021-03-13T04:53:22Z</time>
      </trkpt>
      <trkpt lat="45.19729" lon="5.72849">
        <ele>302.608</ele>
        <time>2021-03-13T04:53:26Z</time>
      </trkpt>
      <trkpt lat="45.1974" lon="5.7286">
        <ele>304.541</ele>
        <time>2021-03-13T04:53:33Z</time>
      </trkpt>
      <trkpt lat="45.1975" lon="5.72865">
        <ele>306.235</ele>
        <time>2021-03-13T04:53:38Z</time>
      </trkpt>
      <trkpt lat="45.19766" lon="5.72872">
        <ele>307.416</ele>
        <time>2021-03-13T04:53:45Z</time>
      </trkpt>
      <trkpt lat="45.19768" lon="5.72873">
        <ele>307.829</ele>
        <time>2021-03-13T04:53:46Z</time>
      </trkpt>
      <trkpt lat="45.19778" lon="5.72883">
        <ele>309.739</ele>
        <time>2021-03-13T04:53:54Z</time>
      </trkpt>
      <trkpt lat="45.19793" lon="5.72887">
        <ele>311.163</ele>
        <time>2021-03-13T04:54:01Z</time>
      </trkpt>
      <trkpt lat="45.19798" lon="5.72888">
        <ele>311.985</ele>
        <time>2021-03-13T04:54:07Z</time>
      </trkpt>
      <trkpt lat="45.19789" lon="5.7288">
        <ele>313.367</ele>
        <time>2021-03-13T04:54:14Z</time>
      </trkpt>
      <trkpt lat="45.19783" lon="5.72874">
        <ele>315.399</ele>
        <time>2021-03-13T04:54:18Z</time>
      </trkpt>
      <trkpt lat="45.19783" lon="5.72869">
        <ele>315.698</ele>
        <time>2021-03-13T04:54:20Z</time>
      </trkpt>
      <trkpt lat="45.19773" lon="5.72857">
        <ele>317.952</ele>
        <time>2021-03-13T04:54:27Z</time>
      </trkpt>
      <trkpt lat="45.19771" lon="5.72851">
        <ele>318.038</ele>
        <time>2021-03-13T04:54:29Z</time>
      </trkpt>
      <trkpt lat="45.1977" lon="5.72837">
        <ele>319.242</ele>
        <time>2021-03-13T04:54:34Z</time>
      </trkpt>
      <trkpt lat="45.19759" lon="5.72828">
        <ele>321.432</ele>
        <time>2021-03-13T04:54:41Z</time>
      </trkpt>
      <trkpt lat="45.19753" lon="5.72816">
        <ele>322.204</ele>
        <time>2021-03-13T04:54:47Z</time>
      </trkpt>
      <trkpt lat="45.19756" lon="5.72806">
        <ele>323.697</ele>
        <time>2021-03-13T04:54:53Z</time>
      </trkpt>
      <trkpt lat="45.19764" lon="5.72816">
        <ele>324.845</ele>
        <time>2021-03-13T04:55:00Z</time>
      </trkpt>
      <trkpt lat="45.19777" lon="5.72821">
        <ele>326.031</ele>
        <time>2021-03-13T04:55:06Z</time>
      </trkpt>
      <trkpt lat="45.19788" lon="5.72832">
        <ele>327.921</ele>
        <time>2021-03-13T04:55:14Z</time>
      </trkpt>
      <trkpt lat="45.19799" lon="5.72839">
        <ele>329.352</ele>
        <time>2021-03-13T04:55:20Z</time>
      </trkpt>
      <trkpt lat="45.19804" lon="5.72846">
        <ele>330.335</ele>
        <time>2021-03-13T04:55:25Z</time>
      </trkpt>
      <trkpt lat="45.19807" lon="5.72856">
        <ele>332.079</ele>
        <time>2021-03-13T04:55:29Z</time>
      </trkpt>
      <trkpt lat="45.19817" lon="5.7285">
        <ele>333.24</ele>
        <time>2021-03-13T04:55:34Z</time>
      </trkpt>
      <trkpt lat="45.19809" lon="5.72847">
        <ele>333.137</ele>
        <time>2021-03-13T04:55:38Z</time>
      </trkpt>
      <trkpt lat="45.19798" lon="5.72838">
        <ele>334.613</ele>
        <time>2021-03-13T04:55:45Z</time>
      </trkpt>
      <trkpt lat="45.19797" lon="5.72835">
        <ele>334.994</ele>
        <time>2021-03-13T04:55:46Z</time>
      </trkpt>
      <trkpt lat="45.19792" lon="5.72832">
        <ele>335.899</ele>
        <time>2021-03-13T04:55:49Z</time>
      </trkpt>
      <trkpt lat="45.19788" lon="5.72816">
        <ele>337.123</ele>
        <time>2021-03-13T04:55:55Z</time>
      </trkpt>
      <trkpt lat="45.19793" lon="5.72826">
        <ele>337.13</ele>
        <time>2021-03-13T04:55:58Z</time>
      </trkpt>
      <trkpt lat="45.198" lon="5.72835">
        <ele>337.865</ele>
        <time>2021-03-13T04:56:04Z</time>
      </trkpt>
      <trkpt lat="45.19826" lon="5.72832">
        <ele>340.68</ele>
        <time>2021-03-13T04:56:12Z</time>
      </trkpt>
      <trkpt lat="45.19829" lon="5.72833">
        <ele>341.264</ele>
        <time>2021-03-13T04:56:13Z</time>
      </trkpt>
      <trkpt lat="45.19831" lon="5.72837">
        <ele>342.181</ele>
        <time>2021-03-13T04:56:20Z</time>
      </trkpt>
      <trkpt lat="45.19822" lon="5.72828">
        <ele>343.177</ele>
        <time>2021-03-13T04:56:26Z</time>
      </trkpt>
      <trkpt lat="45.19814" lon="5.7282">
        <ele>343.593</ele>
        <time>2021-03-13T04:56:31Z</time>
      </trkpt>
      <trkpt lat="45.19813" lon="5.72815">
        <ele>343.895</ele>
        <time>2021-03-13T04:56:34Z</time>
      </trkpt>
      <trkpt lat="45.19819" lon="5.72816">
        <ele>344.628</ele>
        <time>2021-03-13T04:56:37Z</time>
      </trkpt>
      <trkpt lat="45.19831" lon="5.72827">
        <ele>346.441</ele>
        <time>2021-03-13T04:56:46Z</time>
      </trkpt>
      <trkpt lat="45.19837" lon="5.72827">
        <ele>346.941</ele>
        <time>2021-03-13T04:56:48Z</time>
      </trkpt>
      <trkpt lat="45.19846" lon="5.72827">
        <ele>348.764</ele>
        <time>2021-03-13T04:56:53Z</time>
      </trkpt>
      <trkpt lat="45.19832" lon="5.72815">
        <ele>351.383</ele>
        <time>2021-03-13T04:57:02Z</time>
      </trkpt>
      <trkpt lat="45.19824" lon="5.7281">
        <ele>353.022</ele>
        <time>2021-03-13T04:57:07Z</time>
      </trkpt>
      <trkpt lat="45.19813" lon="5.72804">
        <ele>355.133</ele>
        <time>2021-03-13T04:57:14Z</time>
      </trkpt>
      <trkpt lat="45.19796" lon="5.72802">
        <ele>356.067</ele>
        <time>2021-03-13T04:57:22Z</time>
      </trkpt>
      <trkpt lat="45.19783" lon="5.72797">
        <ele>357.057</ele>
        <time>2021-03-13T04:57:28Z</time>
      </trkpt>
      <trkpt lat="45.19796" lon="5.72792">
        <ele>358.287</ele>
        <time>2021-03-13T04:57:34Z</time>
      </trkpt>
      <trkpt lat="45.19799" lon="5.72792">
        <ele>358.876</ele>
        <time>2021-03-13T04:57:36Z</time>
      </trkpt>
      <trkpt lat="45.19803" lon="5.72791">
        <ele>358.806</ele>
        <time>2021-03-13T04:57:38Z</time>
      </trkpt>
      <trkpt lat="45.19823" lon="5.72792">
        <ele>360.817</ele>
        <time>2021-03-13T04:57:46Z</time>
      </trkpt>
      <trkpt lat="45.19836" lon="5.72788">
        <ele>361.369</ele>
        <time>2021-03-13T04:57:50Z</time>
      </trkpt>
      <trkpt lat="45.1984" lon="5.72801">
        <ele>362.358</ele>
        <time>2021-03-13T04:57:56Z</time>
      </trkpt>
      <trkpt lat="45.19846" lon="5.72799">
        <ele>363.089</ele>
        <time>2021-03-13T04:57:58Z</time>
      </trkpt>
      <trkpt lat="45.19845" lon="5.72798">
        <ele>363.903</ele>
        <time>2021-03-13T04:58:01Z</time>
      </trkpt>
      <trkpt lat="45.19829" lon="5.7279">
        <ele>364.807</ele>
        <time>2021-03-13T04:58:09Z</time>
      </trkpt>
      <trkpt lat="45.19814" lon="5.72783">
        <ele>367.092</ele>
        <time>2021-03-13T04:58:17Z</time>
      </trkpt>
      <trkpt lat="45.19811" lon="5.72777">
        <ele>367.665</ele>
        <time>2021-03-13T04:58:20Z</time>
      </trkpt>
      <trkpt lat="45.19803" lon="5.7276">
        <ele>369.021</ele>
        <time>2021-03-13T04:58:28Z</time>
      </trkpt>
      <trkpt lat="45.19798" lon="5.7275">
        <ele>370.598</ele>
        <time>2021-03-13T04:58:34Z</time>
      </trkpt>
      <trkpt lat="45.19785" lon="5.72745">
        <ele>372.031</ele>
        <time>2021-03-13T04:58:41Z</time>
      </trkpt>
      <trkpt lat="45.19785" lon="5.72741">
        <ele>372.745</ele>
        <time>2021-03-13T04:58:43Z</time>
      </trkpt>
      <trkpt lat="45.19793" lon="5.72748">
        <ele>374.504</ele>
        <time>2021-03-13T04:58:49Z</time>
      </trkpt>
      <trkpt lat="45.19803" lon="5.72749">
        <ele>374.799</ele>
        <time>2021-03-13T04:58:53Z</time>
      </trkpt>
      <trkpt lat="45.19814" lon="5.72759">
        <ele>376.203</ele>
        <time>2021-03-13T04:59:00Z</time>
      </trkpt>
      <trkpt lat="45.19816" lon="5.72766">
        <ele>375.899</ele>
        <time>2021-03-13T04:59:03Z</time>
      </trkpt>
      <trkpt lat="45.1983" lon="5.72776">
        <ele>377.482</ele>
        <time>2021-03-13T04:59:10Z</time>
      </trkpt>
      <trkpt lat="45.19848" lon="5.72776">
        <ele>378.88</ele>
        <time>2021-03-13T04:59:17Z</time>
      </trkpt>
      <trkpt lat="45.19853" lon="5.72782">
        <ele>380.485</ele>
        <time>2021-03-13T04:59:22Z</time>
      </trkpt>
      <trkpt lat="45.19846" lon="5.72773">
        <ele>381.172</ele>
        <time>2021-03-13T04:59:30Z</time>
      </trkpt>
      <trkpt lat="45.1985" lon="5.7277">
        <ele>382.442</ele>
        <time>2021-03-13T04:59:32Z</time>
      </trkpt>
      <trkpt lat="45.19852" lon="5.72768">
        <ele>383.968</ele>
        <time>2021-03-13T04:59:35Z</time>
      </trkpt>
      <trkpt lat="45.19857" lon="5.72769">
        <ele>387.321</ele>
        <time>2021-03-13T04:59:44Z</time>
      </trkpt>
      <trkpt lat="45.19854" lon="5.72765">
        <ele>390.414</ele>
        <time>2021-03-13T04:59:54Z</time>
      </trkpt>
      <trkpt lat="45.19854" lon="5.72763">
        <ele>393.522</ele>
        <time>2021-03-13T04:59:58Z</time>
      </trkpt>
      <trkpt lat="45.19854" lon="5.72763">
        <ele>393.803</ele>
        <time>2021-03-13T04:59:59Z</time>
      </trkpt>
      <trkpt lat="45.19853" lon="5.72761">
        <ele>397.218</ele>
        <time>2021-03-13T05:00:04Z</time>
      </trkpt>
      <trkpt lat="45.19853" lon="5.72758">
        <ele>399.193</ele>
        <time>2021-03-13T05:00:10Z</time>
      </trkpt>
      <trkpt lat="45.19864" lon="5.72754">
        <ele>399.561</ele>
        <time>2021-03-13T05:00:18Z</time>
      </trkpt>
      <trkpt lat="45.1987" lon="5.72748">
        <ele>401.243</ele>
        <time>2021-03-13T05:00:23Z</time>
      </trkpt>
      <trkpt lat="45.19866" lon="5.72752">
        <ele>403.216</ele>
        <time>2021-03-13T05:00:28Z</time>
      </trkpt>
      <trkpt lat="45.19864" lon="5.72757">
        <ele>403.961</ele>
        <time>2021-03-13T05:00:30Z</time>
      </trkpt>
      <trkpt lat="45.19852" lon="5.72761">
        <ele>405.972</ele>
        <time>2021-03-13T05:00:36Z</time>
      </trkpt>
      <trkpt lat="45.1985" lon="5.72754">
        <ele>406.19</ele>
        <time>2021-03-13T05:00:40Z</time>
      </trkpt>
      <trkpt lat="45.1985" lon="5.72745">
        <ele>406.95</ele>
        <time>2021-03-13T05:00:47Z</time>
      </trkpt>
      <trkpt lat="45.19856" lon="5.72745">
        <ele>408.331</ele>
        <time>2021-03-13T05:00:52Z</time>
      </trkpt>
      <trkpt lat="45.19863" lon="5.72746">
        <ele>411.286</ele>
        <time>2021-03-13T05:00:58Z</time>
      </trkpt>
      <trkpt lat="45.19864" lon="5.72746">
        <ele>411.755</ele>
        <time>2021-03-13T05:00:59Z</time>
      </trkpt>
      <trkpt lat="45.19835" lon="5.72745">
        <ele>410.335</ele>
        <time>2021-03-13T05:01:02Z</time>
      </trkpt>
      <trkpt lat="45.19832" lon="5.72736">
        <ele>409.954</ele>
        <time>2021-03-13T05:01:05Z</time>
      </trkpt>
      <trkpt lat="45.1982" lon="5.72717">
        <ele>410.959</ele>
        <time>2021-03-13T05:01:13Z</time>
      </trkpt>
      <trkpt lat="45.19809" lon="5.72706">
        <ele>410.845</ele>
        <time>2021-03-13T05:01:20Z</time>
      </trkpt>
      <trkpt lat="45.19796" lon="5.72693">
        <ele>409.986</ele>
        <time>2021-03-13T05:01:27Z</time>
      </trkpt>
      <trkpt lat="45.19783" lon="5.72677">
        <ele>409.522</ele>
        <time>2021-03-13T05:01:34Z</time>
      </trkpt>
      <trkpt lat="45.19765" lon="5.72658">
        <ele>409.57</ele>
        <time>2021-03-13T05:01:42Z</time>
      </trkpt>
      <trkpt lat="45.19754" lon="5.72643">
        <ele>409.242</ele>
        <time>2021-03-13T05:01:48Z</time>
      </trkpt>
      <trkpt lat="45.19745" lon="5.7263">
        <ele>409.302</ele>
        <time>2021-03-13T05:01:54Z</time>
      </trkpt>
      <trkpt lat="45.19734" lon="5.72629">
        <ele>410.054</ele>
        <time>2021-03-13T05:02:00Z</time>
      </trkpt>
      <trkpt lat="45.19736" lon="5.72614">
        <ele>409.562</ele>
        <time>2021-03-13T05:02:05Z</time>
      </trkpt>
      <trkpt lat="45.1974" lon="5.72604">
        <ele>410.105</ele>
        <time>2021-03-13T05:02:10Z</time>
      </trkpt>
      <trkpt lat="45.1974" lon="5.726">
        <ele>410.124</ele>
        <time>2021-03-13T05:02:11Z</time>
      </trkpt>
      <trkpt lat="45.19742" lon="5.7257">
        <ele>409.573</ele>
        <time>2021-03-13T05:02:19Z</time>
      </trkpt>
      <trkpt lat="45.19742" lon="5.72547">
        <ele>409.969</ele>
        <time>2021-03-13T05:02:26Z</time>
      </trkpt>
      <trkpt lat="45.19741" lon="5.72533">
        <ele>410.45</ele>
        <time>2021-03-13T05:02:30Z</time>
      </trkpt>
      <trkpt lat="45.19734" lon="5.7253">
        <ele>410.024</ele>
        <time>2021-03-13T05:02:34Z</time>
      </trkpt>
      <trkpt lat="45.19731" lon="5.72515">
        <ele>410.205</ele>
        <time>2021-03-13T05:02:39Z</time>
      </trkpt>
      <trkpt lat="45.19742" lon="5.72504">
        <ele>410.499</ele>
        <time>2021-03-13T05:02:45Z</time>
      </trkpt>
      <trkpt lat="45.19749" lon="5.72503">
        <ele>411.109</ele>
        <time>2021-03-13T05:02:49Z</time>
      </trkpt>
      <trkpt lat="45.19763" lon="5.72478">
        <ele>409.633</ele>
        <time>2021-03-13T05:02:58Z</time>
      </trkpt>
      <trkpt lat="45.19776" lon="5.72453">
        <ele>410.035</ele>
        <time>2021-03-13T05:03:06Z</time>
      </trkpt>
      <trkpt lat="45.19782" lon="5.72442">
        <ele>409.946</ele>
        <time>2021-03-13T05:03:10Z</time>
      </trkpt>
      <trkpt lat="45.19791" lon="5.72447">
        <ele>410.032</ele>
        <time>2021-03-13T05:03:15Z</time>
      </trkpt>
      <trkpt lat="45.19789" lon="5.72456">
        <ele>410.761</ele>
        <time>2021-03-13T05:03:17Z</time>
      </trkpt>
      <trkpt lat="45.19783" lon="5.72487">
        <ele>412.145</ele>
        <time>2021-03-13T05:03:25Z</time>
      </trkpt>
      <trkpt lat="45.19777" lon="5.72504">
        <ele>413.041</ele>
        <time>2021-03-13T05:03:31Z</time>
      </trkpt>
      <trkpt lat="45.1977" lon="5.7252">
        <ele>414.608</ele>
        <time>2021-03-13T05:03:37Z</time>
      </trkpt>
      <trkpt lat="45.19768" lon="5.72538">
        <ele>415.304</ele>
        <time>2021-03-13T05:03:43Z</time>
      </trkpt>
      <trkpt lat="45.19765" lon="5.72553">
        <ele>416.767</ele>
        <time>2021-03-13T05:03:48Z</time>
      </trkpt>
      <trkpt lat="45.19765" lon="5.72563">
        <ele>417.771</ele>
        <time>2021-03-13T05:03:52Z</time>
      </trkpt>
      <trkpt lat="45.19767" lon="5.72579">
        <ele>419.578</ele>
        <time>2021-03-13T05:03:58Z</time>
      </trkpt>
      <trkpt lat="45.19769" lon="5.72581">
        <ele>420.662</ele>
        <time>2021-03-13T05:04:00Z</time>
      </trkpt>
      <trkpt lat="45.19772" lon="5.72566">
        <ele>420.888</ele>
        <time>2021-03-13T05:04:06Z</time>
      </trkpt>
      <trkpt lat="45.19772" lon="5.72563">
        <ele>421.501</ele>
        <time>2021-03-13T05:04:07Z</time>
      </trkpt>
      <trkpt lat="45.19775" lon="5.72542">
        <ele>424.27</ele>
        <time>2021-03-13T05:04:15Z</time>
      </trkpt>
      <trkpt lat="45.19779" lon="5.72529">
        <ele>424.343</ele>
        <time>2021-03-13T05:04:20Z</time>
      </trkpt>
      <trkpt lat="45.19787" lon="5.7253">
        <ele>425.545</ele>
        <time>2021-03-13T05:04:25Z</time>
      </trkpt>
      <trkpt lat="45.19789" lon="5.72546">
        <ele>426.003</ele>
        <time>2021-03-13T05:04:30Z</time>
      </trkpt>
      <trkpt lat="45.19789" lon="5.72565">
        <ele>427.413</ele>
        <time>2021-03-13T05:04:37Z</time>
      </trkpt>
      <trkpt lat="45.19788" lon="5.72586">
        <ele>429.284</ele>
        <time>2021-03-13T05:04:44Z</time>
      </trkpt>
      <trkpt lat="45.19787" lon="5.72605">
        <ele>430.478</ele>
        <time>2021-03-13T05:04:51Z</time>
      </trkpt>
      <trkpt lat="45.19788" lon="5.7261">
        <ele>430.78</ele>
        <time>2021-03-13T05:04:53Z</time>
      </trkpt>
      <trkpt lat="45.19796" lon="5.72623">
        <ele>432.842</ele>
        <time>2021-03-13T05:05:00Z</time>
      </trkpt>
      <trkpt lat="45.19806" lon="5.72634">
        <ele>434.135</ele>
        <time>2021-03-13T05:05:08Z</time>
      </trkpt>
      <trkpt lat="45.19812" lon="5.72645">
        <ele>434.831</ele>
        <time>2021-03-13T05:05:14Z</time>
      </trkpt>
      <trkpt lat="45.19824" lon="5.72653">
        <ele>435.682</ele>
        <time>2021-03-13T05:05:20Z</time>
      </trkpt>
      <trkpt lat="45.19835" lon="5.72665">
        <ele>437.295</ele>
        <time>2021-03-13T05:05:27Z</time>
      </trkpt>
      <trkpt lat="45.19844" lon="5.72675">
        <ele>438.094</ele>
        <time>2021-03-13T05:05:33Z</time>
      </trkpt>
      <trkpt lat="45.19852" lon="5.72678">
        <ele>438.96</ele>
        <time>2021-03-13T05:05:37Z</time>
      </trkpt>
      <trkpt lat="45.19855" lon="5.72683">
        <ele>439.394</ele>
        <time>2021-03-13T05:05:40Z</time>
      </trkpt>
      <trkpt lat="45.19858" lon="5.72685">
        <ele>439.027</ele>
        <time>2021-03-13T05:05:44Z</time>
      </trkpt>
      <trkpt lat="45.19852" lon="5.72683">
        <ele>441.468</ele>
        <time>2021-03-13T05:05:48Z</time>
      </trkpt>
      <trkpt lat="45.1984" lon="5.72669">
        <ele>442.968</ele>
        <time>2021-03-13T05:05:56Z</time>
      </trkpt>
      <trkpt lat="45.19831" lon="5.72657">
        <ele>444.121</ele>
        <time>2021-03-13T05:06:02Z</time>
      </trkpt>
      <trkpt lat="45.19823" lon="5.72643">
        <ele>445.228</ele>
        <time>2021-03-13T05:06:09Z</time>
      </trkpt>
      <trkpt lat="45.19824" lon="5.7264">
        <ele>445.453</ele>
        <time>2021-03-13T05:06:10Z</time>
      </trkpt>
      <trkpt lat="45.19822" lon="5.7263">
        <ele>445.283</ele>
        <time>2021-03-13T05:06:14Z</time>
      </trkpt>
      <trkpt lat="45.19817" lon="5.72606">
        <ele>446.254</ele>
        <time>2021-03-13T05:06:23Z</time>
      </trkpt>
      <trkpt lat="45.19816" lon="5.72585">
        <ele>449.431</ele>
        <time>2021-03-13T05:06:30Z</time>
      </trkpt>
      <trkpt lat="45.19816" lon="5.72581">
        <ele>449.295</ele>
        <time>2021-03-13T05:06:31Z</time>
      </trkpt>
      <trkpt lat="45.19815" lon="5.72565">
        <ele>450.57</ele>
        <time>2021-03-13T05:06:36Z</time>
      </trkpt>
      <trkpt lat="45.19815" lon="5.72547">
        <ele>452.001</ele>
        <time>2021-03-13T05:06:43Z</time>
      </trkpt>
      <trkpt lat="45.19816" lon="5.72528">
        <ele>453.15</ele>
        <time>2021-03-13T05:06:49Z</time>
      </trkpt>
      <trkpt lat="45.19821" lon="5.72513">
        <ele>454.45</ele>
        <time>2021-03-13T05:06:54Z</time>
      </trkpt>
      <trkpt lat="45.19828" lon="5.72493">
        <ele>456.266</ele>
        <time>2021-03-13T05:07:02Z</time>
      </trkpt>
      <trkpt lat="45.19831" lon="5.72476">
        <ele>457.5</ele>
        <time>2021-03-13T05:07:10Z</time>
      </trkpt>
      <trkpt lat="45.19833" lon="5.72454">
        <ele>459.669</ele>
        <time>2021-03-13T05:07:18Z</time>
      </trkpt>
      <trkpt lat="45.19838" lon="5.72443">
        <ele>460.267</ele>
        <time>2021-03-13T05:07:23Z</time>
      </trkpt>
      <trkpt lat="45.19844" lon="5.72448">
        <ele>461.685</ele>
        <time>2021-03-13T05:07:27Z</time>
      </trkpt>
      <trkpt lat="45.19846" lon="5.72467">
        <ele>463.332</ele>
        <time>2021-03-13T05:07:34Z</time>
      </trkpt>
      <trkpt lat="45.19846" lon="5.72469">
        <ele>462.977</ele>
        <time>2021-03-13T05:07:35Z</time>
      </trkpt>
      <trkpt lat="45.19848" lon="5.72488">
        <ele>464.425</ele>
        <time>2021-03-13T05:07:42Z</time>
      </trkpt>
      <trkpt lat="45.19851" lon="5.72507">
        <ele>465.738</ele>
        <time>2021-03-13T05:07:49Z</time>
      </trkpt>
      <trkpt lat="45.19852" lon="5.72512">
        <ele>466.484</ele>
        <time>2021-03-13T05:07:51Z</time>
      </trkpt>
      <trkpt lat="45.19851" lon="5.72534">
        <ele>466.966</ele>
        <time>2021-03-13T05:07:59Z</time>
      </trkpt>
      <trkpt lat="45.19852" lon="5.72546">
        <ele>468.467</ele>
        <time>2021-03-13T05:08:03Z</time>
      </trkpt>
      <trkpt lat="45.19855" lon="5.72549">
        <ele>469.159</ele>
        <time>2021-03-13T05:08:06Z</time>
      </trkpt>
      <trkpt lat="45.19856" lon="5.7253">
        <ele>471.624</ele>
        <time>2021-03-13T05:08:14Z</time>
      </trkpt>
      <trkpt lat="45.19855" lon="5.72511">
        <ele>473.157</ele>
        <time>2021-03-13T05:08:21Z</time>
      </trkpt>
      <trkpt lat="45.19858" lon="5.72497">
        <ele>473.598</ele>
        <time>2021-03-13T05:08:25Z</time>
      </trkpt>
      <trkpt lat="45.19863" lon="5.72493">
        <ele>474.76</ele>
        <time>2021-03-13T05:08:30Z</time>
      </trkpt>
      <trkpt lat="45.19865" lon="5.72491">
        <ele>476.838</ele>
        <time>2021-03-13T05:08:33Z</time>
      </trkpt>
      <trkpt lat="45.19866" lon="5.72485">
        <ele>478.621</ele>
        <time>2021-03-13T05:08:36Z</time>
      </trkpt>
      <trkpt lat="45.19868" lon="5.72481">
        <ele>479.707</ele>
        <time>2021-03-13T05:08:39Z</time>
      </trkpt>
      <trkpt lat="45.19873" lon="5.72475">
        <ele>480.839</ele>
        <time>2021-03-13T05:08:45Z</time>
      </trkpt>
      <trkpt lat="45.19874" lon="5.72474">
        <ele>481.969</ele>
        <time>2021-03-13T05:08:47Z</time>
      </trkpt>
      <trkpt lat="45.19876" lon="5.72475">
        <ele>483.412</ele>
        <time>2021-03-13T05:08:50Z</time>
      </trkpt>
      <trkpt lat="45.1988" lon="5.72494">
        <ele>483.857</ele>
        <time>2021-03-13T05:08:56Z</time>
      </trkpt>
      <trkpt lat="45.19881" lon="5.72502">
        <ele>485.385</ele>
        <time>2021-03-13T05:08:58Z</time>
      </trkpt>
      <trkpt lat="45.1988" lon="5.72525">
        <ele>484.414</ele>
        <time>2021-03-13T05:09:04Z</time>
      </trkpt>
      <trkpt lat="45.19884" lon="5.72539">
        <ele>486.546</ele>
        <time>2021-03-13T05:09:11Z</time>
      </trkpt>
      <trkpt lat="45.19885" lon="5.7254">
        <ele>486.769</ele>
        <time>2021-03-13T05:09:12Z</time>
      </trkpt>
      <trkpt lat="45.19884" lon="5.72547">
        <ele>489.943</ele>
        <time>2021-03-13T05:09:18Z</time>
      </trkpt>
      <trkpt lat="45.1988" lon="5.72554">
        <ele>490.441</ele>
        <time>2021-03-13T05:09:24Z</time>
      </trkpt>
      <trkpt lat="45.19881" lon="5.72563">
        <ele>490.684</ele>
        <time>2021-03-13T05:09:27Z</time>
      </trkpt>
      <trkpt lat="45.19879" lon="5.72566">
        <ele>490.464</ele>
        <time>2021-03-13T05:09:29Z</time>
      </trkpt>
      <trkpt lat="45.19873" lon="5.72562">
        <ele>490.531</ele>
        <time>2021-03-13T05:09:33Z</time>
      </trkpt>
      <trkpt lat="45.19871" lon="5.72538">
        <ele>490.691</ele>
        <time>2021-03-13T05:09:41Z</time>
      </trkpt>
      <trkpt lat="45.19868" lon="5.72512">
        <ele>490.962</ele>
        <time>2021-03-13T05:09:49Z</time>
      </trkpt>
      <trkpt lat="45.19867" lon="5.72509">
        <ele>490.782</ele>
        <time>2021-03-13T05:09:50Z</time>
      </trkpt>
      <trkpt lat="45.19874" lon="5.72506">
        <ele>490.79</ele>
        <time>2021-03-13T05:09:55Z</time>
      </trkpt>
      <trkpt lat="45.19874" lon="5.72509">
        <ele>490.509</ele>
        <time>2021-03-13T05:09:56Z</time>
      </trkpt>
      <trkpt lat="45.19876" lon="5.72537">
        <ele>490.298</ele>
        <time>2021-03-13T05:10:04Z</time>
      </trkpt>
      <trkpt lat="45.19877" lon="5.72546">
        <ele>490.395</ele>
        <time>2021-03-13T05:10:07Z</time>
      </trkpt>
      <trkpt lat="45.19879" lon="5.72547">
        <ele>490.517</ele>
        <time>2021-03-13T05:10:12Z</time>
      </trkpt>
      <trkpt lat="45.19881" lon="5.72538">
        <ele>487.168</ele>
        <time>2021-03-13T05:10:18Z</time>
      </trkpt>
      <trkpt lat="45.19881" lon="5.72536">
        <ele>485.652</ele>
        <time>2021-03-13T05:10:20Z</time>
      </trkpt>
      <trkpt lat="45.19884" lon="5.72517">
        <ele>484.532</ele>
        <time>2021-03-13T05:10:27Z</time>
      </trkpt>
      <trkpt lat="45.19883" lon="5.7251">
        <ele>484.165</ele>
        <time>2021-03-13T05:10:29Z</time>
      </trkpt>
      <trkpt lat="45.19882" lon="5.72491">
        <ele>483.889</ele>
        <time>2021-03-13T05:10:36Z</time>
      </trkpt>
      <trkpt lat="45.19877" lon="5.72492">
        <ele>481.181</ele>
        <time>2021-03-13T05:10:41Z</time>
      </trkpt>
      <trkpt lat="45.19875" lon="5.72492">
        <ele>480.458</ele>
        <time>2021-03-13T05:10:43Z</time>
      </trkpt>
      <trkpt lat="45.19868" lon="5.7249">
        <ele>477.708</ele>
        <time>2021-03-13T05:10:49Z</time>
      </trkpt>
      <trkpt lat="45.19866" lon="5.72488">
        <ele>476.491</ele>
        <time>2021-03-13T05:10:51Z</time>
      </trkpt>
      <trkpt lat="45.19865" lon="5.72488">
        <ele>475.167</ele>
        <time>2021-03-13T05:10:52Z</time>
      </trkpt>
      <trkpt lat="45.19862" lon="5.72479">
        <ele>474.409</ele>
        <time>2021-03-13T05:10:58Z</time>
      </trkpt>
      <trkpt lat="45.19869" lon="5.72476">
        <ele>474.42</ele>
        <time>2021-03-13T05:11:01Z</time>
      </trkpt>
      <trkpt lat="45.19884" lon="5.72471">
        <ele>475.212</ele>
        <time>2021-03-13T05:11:08Z</time>
      </trkpt>
      <trkpt lat="45.19899" lon="5.72462">
        <ele>476.362</ele>
        <time>2021-03-13T05:11:13Z</time>
      </trkpt>
      <trkpt lat="45.19892" lon="5.72442">
        <ele>474.706</ele>
        <time>2021-03-13T05:11:18Z</time>
      </trkpt>
      <trkpt lat="45.19899" lon="5.72428">
        <ele>473.05</ele>
        <time>2021-03-13T05:11:22Z</time>
      </trkpt>
      <trkpt lat="45.19916" lon="5.72424">
        <ele>471.138</ele>
        <time>2021-03-13T05:11:29Z</time>
      </trkpt>
      <trkpt lat="45.1993" lon="5.7242">
        <ele>469.551</ele>
        <time>2021-03-13T05:11:34Z</time>
      </trkpt>
      <trkpt lat="45.1995" lon="5.72418">
        <ele>470.459</ele>
        <time>2021-03-13T05:11:41Z</time>
      </trkpt>
      <trkpt lat="45.19972" lon="5.7242">
        <ele>473.178</ele>
        <time>2021-03-13T05:11:50Z</time>
      </trkpt>
      <trkpt lat="45.1999" lon="5.72421">
        <ele>474.9</ele>
        <time>2021-03-13T05:11:58Z</time>
      </trkpt>
      <trkpt lat="45.19996" lon="5.72421">
        <ele>476.355</ele>
        <time>2021-03-13T05:12:01Z</time>
      </trkpt>
      <trkpt lat="45.20016" lon="5.72423">
        <ele>478.473</ele>
        <time>2021-03-13T05:12:11Z</time>
      </trkpt>
      <trkpt lat="45.20037" lon="5.72424">
        <ele>480.426</ele>
        <time>2021-03-13T05:12:21Z</time>
      </trkpt>
      <trkpt lat="45.20054" lon="5.72425">
        <ele>482.285</ele>
        <time>2021-03-13T05:12:30Z</time>
      </trkpt>
      <trkpt lat="45.20056" lon="5.72425">
        <ele>482.334</ele>
        <time>2021-03-13T05:12:31Z</time>
      </trkpt>
      <trkpt lat="45.20064" lon="5.72431">
        <ele>483.719</ele>
        <time>2021-03-13T05:12:35Z</time>
      </trkpt>
      <trkpt lat="45.20066" lon="5.72434">
        <ele>484.149</ele>
        <time>2021-03-13T05:12:37Z</time>
      </trkpt>
      <trkpt lat="45.20069" lon="5.7244">
        <ele>485.597</ele>
        <time>2021-03-13T05:12:40Z</time>
      </trkpt>
      <trkpt lat="45.20073" lon="5.7246">
        <ele>487.105</ele>
        <time>2021-03-13T05:12:47Z</time>
      </trkpt>
      <trkpt lat="45.20073" lon="5.72485">
        <ele>489.454</ele>
        <time>2021-03-13T05:12:55Z</time>
      </trkpt>
      <trkpt lat="45.20067" lon="5.72509">
        <ele>490.399</ele>
        <time>2021-03-13T05:13:03Z</time>
      </trkpt>
      <trkpt lat="45.20067" lon="5.72522">
        <ele>490.095</ele>
        <time>2021-03-13T05:13:07Z</time>
      </trkpt>
      <trkpt lat="45.20084" lon="5.72542">
        <ele>490.617</ele>
        <time>2021-03-13T05:13:16Z</time>
      </trkpt>
      <trkpt lat="45.20097" lon="5.72543">
        <ele>492.603</ele>
        <time>2021-03-13T05:13:23Z</time>
      </trkpt>
      <trkpt lat="45.20106" lon="5.72542">
        <ele>495.404</ele>
        <time>2021-03-13T05:13:29Z</time>
      </trkpt>
      <trkpt lat="45.20117" lon="5.72545">
        <ele>496.93</ele>
        <time>2021-03-13T05:13:36Z</time>
      </trkpt>
      <trkpt lat="45.20127" lon="5.72547">
        <ele>499.515</ele>
        <time>2021-03-13T05:13:43Z</time>
      </trkpt>
      <trkpt lat="45.20139" lon="5.72551">
        <ele>500.978</ele>
        <time>2021-03-13T05:13:51Z</time>
      </trkpt>
      <trkpt lat="45.20145" lon="5.72554">
        <ele>501.913</ele>
        <time>2021-03-13T05:13:55Z</time>
      </trkpt>
      <trkpt lat="45.20146" lon="5.72554">
        <ele>502.3</ele>
        <time>2021-03-13T05:13:56Z</time>
      </trkpt>
      <trkpt lat="45.20158" lon="5.72557">
        <ele>504.078</ele>
        <time>2021-03-13T05:14:04Z</time>
      </trkpt>
      <trkpt lat="45.2017" lon="5.72564">
        <ele>504.889</ele>
        <time>2021-03-13T05:14:12Z</time>
      </trkpt>
      <trkpt lat="45.20177" lon="5.72569">
        <ele>507.066</ele>
        <time>2021-03-13T05:14:17Z</time>
      </trkpt>
      <trkpt lat="45.2019" lon="5.72577">
        <ele>508.74</ele>
        <time>2021-03-13T05:14:26Z</time>
      </trkpt>
      <trkpt lat="45.20198" lon="5.72582">
        <ele>509.245</ele>
        <time>2021-03-13T05:14:32Z</time>
      </trkpt>
      <trkpt lat="45.20209" lon="5.72591">
        <ele>512.504</ele>
        <time>2021-03-13T05:14:40Z</time>
      </trkpt>
      <trkpt lat="45.20217" lon="5.72595">
        <ele>513.854</ele>
        <time>2021-03-13T05:14:46Z</time>
      </trkpt>
      <trkpt lat="45.20226" lon="5.726">
        <ele>514.628</ele>
        <time>2021-03-13T05:14:51Z</time>
      </trkpt>
      <trkpt lat="45.20233" lon="5.72604">
        <ele>516.342</ele>
        <time>2021-03-13T05:14:58Z</time>
      </trkpt>
      <trkpt lat="45.20243" lon="5.72605">
        <ele>516.988</ele>
        <time>2021-03-13T05:15:05Z</time>
      </trkpt>
      <trkpt lat="45.20253" lon="5.72605">
        <ele>518.523</ele>
        <time>2021-03-13T05:15:11Z</time>
      </trkpt>
      <trkpt lat="45.2026" lon="5.72606">
        <ele>519.885</ele>
        <time>2021-03-13T05:15:15Z</time>
      </trkpt>
      <trkpt lat="45.20263" lon="5.72606">
        <ele>519.819</ele>
        <time>2021-03-13T05:15:17Z</time>
      </trkpt>
      <trkpt lat="45.20266" lon="5.72605">
        <ele>521.026</ele>
        <time>2021-03-13T05:15:19Z</time>
      </trkpt>
      <trkpt lat="45.20277" lon="5.72604">
        <ele>522.61</ele>
        <time>2021-03-13T05:15:26Z</time>
      </trkpt>
      <trkpt lat="45.20289" lon="5.72606">
        <ele>523.929</ele>
        <time>2021-03-13T05:15:33Z</time>
      </trkpt>
      <trkpt lat="45.2029" lon="5.72606">
        <ele>524.083</ele>
        <time>2021-03-13T05:15:34Z</time>
      </trkpt>
      <trkpt lat="45.20303" lon="5.72608">
        <ele>525.867</ele>
        <time>2021-03-13T05:15:42Z</time>
      </trkpt>
      <trkpt lat="45.20308" lon="5.72609">
        <ele>527.088</ele>
        <time>2021-03-13T05:15:45Z</time>
      </trkpt>
      <trkpt lat="45.20313" lon="5.72612">
        <ele>529.335</ele>
        <time>2021-03-13T05:15:51Z</time>
      </trkpt>
      <trkpt lat="45.20323" lon="5.72614">
        <ele>529.655</ele>
        <time>2021-03-13T05:15:58Z</time>
      </trkpt>
      <trkpt lat="45.20333" lon="5.72623">
        <ele>531.743</ele>
        <time>2021-03-13T05:16:07Z</time>
      </trkpt>
      <trkpt lat="45.20336" lon="5.72624">
        <ele>532.726</ele>
        <time>2021-03-13T05:16:09Z</time>
      </trkpt>
      <trkpt lat="45.20344" lon="5.72632">
        <ele>533.989</ele>
        <time>2021-03-13T05:16:16Z</time>
      </trkpt>
      <trkpt lat="45.20355" lon="5.72643">
        <ele>535.67</ele>
        <time>2021-03-13T05:16:25Z</time>
      </trkpt>
      <trkpt lat="45.2036" lon="5.72651">
        <ele>537.853</ele>
        <time>2021-03-13T05:16:32Z</time>
      </trkpt>
      <trkpt lat="45.20365" lon="5.72654">
        <ele>538.416</ele>
        <time>2021-03-13T05:16:35Z</time>
      </trkpt>
      <trkpt lat="45.20376" lon="5.72661">
        <ele>539.16</ele>
        <time>2021-03-13T05:16:42Z</time>
      </trkpt>
      <trkpt lat="45.20384" lon="5.72669">
        <ele>541.053</ele>
        <time>2021-03-13T05:16:49Z</time>
      </trkpt>
      <trkpt lat="45.20384" lon="5.72671">
        <ele>541.006</ele>
        <time>2021-03-13T05:16:50Z</time>
      </trkpt>
      <trkpt lat="45.20389" lon="5.72674">
        <ele>541.812</ele>
        <time>2021-03-13T05:16:53Z</time>
      </trkpt>
      <trkpt lat="45.204" lon="5.72684">
        <ele>543.802</ele>
        <time>2021-03-13T05:17:02Z</time>
      </trkpt>
      <trkpt lat="45.20407" lon="5.72692">
        <ele>545.752</ele>
        <time>2021-03-13T05:17:09Z</time>
      </trkpt>
      <trkpt lat="45.20412" lon="5.72696">
        <ele>546.539</ele>
        <time>2021-03-13T05:17:13Z</time>
      </trkpt>
      <trkpt lat="45.20424" lon="5.72707">
        <ele>548.603</ele>
        <time>2021-03-13T05:17:21Z</time>
      </trkpt>
      <trkpt lat="45.20433" lon="5.72711">
        <ele>549.359</ele>
        <time>2021-03-13T05:17:27Z</time>
      </trkpt>
      <trkpt lat="45.20438" lon="5.72712">
        <ele>550.641</ele>
        <time>2021-03-13T05:17:30Z</time>
      </trkpt>
      <trkpt lat="45.20448" lon="5.72714">
        <ele>551.452</ele>
        <time>2021-03-13T05:17:37Z</time>
      </trkpt>
      <trkpt lat="45.20461" lon="5.72716">
        <ele>551.854</ele>
        <time>2021-03-13T05:17:44Z</time>
      </trkpt>
      <trkpt lat="45.20471" lon="5.72718">
        <ele>553.416</ele>
        <time>2021-03-13T05:17:51Z</time>
      </trkpt>
      <trkpt lat="45.2048" lon="5.72722">
        <ele>554.962</ele>
        <time>2021-03-13T05:17:58Z</time>
      </trkpt>
      <trkpt lat="45.20481" lon="5.72723">
        <ele>555.107</ele>
        <time>2021-03-13T05:17:59Z</time>
      </trkpt>
      <trkpt lat="45.20489" lon="5.72727">
        <ele>555.921</ele>
        <time>2021-03-13T05:18:05Z</time>
      </trkpt>
      <trkpt lat="45.20491" lon="5.72728">
        <ele>555.938</ele>
        <time>2021-03-13T05:18:06Z</time>
      </trkpt>
      <trkpt lat="45.20507" lon="5.72738">
        <ele>557.349</ele>
        <time>2021-03-13T05:18:13Z</time>
      </trkpt>
      <trkpt lat="45.20512" lon="5.72742">
        <ele>557.578</ele>
        <time>2021-03-13T05:18:15Z</time>
      </trkpt>
      <trkpt lat="45.20515" lon="5.72744">
        <ele>558.345</ele>
        <time>2021-03-13T05:18:17Z</time>
      </trkpt>
      <trkpt lat="45.20518" lon="5.72739">
        <ele>560.449</ele>
        <time>2021-03-13T05:18:22Z</time>
      </trkpt>
      <trkpt lat="45.20515" lon="5.72737">
        <ele>560.914</ele>
        <time>2021-03-13T05:18:24Z</time>
      </trkpt>
      <trkpt lat="45.20503" lon="5.7273">
        <ele>562.493</ele>
        <time>2021-03-13T05:18:31Z</time>
      </trkpt>
      <trkpt lat="45.20494" lon="5.72725">
        <ele>562.979</ele>
        <time>2021-03-13T05:18:36Z</time>
      </trkpt>
      <trkpt lat="45.20482" lon="5.72716">
        <ele>564.389</ele>
        <time>2021-03-13T05:18:44Z</time>
      </trkpt>
      <trkpt lat="45.2047" lon="5.72705">
        <ele>567.614</ele>
        <time>2021-03-13T05:18:52Z</time>
      </trkpt>
      <trkpt lat="45.20463" lon="5.72697">
        <ele>568.478</ele>
        <time>2021-03-13T05:18:59Z</time>
      </trkpt>
      <trkpt lat="45.20461" lon="5.72691">
        <ele>569.027</ele>
        <time>2021-03-13T05:19:02Z</time>
      </trkpt>
      <trkpt lat="45.20452" lon="5.72683">
        <ele>569.519</ele>
        <time>2021-03-13T05:19:09Z</time>
      </trkpt>
      <trkpt lat="45.20449" lon="5.72682">
        <ele>570.165</ele>
        <time>2021-03-13T05:19:11Z</time>
      </trkpt>
      <trkpt lat="45.20439" lon="5.72673">
        <ele>571.233</ele>
        <time>2021-03-13T05:19:17Z</time>
      </trkpt>
      <trkpt lat="45.20437" lon="5.72668">
        <ele>570.943</ele>
        <time>2021-03-13T05:19:19Z</time>
      </trkpt>
      <trkpt lat="45.20428" lon="5.72658">
        <ele>573.246</ele>
        <time>2021-03-13T05:19:26Z</time>
      </trkpt>
      <trkpt lat="45.20419" lon="5.72643">
        <ele>575.37</ele>
        <time>2021-03-13T05:19:34Z</time>
      </trkpt>
      <trkpt lat="45.20415" lon="5.72635">
        <ele>575.55</ele>
        <time>2021-03-13T05:19:38Z</time>
      </trkpt>
      <trkpt lat="45.20421" lon="5.72628">
        <ele>576.978</ele>
        <time>2021-03-13T05:19:44Z</time>
      </trkpt>
      <trkpt lat="45.20428" lon="5.72635">
        <ele>576.984</ele>
        <time>2021-03-13T05:19:49Z</time>
      </trkpt>
      <trkpt lat="45.20437" lon="5.72643">
        <ele>577.927</ele>
        <time>2021-03-13T05:19:54Z</time>
      </trkpt>
      <trkpt lat="45.20444" lon="5.72646">
        <ele>578.884</ele>
        <time>2021-03-13T05:19:59Z</time>
      </trkpt>
      <trkpt lat="45.20457" lon="5.7265">
        <ele>581.391</ele>
        <time>2021-03-13T05:20:06Z</time>
      </trkpt>
      <trkpt lat="45.20459" lon="5.72652">
        <ele>580.935</ele>
        <time>2021-03-13T05:20:08Z</time>
      </trkpt>
      <trkpt lat="45.20472" lon="5.72655">
        <ele>583.606</ele>
        <time>2021-03-13T05:20:16Z</time>
      </trkpt>
      <trkpt lat="45.20479" lon="5.72658">
        <ele>584.484</ele>
        <time>2021-03-13T05:20:21Z</time>
      </trkpt>
      <trkpt lat="45.2049" lon="5.72661">
        <ele>586</ele>
        <time>2021-03-13T05:20:27Z</time>
      </trkpt>
      <trkpt lat="45.20501" lon="5.72665">
        <ele>586.83</ele>
        <time>2021-03-13T05:20:34Z</time>
      </trkpt>
      <trkpt lat="45.2051" lon="5.72671">
        <ele>588.077</ele>
        <time>2021-03-13T05:20:41Z</time>
      </trkpt>
      <trkpt lat="45.2052" lon="5.72677">
        <ele>589.922</ele>
        <time>2021-03-13T05:20:48Z</time>
      </trkpt>
      <trkpt lat="45.20522" lon="5.72677">
        <ele>590.076</ele>
        <time>2021-03-13T05:20:49Z</time>
      </trkpt>
      <trkpt lat="45.20526" lon="5.72681">
        <ele>590.691</ele>
        <time>2021-03-13T05:20:52Z</time>
      </trkpt>
      <trkpt lat="45.20534" lon="5.72685">
        <ele>592.624</ele>
        <time>2021-03-13T05:20:57Z</time>
      </trkpt>
      <trkpt lat="45.20547" lon="5.72695">
        <ele>593.411</ele>
        <time>2021-03-13T05:21:04Z</time>
      </trkpt>
      <trkpt lat="45.20552" lon="5.72697">
        <ele>593.43</ele>
        <time>2021-03-13T05:21:06Z</time>
      </trkpt>
      <trkpt lat="45.20567" lon="5.72708">
        <ele>595.513</ele>
        <time>2021-03-13T05:21:15Z</time>
      </trkpt>
      <trkpt lat="45.20572" lon="5.72711">
        <ele>596.366</ele>
        <time>2021-03-13T05:21:19Z</time>
      </trkpt>
      <trkpt lat="45.20577" lon="5.72713">
        <ele>597.926</ele>
        <time>2021-03-13T05:21:23Z</time>
      </trkpt>
      <trkpt lat="45.20578" lon="5.72705">
        <ele>599.924</ele>
        <time>2021-03-13T05:21:30Z</time>
      </trkpt>
      <trkpt lat="45.20563" lon="5.727">
        <ele>600.173</ele>
        <time>2021-03-13T05:21:37Z</time>
      </trkpt>
      <trkpt lat="45.20558" lon="5.72697">
        <ele>600.625</ele>
        <time>2021-03-13T05:21:40Z</time>
      </trkpt>
      <trkpt lat="45.20548" lon="5.7268">
        <ele>601.511</ele>
        <time>2021-03-13T05:21:48Z</time>
      </trkpt>
      <trkpt lat="45.20541" lon="5.72668">
        <ele>602.127</ele>
        <time>2021-03-13T05:21:54Z</time>
      </trkpt>
      <trkpt lat="45.20532" lon="5.72655">
        <ele>603.303</ele>
        <time>2021-03-13T05:22:01Z</time>
      </trkpt>
      <trkpt lat="45.20529" lon="5.72649">
        <ele>604.066</ele>
        <time>2021-03-13T05:22:06Z</time>
      </trkpt>
      <trkpt lat="45.20524" lon="5.72645">
        <ele>604.605</ele>
        <time>2021-03-13T05:22:09Z</time>
      </trkpt>
      <trkpt lat="45.20512" lon="5.72637">
        <ele>606.306</ele>
        <time>2021-03-13T05:22:17Z</time>
      </trkpt>
      <trkpt lat="45.20509" lon="5.72636">
        <ele>606.496</ele>
        <time>2021-03-13T05:22:19Z</time>
      </trkpt>
      <trkpt lat="45.20504" lon="5.72634">
        <ele>607.448</ele>
        <time>2021-03-13T05:22:22Z</time>
      </trkpt>
      <trkpt lat="45.20498" lon="5.72628">
        <ele>607.573</ele>
        <time>2021-03-13T05:22:27Z</time>
      </trkpt>
      <trkpt lat="45.20491" lon="5.72623">
        <ele>608.687</ele>
        <time>2021-03-13T05:22:31Z</time>
      </trkpt>
      <trkpt lat="45.20483" lon="5.72615">
        <ele>610.729</ele>
        <time>2021-03-13T05:22:36Z</time>
      </trkpt>
      <trkpt lat="45.20472" lon="5.72602">
        <ele>611.437</ele>
        <time>2021-03-13T05:22:43Z</time>
      </trkpt>
      <trkpt lat="45.20462" lon="5.72583">
        <ele>612.645</ele>
        <time>2021-03-13T05:22:52Z</time>
      </trkpt>
      <trkpt lat="45.20457" lon="5.72574">
        <ele>613.196</ele>
        <time>2021-03-13T05:22:56Z</time>
      </trkpt>
      <trkpt lat="45.20454" lon="5.72565">
        <ele>613.935</ele>
        <time>2021-03-13T05:23:00Z</time>
      </trkpt>
      <trkpt lat="45.20444" lon="5.72548">
        <ele>616.349</ele>
        <time>2021-03-13T05:23:07Z</time>
      </trkpt>
      <trkpt lat="45.2044" lon="5.72536">
        <ele>617.792</ele>
        <time>2021-03-13T05:23:12Z</time>
      </trkpt>
      <trkpt lat="45.20437" lon="5.72522">
        <ele>619.155</ele>
        <time>2021-03-13T05:23:18Z</time>
      </trkpt>
      <trkpt lat="45.20438" lon="5.72516">
        <ele>619.635</ele>
        <time>2021-03-13T05:23:20Z</time>
      </trkpt>
      <trkpt lat="45.20446" lon="5.72517">
        <ele>619.729</ele>
        <time>2021-03-13T05:23:26Z</time>
      </trkpt>
      <trkpt lat="45.20448" lon="5.72519">
        <ele>620.007</ele>
        <time>2021-03-13T05:23:27Z</time>
      </trkpt>
      <trkpt lat="45.20455" lon="5.72529">
        <ele>621.158</ele>
        <time>2021-03-13T05:23:32Z</time>
      </trkpt>
      <trkpt lat="45.20463" lon="5.72538">
        <ele>621.672</ele>
        <time>2021-03-13T05:23:38Z</time>
      </trkpt>
      <trkpt lat="45.2047" lon="5.72549">
        <ele>623.246</ele>
        <time>2021-03-13T05:23:44Z</time>
      </trkpt>
      <trkpt lat="45.20474" lon="5.72555">
        <ele>624.825</ele>
        <time>2021-03-13T05:23:48Z</time>
      </trkpt>
      <trkpt lat="45.20483" lon="5.72563">
        <ele>625.956</ele>
        <time>2021-03-13T05:23:55Z</time>
      </trkpt>
      <trkpt lat="45.20487" lon="5.72561">
        <ele>626.006</ele>
        <time>2021-03-13T05:23:57Z</time>
      </trkpt>
      <trkpt lat="45.20489" lon="5.72556">
        <ele>627.32</ele>
        <time>2021-03-13T05:24:00Z</time>
      </trkpt>
      <trkpt lat="45.20487" lon="5.72546">
        <ele>629.93</ele>
        <time>2021-03-13T05:24:07Z</time>
      </trkpt>
      <trkpt lat="45.20483" lon="5.72529">
        <ele>632.023</ele>
        <time>2021-03-13T05:24:15Z</time>
      </trkpt>
      <trkpt lat="45.20484" lon="5.72507">
        <ele>632.119</ele>
        <time>2021-03-13T05:24:23Z</time>
      </trkpt>
      <trkpt lat="45.20481" lon="5.72489">
        <ele>631.861</ele>
        <time>2021-03-13T05:24:28Z</time>
      </trkpt>
      <trkpt lat="45.20477" lon="5.72478">
        <ele>632.103</ele>
        <time>2021-03-13T05:24:32Z</time>
      </trkpt>
      <trkpt lat="45.20475" lon="5.72457">
        <ele>634.676</ele>
        <time>2021-03-13T05:24:41Z</time>
      </trkpt>
      <trkpt lat="45.20474" lon="5.72442">
        <ele>636.831</ele>
        <time>2021-03-13T05:24:48Z</time>
      </trkpt>
      <trkpt lat="45.20475" lon="5.7244">
        <ele>637.489</ele>
        <time>2021-03-13T05:24:49Z</time>
      </trkpt>
      <trkpt lat="45.20479" lon="5.7243">
        <ele>637.684</ele>
        <time>2021-03-13T05:24:54Z</time>
      </trkpt>
      <trkpt lat="45.20484" lon="5.72425">
        <ele>637.534</ele>
        <time>2021-03-13T05:24:59Z</time>
      </trkpt>
      <trkpt lat="45.20471" lon="5.72433">
        <ele>636.546</ele>
        <time>2021-03-13T05:25:07Z</time>
      </trkpt>
      <trkpt lat="45.2047" lon="5.72441">
        <ele>636.607</ele>
        <time>2021-03-13T05:25:10Z</time>
      </trkpt>
      <trkpt lat="45.20471" lon="5.72459">
        <ele>635.069</ele>
        <time>2021-03-13T05:25:17Z</time>
      </trkpt>
      <trkpt lat="45.20466" lon="5.72472">
        <ele>633.498</ele>
        <time>2021-03-13T05:25:22Z</time>
      </trkpt>
      <trkpt lat="45.20465" lon="5.72476">
        <ele>632.868</ele>
        <time>2021-03-13T05:25:23Z</time>
      </trkpt>
      <trkpt lat="45.20468" lon="5.72498">
        <ele>631.282</ele>
        <time>2021-03-13T05:25:30Z</time>
      </trkpt>
      <trkpt lat="45.20474" lon="5.72513">
        <ele>633.205</ele>
        <time>2021-03-13T05:25:35Z</time>
      </trkpt>
      <trkpt lat="45.2048" lon="5.72523">
        <ele>632.889</ele>
        <time>2021-03-13T05:25:39Z</time>
      </trkpt>
      <trkpt lat="45.20494" lon="5.72543">
        <ele>633.804</ele>
        <time>2021-03-13T05:25:47Z</time>
      </trkpt>
      <trkpt lat="45.20497" lon="5.72547">
        <ele>633.469</ele>
        <time>2021-03-13T05:25:49Z</time>
      </trkpt>
      <trkpt lat="45.20516" lon="5.72559">
        <ele>633.584</ele>
        <time>2021-03-13T05:25:57Z</time>
      </trkpt>
      <trkpt lat="45.20534" lon="5.7256">
        <ele>631.574</ele>
        <time>2021-03-13T05:26:04Z</time>
      </trkpt>
      <trkpt lat="45.20548" lon="5.72561">
        <ele>632.155</ele>
        <time>2021-03-13T05:26:10Z</time>
      </trkpt>
      <trkpt lat="45.20551" lon="5.72562">
        <ele>632.454</ele>
        <time>2021-03-13T05:26:12Z</time>
      </trkpt>
      <trkpt lat="45.20569" lon="5.72566">
        <ele>634.059</ele>
        <time>2021-03-13T05:26:21Z</time>
      </trkpt>
      <trkpt lat="45.20571" lon="5.72568">
        <ele>634.03</ele>
        <time>2021-03-13T05:26:23Z</time>
      </trkpt>
      <trkpt lat="45.20574" lon="5.72569">
        <ele>634.526</ele>
        <time>2021-03-13T05:26:26Z</time>
      </trkpt>
      <trkpt lat="45.20581" lon="5.72576">
        <ele>635.438</ele>
        <time>2021-03-13T05:26:32Z</time>
      </trkpt>
      <trkpt lat="45.2059" lon="5.72585">
        <ele>635.786</ele>
        <time>2021-03-13T05:26:38Z</time>
      </trkpt>
      <trkpt lat="45.20593" lon="5.72588">
        <ele>636.341</ele>
        <time>2021-03-13T05:26:40Z</time>
      </trkpt>
      <trkpt lat="45.20607" lon="5.72596">
        <ele>636.551</ele>
        <time>2021-03-13T05:26:46Z</time>
      </trkpt>
      <trkpt lat="45.2061" lon="5.72597">
        <ele>637.134</ele>
        <time>2021-03-13T05:26:47Z</time>
      </trkpt>
      <trkpt lat="45.20625" lon="5.72603">
        <ele>639.749</ele>
        <time>2021-03-13T05:26:55Z</time>
      </trkpt>
      <trkpt lat="45.20628" lon="5.72605">
        <ele>639.812</ele>
        <time>2021-03-13T05:26:57Z</time>
      </trkpt>
      <trkpt lat="45.20635" lon="5.72604">
        <ele>640.086</ele>
        <time>2021-03-13T05:27:01Z</time>
      </trkpt>
      <trkpt lat="45.20649" lon="5.72601">
        <ele>641.564</ele>
        <time>2021-03-13T05:27:08Z</time>
      </trkpt>
      <trkpt lat="45.20661" lon="5.72592">
        <ele>642.154</ele>
        <time>2021-03-13T05:27:15Z</time>
      </trkpt>
      <trkpt lat="45.20671" lon="5.72581">
        <ele>644.284</ele>
        <time>2021-03-13T05:27:23Z</time>
      </trkpt>
      <trkpt lat="45.20674" lon="5.72579">
        <ele>644.601</ele>
        <time>2021-03-13T05:27:25Z</time>
      </trkpt>
      <trkpt lat="45.20685" lon="5.72575">
        <ele>646.085</ele>
        <time>2021-03-13T05:27:32Z</time>
      </trkpt>
      <trkpt lat="45.20697" lon="5.72571">
        <ele>648.016</ele>
        <time>2021-03-13T05:27:41Z</time>
      </trkpt>
      <trkpt lat="45.20699" lon="5.72572">
        <ele>648.228</ele>
        <time>2021-03-13T05:27:42Z</time>
      </trkpt>
      <trkpt lat="45.20704" lon="5.72576">
        <ele>649.558</ele>
        <time>2021-03-13T05:27:47Z</time>
      </trkpt>
      <trkpt lat="45.20712" lon="5.72578">
        <ele>651.219</ele>
        <time>2021-03-13T05:27:53Z</time>
      </trkpt>
      <trkpt lat="45.2072" lon="5.72578">
        <ele>653.797</ele>
        <time>2021-03-13T05:28:02Z</time>
      </trkpt>
      <trkpt lat="45.20725" lon="5.72581">
        <ele>655.385</ele>
        <time>2021-03-13T05:28:08Z</time>
      </trkpt>
      <trkpt lat="45.20733" lon="5.72584">
        <ele>658.158</ele>
        <time>2021-03-13T05:28:16Z</time>
      </trkpt>
      <trkpt lat="45.20738" lon="5.7259">
        <ele>658.731</ele>
        <time>2021-03-13T05:28:22Z</time>
      </trkpt>
      <trkpt lat="45.20741" lon="5.72596">
        <ele>659.495</ele>
        <time>2021-03-13T05:28:27Z</time>
      </trkpt>
      <trkpt lat="45.20743" lon="5.72607">
        <ele>661.528</ele>
        <time>2021-03-13T05:28:33Z</time>
      </trkpt>
      <trkpt lat="45.20744" lon="5.72609">
        <ele>661.29</ele>
        <time>2021-03-13T05:28:34Z</time>
      </trkpt>
      <trkpt lat="45.20746" lon="5.72616">
        <ele>664.279</ele>
        <time>2021-03-13T05:28:41Z</time>
      </trkpt>
      <trkpt lat="45.20752" lon="5.72614">
        <ele>666.237</ele>
        <time>2021-03-13T05:28:47Z</time>
      </trkpt>
      <trkpt lat="45.20759" lon="5.72614">
        <ele>667.434</ele>
        <time>2021-03-13T05:28:53Z</time>
      </trkpt>
      <trkpt lat="45.20761" lon="5.72613">
        <ele>667.735</ele>
        <time>2021-03-13T05:28:55Z</time>
      </trkpt>
      <trkpt lat="45.20765" lon="5.72611">
        <ele>669.146</ele>
        <time>2021-03-13T05:29:00Z</time>
      </trkpt>
      <trkpt lat="45.2077" lon="5.72613">
        <ele>671.141</ele>
        <time>2021-03-13T05:29:07Z</time>
      </trkpt>
      <trkpt lat="45.20774" lon="5.72619">
        <ele>672.552</ele>
        <time>2021-03-13T05:29:11Z</time>
      </trkpt>
      <trkpt lat="45.20775" lon="5.72626">
        <ele>674.042</ele>
        <time>2021-03-13T05:29:17Z</time>
      </trkpt>
      <trkpt lat="45.20775" lon="5.72636">
        <ele>675.977</ele>
        <time>2021-03-13T05:29:24Z</time>
      </trkpt>
      <trkpt lat="45.20775" lon="5.72642">
        <ele>678.662</ele>
        <time>2021-03-13T05:29:30Z</time>
      </trkpt>
      <trkpt lat="45.20779" lon="5.72642">
        <ele>680.165</ele>
        <time>2021-03-13T05:29:35Z</time>
      </trkpt>
      <trkpt lat="45.2078" lon="5.72641">
        <ele>681.3</ele>
        <time>2021-03-13T05:29:37Z</time>
      </trkpt>
      <trkpt lat="45.20787" lon="5.72637">
        <ele>683.069</ele>
        <time>2021-03-13T05:29:45Z</time>
      </trkpt>
      <trkpt lat="45.20792" lon="5.72634">
        <ele>684.411</ele>
        <time>2021-03-13T05:29:52Z</time>
      </trkpt>
      <trkpt lat="45.20796" lon="5.72622">
        <ele>686.13</ele>
        <time>2021-03-13T05:30:01Z</time>
      </trkpt>
      <trkpt lat="45.20801" lon="5.72628">
        <ele>687.416</ele>
        <time>2021-03-13T05:30:08Z</time>
      </trkpt>
      <trkpt lat="45.20805" lon="5.72634">
        <ele>689.866</ele>
        <time>2021-03-13T05:30:15Z</time>
      </trkpt>
      <trkpt lat="45.20806" lon="5.72645">
        <ele>693.186</ele>
        <time>2021-03-13T05:30:22Z</time>
      </trkpt>
      <trkpt lat="45.20806" lon="5.72652">
        <ele>694.697</ele>
        <time>2021-03-13T05:30:27Z</time>
      </trkpt>
      <trkpt lat="45.20807" lon="5.72663">
        <ele>695.644</ele>
        <time>2021-03-13T05:30:34Z</time>
      </trkpt>
      <trkpt lat="45.20811" lon="5.72665">
        <ele>696.772</ele>
        <time>2021-03-13T05:30:39Z</time>
      </trkpt>
      <trkpt lat="45.20819" lon="5.72661">
        <ele>698.852</ele>
        <time>2021-03-13T05:30:47Z</time>
      </trkpt>
      <trkpt lat="45.20825" lon="5.72656">
        <ele>700.423</ele>
        <time>2021-03-13T05:30:54Z</time>
      </trkpt>
      <trkpt lat="45.20831" lon="5.72659">
        <ele>702.111</ele>
        <time>2021-03-13T05:31:03Z</time>
      </trkpt>
      <trkpt lat="45.20832" lon="5.7266">
        <ele>703.054</ele>
        <time>2021-03-13T05:31:05Z</time>
      </trkpt>
      <trkpt lat="45.20835" lon="5.72666">
        <ele>704.643</ele>
        <time>2021-03-13T05:31:11Z</time>
      </trkpt>
      <trkpt lat="45.20835" lon="5.72675">
        <ele>706.323</ele>
        <time>2021-03-13T05:31:16Z</time>
      </trkpt>
      <trkpt lat="45.20838" lon="5.72681">
        <ele>707.516</ele>
        <time>2021-03-13T05:31:20Z</time>
      </trkpt>
      <trkpt lat="45.2084" lon="5.72688">
        <ele>709.001</ele>
        <time>2021-03-13T05:31:25Z</time>
      </trkpt>
      <trkpt lat="45.20841" lon="5.72693">
        <ele>709.971</ele>
        <time>2021-03-13T05:31:30Z</time>
      </trkpt>
      <trkpt lat="45.20845" lon="5.72689">
        <ele>713.041</ele>
        <time>2021-03-13T05:31:38Z</time>
      </trkpt>
      <trkpt lat="45.2085" lon="5.72689">
        <ele>714.765</ele>
        <time>2021-03-13T05:31:44Z</time>
      </trkpt>
      <trkpt lat="45.2086" lon="5.72687">
        <ele>716.584</ele>
        <time>2021-03-13T05:31:53Z</time>
      </trkpt>
      <trkpt lat="45.20866" lon="5.72685">
        <ele>717.584</ele>
        <time>2021-03-13T05:31:58Z</time>
      </trkpt>
      <trkpt lat="45.20872" lon="5.72683">
        <ele>719.56</ele>
        <time>2021-03-13T05:32:04Z</time>
      </trkpt>
      <trkpt lat="45.20878" lon="5.72681">
        <ele>720.627</ele>
        <time>2021-03-13T05:32:09Z</time>
      </trkpt>
      <trkpt lat="45.20888" lon="5.72675">
        <ele>721.493</ele>
        <time>2021-03-13T05:32:15Z</time>
      </trkpt>
      <trkpt lat="45.20891" lon="5.72674">
        <ele>722.917</ele>
        <time>2021-03-13T05:32:18Z</time>
      </trkpt>
      <trkpt lat="45.20894" lon="5.72675">
        <ele>724.196</ele>
        <time>2021-03-13T05:32:21Z</time>
      </trkpt>
      <trkpt lat="45.20896" lon="5.72675">
        <ele>725.023</ele>
        <time>2021-03-13T05:32:25Z</time>
      </trkpt>
      <trkpt lat="45.20905" lon="5.72673">
        <ele>726.006</ele>
        <time>2021-03-13T05:32:30Z</time>
      </trkpt>
      <trkpt lat="45.20913" lon="5.72671">
        <ele>727.779</ele>
        <time>2021-03-13T05:32:36Z</time>
      </trkpt>
      <trkpt lat="45.20918" lon="5.72672">
        <ele>729.106</ele>
        <time>2021-03-13T05:32:41Z</time>
      </trkpt>
      <trkpt lat="45.20925" lon="5.72676">
        <ele>730.788</ele>
        <time>2021-03-13T05:32:47Z</time>
      </trkpt>
      <trkpt lat="45.20931" lon="5.72682">
        <ele>732.773</ele>
        <time>2021-03-13T05:32:56Z</time>
      </trkpt>
      <trkpt lat="45.2094" lon="5.72689">
        <ele>734.357</ele>
        <time>2021-03-13T05:33:03Z</time>
      </trkpt>
      <trkpt lat="45.20946" lon="5.72697">
        <ele>736.199</ele>
        <time>2021-03-13T05:33:09Z</time>
      </trkpt>
      <trkpt lat="45.2095" lon="5.72706">
        <ele>738.227</ele>
        <time>2021-03-13T05:33:17Z</time>
      </trkpt>
      <trkpt lat="45.20956" lon="5.72708">
        <ele>739.143</ele>
        <time>2021-03-13T05:33:21Z</time>
      </trkpt>
      <trkpt lat="45.20964" lon="5.72713">
        <ele>740.896</ele>
        <time>2021-03-13T05:33:27Z</time>
      </trkpt>
      <trkpt lat="45.20969" lon="5.72717">
        <ele>742.94</ele>
        <time>2021-03-13T05:33:33Z</time>
      </trkpt>
      <trkpt lat="45.20971" lon="5.72722">
        <ele>745.103</ele>
        <time>2021-03-13T05:33:39Z</time>
      </trkpt>
      <trkpt lat="45.20972" lon="5.72725">
        <ele>746.494</ele>
        <time>2021-03-13T05:33:42Z</time>
      </trkpt>
      <trkpt lat="45.20974" lon="5.72733">
        <ele>748.288</ele>
        <time>2021-03-13T05:33:48Z</time>
      </trkpt>
      <trkpt lat="45.20979" lon="5.72735">
        <ele>748.736</ele>
        <time>2021-03-13T05:33:53Z</time>
      </trkpt>
      <trkpt lat="45.20984" lon="5.72743">
        <ele>750.704</ele>
        <time>2021-03-13T05:34:00Z</time>
      </trkpt>
      <trkpt lat="45.20987" lon="5.72747">
        <ele>752.912</ele>
        <time>2021-03-13T05:34:05Z</time>
      </trkpt>
      <trkpt lat="45.20989" lon="5.72753">
        <ele>755.89</ele>
        <time>2021-03-13T05:34:12Z</time>
      </trkpt>
      <trkpt lat="45.20991" lon="5.72755">
        <ele>757.177</ele>
        <time>2021-03-13T05:34:19Z</time>
      </trkpt>
      <trkpt lat="45.20994" lon="5.72751">
        <ele>760.568</ele>
        <time>2021-03-13T05:34:30Z</time>
      </trkpt>
      <trkpt lat="45.20998" lon="5.72747">
        <ele>762.85</ele>
        <time>2021-03-13T05:34:37Z</time>
      </trkpt>
      <trkpt lat="45.21002" lon="5.72744">
        <ele>764.384</ele>
        <time>2021-03-13T05:34:45Z</time>
      </trkpt>
      <trkpt lat="45.21006" lon="5.72742">
        <ele>766.771</ele>
        <time>2021-03-13T05:34:51Z</time>
      </trkpt>
      <trkpt lat="45.21013" lon="5.72741">
        <ele>768.732</ele>
        <time>2021-03-13T05:35:00Z</time>
      </trkpt>
      <trkpt lat="45.21018" lon="5.7274">
        <ele>771.25</ele>
        <time>2021-03-13T05:35:07Z</time>
      </trkpt>
      <trkpt lat="45.21023" lon="5.72738">
        <ele>772.513</ele>
        <time>2021-03-13T05:35:13Z</time>
      </trkpt>
      <trkpt lat="45.2103" lon="5.72739">
        <ele>773.639</ele>
        <time>2021-03-13T05:35:19Z</time>
      </trkpt>
      <trkpt lat="45.21036" lon="5.7274">
        <ele>774.89</ele>
        <time>2021-03-13T05:35:26Z</time>
      </trkpt>
      <trkpt lat="45.21039" lon="5.72739">
        <ele>777.605</ele>
        <time>2021-03-13T05:35:33Z</time>
      </trkpt>
      <trkpt lat="45.21042" lon="5.7274">
        <ele>778.497</ele>
        <time>2021-03-13T05:35:37Z</time>
      </trkpt>
      <trkpt lat="45.21046" lon="5.72743">
        <ele>779.862</ele>
        <time>2021-03-13T05:35:40Z</time>
      </trkpt>
      <trkpt lat="45.21053" lon="5.72753">
        <ele>781.158</ele>
        <time>2021-03-13T05:35:45Z</time>
      </trkpt>
      <trkpt lat="45.21055" lon="5.72759">
        <ele>781.789</ele>
        <time>2021-03-13T05:35:48Z</time>
      </trkpt>
      <trkpt lat="45.2106" lon="5.72772">
        <ele>781.933</ele>
        <time>2021-03-13T05:35:54Z</time>
      </trkpt>
      <trkpt lat="45.21063" lon="5.72782">
        <ele>782.247</ele>
        <time>2021-03-13T05:35:58Z</time>
      </trkpt>
      <trkpt lat="45.21067" lon="5.72792">
        <ele>783.154</ele>
        <time>2021-03-13T05:36:02Z</time>
      </trkpt>
      <trkpt lat="45.21072" lon="5.72807">
        <ele>783.493</ele>
        <time>2021-03-13T05:36:08Z</time>
      </trkpt>
      <trkpt lat="45.21075" lon="5.72812">
        <ele>783.259</ele>
        <time>2021-03-13T05:36:10Z</time>
      </trkpt>
      <trkpt lat="45.21077" lon="5.72828">
        <ele>784.096</ele>
        <time>2021-03-13T05:36:16Z</time>
      </trkpt>
      <trkpt lat="45.21088" lon="5.7284">
        <ele>785.239</ele>
        <time>2021-03-13T05:36:24Z</time>
      </trkpt>
      <trkpt lat="45.21092" lon="5.72845">
        <ele>785.613</ele>
        <time>2021-03-13T05:36:27Z</time>
      </trkpt>
      <trkpt lat="45.21098" lon="5.72854">
        <ele>785.813</ele>
        <time>2021-03-13T05:36:32Z</time>
      </trkpt>
      <trkpt lat="45.21103" lon="5.72859">
        <ele>787.478</ele>
        <time>2021-03-13T05:36:39Z</time>
      </trkpt>
      <trkpt lat="45.2111" lon="5.72865">
        <ele>789.918</ele>
        <time>2021-03-13T05:36:45Z</time>
      </trkpt>
      <trkpt lat="45.21117" lon="5.72873">
        <ele>791.001</ele>
        <time>2021-03-13T05:36:52Z</time>
      </trkpt>
      <trkpt lat="45.21125" lon="5.72879">
        <ele>792.51</ele>
        <time>2021-03-13T05:36:59Z</time>
      </trkpt>
      <trkpt lat="45.21133" lon="5.72881">
        <ele>793.865</ele>
        <time>2021-03-13T05:37:05Z</time>
      </trkpt>
      <trkpt lat="45.21142" lon="5.72887">
        <ele>795.248</ele>
        <time>2021-03-13T05:37:12Z</time>
      </trkpt>
      <trkpt lat="45.21143" lon="5.72889">
        <ele>796.528</ele>
        <time>2021-03-13T05:37:15Z</time>
      </trkpt>
      <trkpt lat="45.21154" lon="5.72893">
        <ele>799.448</ele>
        <time>2021-03-13T05:37:23Z</time>
      </trkpt>
      <trkpt lat="45.21163" lon="5.72895">
        <ele>800.513</ele>
        <time>2021-03-13T05:37:28Z</time>
      </trkpt>
      <trkpt lat="45.2117" lon="5.72897">
        <ele>801.81</ele>
        <time>2021-03-13T05:37:33Z</time>
      </trkpt>
      <trkpt lat="45.21171" lon="5.72898">
        <ele>802.02</ele>
        <time>2021-03-13T05:37:34Z</time>
      </trkpt>
      <trkpt lat="45.21176" lon="5.72901">
        <ele>803.751</ele>
        <time>2021-03-13T05:37:39Z</time>
      </trkpt>
      <trkpt lat="45.21184" lon="5.72905">
        <ele>804.583</ele>
        <time>2021-03-13T05:37:46Z</time>
      </trkpt>
      <trkpt lat="45.21194" lon="5.72914">
        <ele>806.446</ele>
        <time>2021-03-13T05:37:53Z</time>
      </trkpt>
      <trkpt lat="45.21197" lon="5.72919">
        <ele>807.522</ele>
        <time>2021-03-13T05:37:57Z</time>
      </trkpt>
      <trkpt lat="45.21202" lon="5.72925">
        <ele>808.576</ele>
        <time>2021-03-13T05:38:03Z</time>
      </trkpt>
      <trkpt lat="45.21205" lon="5.72932">
        <ele>809.294</ele>
        <time>2021-03-13T05:38:08Z</time>
      </trkpt>
      <trkpt lat="45.2121" lon="5.7294">
        <ele>810.408</ele>
        <time>2021-03-13T05:38:14Z</time>
      </trkpt>
      <trkpt lat="45.21213" lon="5.7294">
        <ele>812.067</ele>
        <time>2021-03-13T05:38:21Z</time>
      </trkpt>
      <trkpt lat="45.21209" lon="5.72936">
        <ele>814.011</ele>
        <time>2021-03-13T05:38:26Z</time>
      </trkpt>
      <trkpt lat="45.21207" lon="5.72929">
        <ele>814.712</ele>
        <time>2021-03-13T05:38:32Z</time>
      </trkpt>
      <trkpt lat="45.21208" lon="5.72921">
        <ele>816.341</ele>
        <time>2021-03-13T05:38:37Z</time>
      </trkpt>
      <trkpt lat="45.21209" lon="5.72918">
        <ele>817.053</ele>
        <time>2021-03-13T05:38:39Z</time>
      </trkpt>
      <trkpt lat="45.21218" lon="5.72919">
        <ele>819.349</ele>
        <time>2021-03-13T05:38:48Z</time>
      </trkpt>
      <trkpt lat="45.21223" lon="5.72921">
        <ele>821.382</ele>
        <time>2021-03-13T05:38:54Z</time>
      </trkpt>
      <trkpt lat="45.21225" lon="5.72925">
        <ele>821.861</ele>
        <time>2021-03-13T05:38:57Z</time>
      </trkpt>
      <trkpt lat="45.21232" lon="5.72932">
        <ele>823.62</ele>
        <time>2021-03-13T05:39:03Z</time>
      </trkpt>
      <trkpt lat="45.2124" lon="5.72934">
        <ele>824.946</ele>
        <time>2021-03-13T05:39:10Z</time>
      </trkpt>
      <trkpt lat="45.21249" lon="5.72936">
        <ele>826.416</ele>
        <time>2021-03-13T05:39:18Z</time>
      </trkpt>
      <trkpt lat="45.21256" lon="5.72939">
        <ele>828.193</ele>
        <time>2021-03-13T05:39:24Z</time>
      </trkpt>
      <trkpt lat="45.21262" lon="5.72943">
        <ele>829.428</ele>
        <time>2021-03-13T05:39:29Z</time>
      </trkpt>
      <trkpt lat="45.21266" lon="5.72948">
        <ele>830.785</ele>
        <time>2021-03-13T05:39:35Z</time>
      </trkpt>
      <trkpt lat="45.21268" lon="5.72949">
        <ele>832.024</ele>
        <time>2021-03-13T05:39:38Z</time>
      </trkpt>
      <trkpt lat="45.21272" lon="5.72948">
        <ele>833.736</ele>
        <time>2021-03-13T05:39:43Z</time>
      </trkpt>
      <trkpt lat="45.21278" lon="5.72955">
        <ele>834.447</ele>
        <time>2021-03-13T05:39:51Z</time>
      </trkpt>
      <trkpt lat="45.21284" lon="5.72957">
        <ele>834.655</ele>
        <time>2021-03-13T05:39:56Z</time>
      </trkpt>
      <trkpt lat="45.2129" lon="5.72963">
        <ele>836.197</ele>
        <time>2021-03-13T05:40:02Z</time>
      </trkpt>
      <trkpt lat="45.21292" lon="5.72964">
        <ele>836.458</ele>
        <time>2021-03-13T05:40:03Z</time>
      </trkpt>
      <trkpt lat="45.21297" lon="5.7297">
        <ele>838.132</ele>
        <time>2021-03-13T05:40:09Z</time>
      </trkpt>
      <trkpt lat="45.21298" lon="5.72972">
        <ele>838.892</ele>
        <time>2021-03-13T05:40:11Z</time>
      </trkpt>
      <trkpt lat="45.21299" lon="5.72977">
        <ele>840.744</ele>
        <time>2021-03-13T05:40:17Z</time>
      </trkpt>
      <trkpt lat="45.21309" lon="5.72982">
        <ele>842.358</ele>
        <time>2021-03-13T05:40:24Z</time>
      </trkpt>
      <trkpt lat="45.21309" lon="5.72983">
        <ele>842.029</ele>
        <time>2021-03-13T05:40:25Z</time>
      </trkpt>
      <trkpt lat="45.21316" lon="5.72993">
        <ele>843.463</ele>
        <time>2021-03-13T05:40:32Z</time>
      </trkpt>
      <trkpt lat="45.21318" lon="5.73">
        <ele>844.372</ele>
        <time>2021-03-13T05:40:37Z</time>
      </trkpt>
      <trkpt lat="45.21323" lon="5.73008">
        <ele>846.615</ele>
        <time>2021-03-13T05:40:44Z</time>
      </trkpt>
      <trkpt lat="45.21329" lon="5.73014">
        <ele>848.178</ele>
        <time>2021-03-13T05:40:50Z</time>
      </trkpt>
      <trkpt lat="45.21332" lon="5.73016">
        <ele>849.124</ele>
        <time>2021-03-13T05:40:53Z</time>
      </trkpt>
      <trkpt lat="45.21339" lon="5.73022">
        <ele>851.05</ele>
        <time>2021-03-13T05:41:00Z</time>
      </trkpt>
      <trkpt lat="45.21343" lon="5.7303">
        <ele>852.987</ele>
        <time>2021-03-13T05:41:07Z</time>
      </trkpt>
      <trkpt lat="45.21351" lon="5.73037">
        <ele>854.604</ele>
        <time>2021-03-13T05:41:14Z</time>
      </trkpt>
      <trkpt lat="45.21354" lon="5.73043">
        <ele>856.431</ele>
        <time>2021-03-13T05:41:19Z</time>
      </trkpt>
      <trkpt lat="45.21359" lon="5.73052">
        <ele>858.78</ele>
        <time>2021-03-13T05:41:27Z</time>
      </trkpt>
      <trkpt lat="45.21363" lon="5.7306">
        <ele>861.428</ele>
        <time>2021-03-13T05:41:34Z</time>
      </trkpt>
      <trkpt lat="45.21368" lon="5.73065">
        <ele>862.001</ele>
        <time>2021-03-13T05:41:40Z</time>
      </trkpt>
      <trkpt lat="45.21375" lon="5.73072">
        <ele>861.839</ele>
        <time>2021-03-13T05:41:46Z</time>
      </trkpt>
      <trkpt lat="45.21381" lon="5.73084">
        <ele>862.014</ele>
        <time>2021-03-13T05:41:53Z</time>
      </trkpt>
      <trkpt lat="45.21383" lon="5.73089">
        <ele>862.312</ele>
        <time>2021-03-13T05:41:56Z</time>
      </trkpt>
      <trkpt lat="45.21394" lon="5.73101">
        <ele>863.236</ele>
        <time>2021-03-13T05:42:04Z</time>
      </trkpt>
      <trkpt lat="45.21403" lon="5.73113">
        <ele>863.879</ele>
        <time>2021-03-13T05:42:12Z</time>
      </trkpt>
      <trkpt lat="45.2141" lon="5.7312">
        <ele>865.226</ele>
        <time>2021-03-13T05:42:17Z</time>
      </trkpt>
      <trkpt lat="45.21416" lon="5.73134">
        <ele>866.674</ele>
        <time>2021-03-13T05:42:25Z</time>
      </trkpt>
      <trkpt lat="45.21422" lon="5.73142">
        <ele>867.85</ele>
        <time>2021-03-13T05:42:31Z</time>
      </trkpt>
      <trkpt lat="45.21429" lon="5.73147">
        <ele>869.401</ele>
        <time>2021-03-13T05:42:36Z</time>
      </trkpt>
      <trkpt lat="45.2144" lon="5.73153">
        <ele>870.194</ele>
        <time>2021-03-13T05:42:42Z</time>
      </trkpt>
      <trkpt lat="45.21449" lon="5.73154">
        <ele>872.168</ele>
        <time>2021-03-13T05:42:48Z</time>
      </trkpt>
      <trkpt lat="45.21454" lon="5.73161">
        <ele>873.7</ele>
        <time>2021-03-13T05:42:53Z</time>
      </trkpt>
      <trkpt lat="45.2146" lon="5.73166">
        <ele>874.678</ele>
        <time>2021-03-13T05:42:56Z</time>
      </trkpt>
      <trkpt lat="45.21469" lon="5.73175">
        <ele>876.959</ele>
        <time>2021-03-13T05:43:04Z</time>
      </trkpt>
      <trkpt lat="45.21471" lon="5.7318">
        <ele>878.804</ele>
        <time>2021-03-13T05:43:10Z</time>
      </trkpt>
      <trkpt lat="45.21475" lon="5.73187">
        <ele>880.339</ele>
        <time>2021-03-13T05:43:17Z</time>
      </trkpt>
      <trkpt lat="45.21478" lon="5.73193">
        <ele>881.713</ele>
        <time>2021-03-13T05:43:22Z</time>
      </trkpt>
      <trkpt lat="45.21479" lon="5.73205">
        <ele>882.064</ele>
        <time>2021-03-13T05:43:29Z</time>
      </trkpt>
      <trkpt lat="45.21479" lon="5.73217">
        <ele>882.531</ele>
        <time>2021-03-13T05:43:35Z</time>
      </trkpt>
      <trkpt lat="45.21488" lon="5.73227">
        <ele>883.687</ele>
        <time>2021-03-13T05:43:43Z</time>
      </trkpt>
      <trkpt lat="45.21491" lon="5.73237">
        <ele>885.814</ele>
        <time>2021-03-13T05:43:50Z</time>
      </trkpt>
      <trkpt lat="45.21492" lon="5.73239">
        <ele>886.972</ele>
        <time>2021-03-13T05:43:52Z</time>
      </trkpt>
      <trkpt lat="45.21497" lon="5.73246">
        <ele>888.708</ele>
        <time>2021-03-13T05:43:58Z</time>
      </trkpt>
      <trkpt lat="45.21506" lon="5.73255">
        <ele>890.802</ele>
        <time>2021-03-13T05:44:06Z</time>
      </trkpt>
      <trkpt lat="45.21509" lon="5.73263">
        <ele>891.477</ele>
        <time>2021-03-13T05:44:11Z</time>
      </trkpt>
      <trkpt lat="45.2151" lon="5.73281">
        <ele>890.386</ele>
        <time>2021-03-13T05:44:17Z</time>
      </trkpt>
      <trkpt lat="45.21509" lon="5.73293">
        <ele>891.17</ele>
        <time>2021-03-13T05:44:22Z</time>
      </trkpt>
      <trkpt lat="45.21512" lon="5.73305">
        <ele>892.394</ele>
        <time>2021-03-13T05:44:27Z</time>
      </trkpt>
      <trkpt lat="45.21514" lon="5.7331">
        <ele>892.2</ele>
        <time>2021-03-13T05:44:30Z</time>
      </trkpt>
      <trkpt lat="45.21524" lon="5.73316">
        <ele>893.485</ele>
        <time>2021-03-13T05:44:38Z</time>
      </trkpt>
      <trkpt lat="45.21529" lon="5.73319">
        <ele>895.015</ele>
        <time>2021-03-13T05:44:43Z</time>
      </trkpt>
      <trkpt lat="45.21535" lon="5.73323">
        <ele>895.806</ele>
        <time>2021-03-13T05:44:50Z</time>
      </trkpt>
      <trkpt lat="45.2154" lon="5.73324">
        <ele>896.385</ele>
        <time>2021-03-13T05:44:54Z</time>
      </trkpt>
      <trkpt lat="45.21549" lon="5.73325">
        <ele>897.035</ele>
        <time>2021-03-13T05:44:59Z</time>
      </trkpt>
      <trkpt lat="45.21563" lon="5.73326">
        <ele>899.381</ele>
        <time>2021-03-13T05:45:06Z</time>
      </trkpt>
      <trkpt lat="45.21568" lon="5.7333">
        <ele>899.527</ele>
        <time>2021-03-13T05:45:12Z</time>
      </trkpt>
      <trkpt lat="45.21575" lon="5.73334">
        <ele>900.921</ele>
        <time>2021-03-13T05:45:20Z</time>
      </trkpt>
      <trkpt lat="45.21575" lon="5.73336">
        <ele>901.167</ele>
        <time>2021-03-13T05:45:22Z</time>
      </trkpt>
      <trkpt lat="45.21582" lon="5.7334">
        <ele>902.739</ele>
        <time>2021-03-13T05:45:28Z</time>
      </trkpt>
      <trkpt lat="45.21588" lon="5.73344">
        <ele>903.319</ele>
        <time>2021-03-13T05:45:33Z</time>
      </trkpt>
      <trkpt lat="45.21592" lon="5.73348">
        <ele>903.749</ele>
        <time>2021-03-13T05:45:37Z</time>
      </trkpt>
      <trkpt lat="45.21598" lon="5.73355">
        <ele>906.754</ele>
        <time>2021-03-13T05:45:42Z</time>
      </trkpt>
      <trkpt lat="45.21599" lon="5.73355">
        <ele>906.437</ele>
        <time>2021-03-13T05:45:43Z</time>
      </trkpt>
      <trkpt lat="45.21603" lon="5.73361">
        <ele>906.785</ele>
        <time>2021-03-13T05:45:47Z</time>
      </trkpt>
      <trkpt lat="45.21612" lon="5.73371">
        <ele>908.824</ele>
        <time>2021-03-13T05:45:54Z</time>
      </trkpt>
      <trkpt lat="45.21624" lon="5.73379">
        <ele>911.501</ele>
        <time>2021-03-13T05:46:02Z</time>
      </trkpt>
      <trkpt lat="45.21634" lon="5.73384">
        <ele>911.977</ele>
        <time>2021-03-13T05:46:10Z</time>
      </trkpt>
      <trkpt lat="45.21643" lon="5.73397">
        <ele>914.142</ele>
        <time>2021-03-13T05:46:19Z</time>
      </trkpt>
      <trkpt lat="45.2165" lon="5.73411">
        <ele>915.171</ele>
        <time>2021-03-13T05:46:25Z</time>
      </trkpt>
      <trkpt lat="45.21655" lon="5.73422">
        <ele>916.007</ele>
        <time>2021-03-13T05:46:31Z</time>
      </trkpt>
      <trkpt lat="45.21657" lon="5.73438">
        <ele>917.3</ele>
        <time>2021-03-13T05:46:39Z</time>
      </trkpt>
      <trkpt lat="45.21662" lon="5.73453">
        <ele>918.293</ele>
        <time>2021-03-13T05:46:46Z</time>
      </trkpt>
      <trkpt lat="45.21662" lon="5.73454">
        <ele>918.013</ele>
        <time>2021-03-13T05:46:47Z</time>
      </trkpt>
      <trkpt lat="45.21666" lon="5.73466">
        <ele>919.172</ele>
        <time>2021-03-13T05:46:53Z</time>
      </trkpt>
      <trkpt lat="45.21671" lon="5.73479">
        <ele>920.037</ele>
        <time>2021-03-13T05:46:59Z</time>
      </trkpt>
      <trkpt lat="45.21675" lon="5.73476">
        <ele>922.547</ele>
        <time>2021-03-13T05:47:06Z</time>
      </trkpt>
      <trkpt lat="45.21675" lon="5.73474">
        <ele>923.795</ele>
        <time>2021-03-13T05:47:08Z</time>
      </trkpt>
      <trkpt lat="45.21672" lon="5.73453">
        <ele>924.923</ele>
        <time>2021-03-13T05:47:18Z</time>
      </trkpt>
      <trkpt lat="45.21673" lon="5.73438">
        <ele>926.893</ele>
        <time>2021-03-13T05:47:27Z</time>
      </trkpt>
      <trkpt lat="45.21673" lon="5.73427">
        <ele>927.941</ele>
        <time>2021-03-13T05:47:34Z</time>
      </trkpt>
      <trkpt lat="45.21673" lon="5.73417">
        <ele>930.319</ele>
        <time>2021-03-13T05:47:41Z</time>
      </trkpt>
      <trkpt lat="45.21671" lon="5.73407">
        <ele>932.201</ele>
        <time>2021-03-13T05:47:48Z</time>
      </trkpt>
      <trkpt lat="45.21667" lon="5.73398">
        <ele>933.483</ele>
        <time>2021-03-13T05:47:55Z</time>
      </trkpt>
      <trkpt lat="45.21665" lon="5.73387">
        <ele>935.744</ele>
        <time>2021-03-13T05:48:02Z</time>
      </trkpt>
      <trkpt lat="45.21662" lon="5.73376">
        <ele>937.766</ele>
        <time>2021-03-13T05:48:09Z</time>
      </trkpt>
      <trkpt lat="45.21655" lon="5.73362">
        <ele>940.262</ele>
        <time>2021-03-13T05:48:17Z</time>
      </trkpt>
      <trkpt lat="45.21648" lon="5.73353">
        <ele>942.188</ele>
        <time>2021-03-13T05:48:25Z</time>
      </trkpt>
      <trkpt lat="45.21649" lon="5.73352">
        <ele>943.178</ele>
        <time>2021-03-13T05:48:27Z</time>
      </trkpt>
      <trkpt lat="45.21649" lon="5.73348">
        <ele>944.39</ele>
        <time>2021-03-13T05:48:31Z</time>
      </trkpt>
      <trkpt lat="45.21648" lon="5.73345">
        <ele>945.231</ele>
        <time>2021-03-13T05:48:35Z</time>
      </trkpt>
      <trkpt lat="45.21646" lon="5.73335">
        <ele>946.181</ele>
        <time>2021-03-13T05:48:41Z</time>
      </trkpt>
      <trkpt lat="45.21646" lon="5.73326">
        <ele>948.894</ele>
        <time>2021-03-13T05:48:47Z</time>
      </trkpt>
      <trkpt lat="45.21642" lon="5.73316">
        <ele>950.32</ele>
        <time>2021-03-13T05:48:55Z</time>
      </trkpt>
      <trkpt lat="45.21644" lon="5.73302">
        <ele>952.094</ele>
        <time>2021-03-13T05:49:03Z</time>
      </trkpt>
      <trkpt lat="45.21643" lon="5.73298">
        <ele>952.885</ele>
        <time>2021-03-13T05:49:05Z</time>
      </trkpt>
      <trkpt lat="45.21638" lon="5.73288">
        <ele>953.705</ele>
        <time>2021-03-13T05:49:12Z</time>
      </trkpt>
      <trkpt lat="45.2163" lon="5.73275">
        <ele>953.93</ele>
        <time>2021-03-13T05:49:21Z</time>
      </trkpt>
      <trkpt lat="45.21629" lon="5.73273">
        <ele>954.903</ele>
        <time>2021-03-13T05:49:23Z</time>
      </trkpt>
      <trkpt lat="45.21623" lon="5.7326">
        <ele>957.453</ele>
        <time>2021-03-13T05:49:32Z</time>
      </trkpt>
      <trkpt lat="45.21616" lon="5.73249">
        <ele>959.305</ele>
        <time>2021-03-13T05:49:40Z</time>
      </trkpt>
      <trkpt lat="45.21614" lon="5.73247">
        <ele>960.103</ele>
        <time>2021-03-13T05:49:42Z</time>
      </trkpt>
      <trkpt lat="45.21609" lon="5.7324">
        <ele>962.846</ele>
        <time>2021-03-13T05:49:49Z</time>
      </trkpt>
      <trkpt lat="45.21607" lon="5.73235">
        <ele>963.333</ele>
        <time>2021-03-13T05:49:57Z</time>
      </trkpt>
      <trkpt lat="45.21603" lon="5.73229">
        <ele>965.747</ele>
        <time>2021-03-13T05:50:03Z</time>
      </trkpt>
      <trkpt lat="45.21603" lon="5.73226">
        <ele>967.388</ele>
        <time>2021-03-13T05:50:08Z</time>
      </trkpt>
      <trkpt lat="45.21597" lon="5.73217">
        <ele>968.755</ele>
        <time>2021-03-13T05:50:18Z</time>
      </trkpt>
      <trkpt lat="45.2159" lon="5.73207">
        <ele>969.911</ele>
        <time>2021-03-13T05:50:25Z</time>
      </trkpt>
      <trkpt lat="45.21581" lon="5.73196">
        <ele>972.06</ele>
        <time>2021-03-13T05:50:33Z</time>
      </trkpt>
      <trkpt lat="45.21575" lon="5.73192">
        <ele>973.018</ele>
        <time>2021-03-13T05:50:39Z</time>
      </trkpt>
      <trkpt lat="45.21567" lon="5.73179">
        <ele>975.673</ele>
        <time>2021-03-13T05:50:49Z</time>
      </trkpt>
      <trkpt lat="45.21565" lon="5.73172">
        <ele>977.543</ele>
        <time>2021-03-13T05:50:55Z</time>
      </trkpt>
      <trkpt lat="45.21567" lon="5.73165">
        <ele>978.726</ele>
        <time>2021-03-13T05:51:01Z</time>
      </trkpt>
      <trkpt lat="45.21567" lon="5.73158">
        <ele>980.259</ele>
        <time>2021-03-13T05:51:07Z</time>
      </trkpt>
      <trkpt lat="45.21571" lon="5.73158">
        <ele>982.245</ele>
        <time>2021-03-13T05:51:11Z</time>
      </trkpt>
      <trkpt lat="45.2157" lon="5.7315">
        <ele>984.436</ele>
        <time>2021-03-13T05:51:18Z</time>
      </trkpt>
      <trkpt lat="45.21572" lon="5.73145">
        <ele>987.367</ele>
        <time>2021-03-13T05:51:25Z</time>
      </trkpt>
      <trkpt lat="45.21574" lon="5.7314">
        <ele>988.434</ele>
        <time>2021-03-13T05:51:30Z</time>
      </trkpt>
      <trkpt lat="45.21579" lon="5.73134">
        <ele>990.444</ele>
        <time>2021-03-13T05:51:38Z</time>
      </trkpt>
      <trkpt lat="45.21579" lon="5.73128">
        <ele>992.087</ele>
        <time>2021-03-13T05:51:45Z</time>
      </trkpt>
      <trkpt lat="45.2158" lon="5.73121">
        <ele>993.469</ele>
        <time>2021-03-13T05:51:53Z</time>
      </trkpt>
      <trkpt lat="45.21583" lon="5.73118">
        <ele>995.715</ele>
        <time>2021-03-13T05:51:58Z</time>
      </trkpt>
      <trkpt lat="45.21588" lon="5.73116">
        <ele>996.961</ele>
        <time>2021-03-13T05:52:04Z</time>
      </trkpt>
      <trkpt lat="45.216" lon="5.7312">
        <ele>998.726</ele>
        <time>2021-03-13T05:52:11Z</time>
      </trkpt>
      <trkpt lat="45.21606" lon="5.73124">
        <ele>999.914</ele>
        <time>2021-03-13T05:52:18Z</time>
      </trkpt>
      <trkpt lat="45.21612" lon="5.73129">
        <ele>1001.817</ele>
        <time>2021-03-13T05:52:26Z</time>
      </trkpt>
      <trkpt lat="45.21618" lon="5.73134">
        <ele>1002.475</ele>
        <time>2021-03-13T05:52:33Z</time>
      </trkpt>
      <trkpt lat="45.2162" lon="5.73136">
        <ele>1003.879</ele>
        <time>2021-03-13T05:52:36Z</time>
      </trkpt>
      <trkpt lat="45.21625" lon="5.73138">
        <ele>1005.881</ele>
        <time>2021-03-13T05:52:43Z</time>
      </trkpt>
      <trkpt lat="45.21632" lon="5.73133">
        <ele>1007.662</ele>
        <time>2021-03-13T05:52:48Z</time>
      </trkpt>
      <trkpt lat="45.21644" lon="5.7313">
        <ele>1010.842</ele>
        <time>2021-03-13T05:53:01Z</time>
      </trkpt>
      <trkpt lat="45.21648" lon="5.73134">
        <ele>1012.345</ele>
        <time>2021-03-13T05:53:08Z</time>
      </trkpt>
      <trkpt lat="45.21651" lon="5.73135">
        <ele>1013.408</ele>
        <time>2021-03-13T05:53:11Z</time>
      </trkpt>
      <trkpt lat="45.21659" lon="5.73135">
        <ele>1015.059</ele>
        <time>2021-03-13T05:53:18Z</time>
      </trkpt>
      <trkpt lat="45.21668" lon="5.73137">
        <ele>1016.148</ele>
        <time>2021-03-13T05:53:26Z</time>
      </trkpt>
      <trkpt lat="45.21673" lon="5.73141">
        <ele>1018.401</ele>
        <time>2021-03-13T05:53:34Z</time>
      </trkpt>
      <trkpt lat="45.21674" lon="5.73145">
        <ele>1020.805</ele>
        <time>2021-03-13T05:53:39Z</time>
      </trkpt>
      <trkpt lat="45.21677" lon="5.7315">
        <ele>1022.742</ele>
        <time>2021-03-13T05:53:45Z</time>
      </trkpt>
      <trkpt lat="45.21682" lon="5.73158">
        <ele>1023.625</ele>
        <time>2021-03-13T05:53:52Z</time>
      </trkpt>
      <trkpt lat="45.21686" lon="5.73167">
        <ele>1026.645</ele>
        <time>2021-03-13T05:54:01Z</time>
      </trkpt>
      <trkpt lat="45.2169" lon="5.73175">
        <ele>1027.828</ele>
        <time>2021-03-13T05:54:08Z</time>
      </trkpt>
      <trkpt lat="45.21694" lon="5.73181">
        <ele>1029.142</ele>
        <time>2021-03-13T05:54:14Z</time>
      </trkpt>
      <trkpt lat="45.21696" lon="5.73185">
        <ele>1028.971</ele>
        <time>2021-03-13T05:54:18Z</time>
      </trkpt>
      <trkpt lat="45.21704" lon="5.73195">
        <ele>1030.032</ele>
        <time>2021-03-13T05:54:26Z</time>
      </trkpt>
      <trkpt lat="45.21709" lon="5.73204">
        <ele>1029.76</ele>
        <time>2021-03-13T05:54:32Z</time>
      </trkpt>
      <trkpt lat="45.21718" lon="5.73213">
        <ele>1031.564</ele>
        <time>2021-03-13T05:54:40Z</time>
      </trkpt>
      <trkpt lat="45.21723" lon="5.73215">
        <ele>1033.103</ele>
        <time>2021-03-13T05:54:48Z</time>
      </trkpt>
      <trkpt lat="45.21725" lon="5.73211">
        <ele>1034.843</ele>
        <time>2021-03-13T05:54:54Z</time>
      </trkpt>
      <trkpt lat="45.21725" lon="5.7321">
        <ele>1034.908</ele>
        <time>2021-03-13T05:54:55Z</time>
      </trkpt>
      <trkpt lat="45.21726" lon="5.73208">
        <ele>1036.239</ele>
        <time>2021-03-13T05:54:58Z</time>
      </trkpt>
      <trkpt lat="45.21729" lon="5.73203">
        <ele>1036.289</ele>
        <time>2021-03-13T05:55:03Z</time>
      </trkpt>
      <trkpt lat="45.2174" lon="5.73202">
        <ele>1036.404</ele>
        <time>2021-03-13T05:55:11Z</time>
      </trkpt>
      <trkpt lat="45.21741" lon="5.73201">
        <ele>1035.873</ele>
        <time>2021-03-13T05:55:12Z</time>
      </trkpt>
      <trkpt lat="45.21745" lon="5.73205">
        <ele>1034.996</ele>
        <time>2021-03-13T05:55:16Z</time>
      </trkpt>
      <trkpt lat="45.21753" lon="5.7321">
        <ele>1036.327</ele>
        <time>2021-03-13T05:55:23Z</time>
      </trkpt>
      <trkpt lat="45.21758" lon="5.73219">
        <ele>1038.43</ele>
        <time>2021-03-13T05:55:32Z</time>
      </trkpt>
      <trkpt lat="45.21764" lon="5.73228">
        <ele>1039.178</ele>
        <time>2021-03-13T05:55:39Z</time>
      </trkpt>
      <trkpt lat="45.21769" lon="5.73232">
        <ele>1038.692</ele>
        <time>2021-03-13T05:55:43Z</time>
      </trkpt>
      <trkpt lat="45.21773" lon="5.73241">
        <ele>1039.932</ele>
        <time>2021-03-13T05:55:50Z</time>
      </trkpt>
      <trkpt lat="45.21773" lon="5.73243">
        <ele>1041.031</ele>
        <time>2021-03-13T05:55:52Z</time>
      </trkpt>
      <trkpt lat="45.21779" lon="5.73253">
        <ele>1041.675</ele>
        <time>2021-03-13T05:56:01Z</time>
      </trkpt>
      <trkpt lat="45.2178" lon="5.73259">
        <ele>1042.579</ele>
        <time>2021-03-13T05:56:07Z</time>
      </trkpt>
      <trkpt lat="45.21779" lon="5.73267">
        <ele>1044.247</ele>
        <time>2021-03-13T05:56:14Z</time>
      </trkpt>
      <trkpt lat="45.21781" lon="5.73271">
        <ele>1044.027</ele>
        <time>2021-03-13T05:56:16Z</time>
      </trkpt>
      <trkpt lat="45.21786" lon="5.73274">
        <ele>1046.189</ele>
        <time>2021-03-13T05:56:21Z</time>
      </trkpt>
      <trkpt lat="45.2179" lon="5.73279">
        <ele>1047.812</ele>
        <time>2021-03-13T05:56:26Z</time>
      </trkpt>
      <trkpt lat="45.21797" lon="5.73285">
        <ele>1048.611</ele>
        <time>2021-03-13T05:56:33Z</time>
      </trkpt>
      <trkpt lat="45.21805" lon="5.73292">
        <ele>1050.397</ele>
        <time>2021-03-13T05:56:40Z</time>
      </trkpt>
      <trkpt lat="45.21809" lon="5.73301">
        <ele>1050.777</ele>
        <time>2021-03-13T05:56:45Z</time>
      </trkpt>
      <trkpt lat="45.21816" lon="5.73308">
        <ele>1052.569</ele>
        <time>2021-03-13T05:56:53Z</time>
      </trkpt>
      <trkpt lat="45.21819" lon="5.73312">
        <ele>1052.998</ele>
        <time>2021-03-13T05:56:58Z</time>
      </trkpt>
      <trkpt lat="45.21826" lon="5.73317">
        <ele>1054.382</ele>
        <time>2021-03-13T05:57:05Z</time>
      </trkpt>
      <trkpt lat="45.21827" lon="5.73318">
        <ele>1054.993</ele>
        <time>2021-03-13T05:57:07Z</time>
      </trkpt>
      <trkpt lat="45.21836" lon="5.73327">
        <ele>1056.721</ele>
        <time>2021-03-13T05:57:15Z</time>
      </trkpt>
      <trkpt lat="45.21842" lon="5.73336">
        <ele>1056.559</ele>
        <time>2021-03-13T05:57:21Z</time>
      </trkpt>
      <trkpt lat="45.21844" lon="5.73338">
        <ele>1057.33</ele>
        <time>2021-03-13T05:57:23Z</time>
      </trkpt>
      <trkpt lat="45.2185" lon="5.73345">
        <ele>1057.044</ele>
        <time>2021-03-13T05:57:31Z</time>
      </trkpt>
      <trkpt lat="45.21854" lon="5.7335">
        <ele>1054.401</ele>
        <time>2021-03-13T05:57:37Z</time>
      </trkpt>
      <trkpt lat="45.2186" lon="5.73353">
        <ele>1052.953</ele>
        <time>2021-03-13T05:57:43Z</time>
      </trkpt>
      <trkpt lat="45.21868" lon="5.73357">
        <ele>1051.255</ele>
        <time>2021-03-13T05:57:50Z</time>
      </trkpt>
      <trkpt lat="45.21871" lon="5.73358">
        <ele>1050.309</ele>
        <time>2021-03-13T05:57:52Z</time>
      </trkpt>
      <trkpt lat="45.21878" lon="5.73363">
        <ele>1048.695</ele>
        <time>2021-03-13T05:57:58Z</time>
      </trkpt>
      <trkpt lat="45.21884" lon="5.73367">
        <ele>1048.542</ele>
        <time>2021-03-13T05:58:01Z</time>
      </trkpt>
      <trkpt lat="45.21895" lon="5.73375">
        <ele>1049.561</ele>
        <time>2021-03-13T05:58:09Z</time>
      </trkpt>
      <trkpt lat="45.21901" lon="5.73377">
        <ele>1049.933</ele>
        <time>2021-03-13T05:58:15Z</time>
      </trkpt>
      <trkpt lat="45.2191" lon="5.73382">
        <ele>1050.071</ele>
        <time>2021-03-13T05:58:21Z</time>
      </trkpt>
      <trkpt lat="45.21918" lon="5.73387">
        <ele>1048.846</ele>
        <time>2021-03-13T05:58:28Z</time>
      </trkpt>
      <trkpt lat="45.21919" lon="5.73389">
        <ele>1049.188</ele>
        <time>2021-03-13T05:58:29Z</time>
      </trkpt>
      <trkpt lat="45.21926" lon="5.73405">
        <ele>1049.024</ele>
        <time>2021-03-13T05:58:37Z</time>
      </trkpt>
      <trkpt lat="45.21933" lon="5.73413">
        <ele>1049.967</ele>
        <time>2021-03-13T05:58:42Z</time>
      </trkpt>
      <trkpt lat="45.21935" lon="5.73417">
        <ele>1050.556</ele>
        <time>2021-03-13T05:58:45Z</time>
      </trkpt>
      <trkpt lat="45.21941" lon="5.73425">
        <ele>1051.513</ele>
        <time>2021-03-13T05:58:51Z</time>
      </trkpt>
      <trkpt lat="45.21959" lon="5.73423">
        <ele>1052.01</ele>
        <time>2021-03-13T05:59:04Z</time>
      </trkpt>
      <trkpt lat="45.21971" lon="5.73432">
        <ele>1053.582</ele>
        <time>2021-03-13T05:59:11Z</time>
      </trkpt>
      <trkpt lat="45.21978" lon="5.73435">
        <ele>1055.864</ele>
        <time>2021-03-13T05:59:15Z</time>
      </trkpt>
      <trkpt lat="45.2199" lon="5.73438">
        <ele>1057.17</ele>
        <time>2021-03-13T05:59:22Z</time>
      </trkpt>
      <trkpt lat="45.21993" lon="5.73438">
        <ele>1057.834</ele>
        <time>2021-03-13T05:59:24Z</time>
      </trkpt>
      <trkpt lat="45.22005" lon="5.73439">
        <ele>1057.567</ele>
        <time>2021-03-13T05:59:30Z</time>
      </trkpt>
      <trkpt lat="45.22021" lon="5.7345">
        <ele>1056.136</ele>
        <time>2021-03-13T05:59:38Z</time>
      </trkpt>
      <trkpt lat="45.22032" lon="5.7346">
        <ele>1052.494</ele>
        <time>2021-03-13T05:59:47Z</time>
      </trkpt>
      <trkpt lat="45.22034" lon="5.7346">
        <ele>1052.467</ele>
        <time>2021-03-13T05:59:48Z</time>
      </trkpt>
      <trkpt lat="45.22041" lon="5.73467">
        <ele>1050.781</ele>
        <time>2021-03-13T05:59:54Z</time>
      </trkpt>
      <trkpt lat="45.22049" lon="5.73471">
        <ele>1049.695</ele>
        <time>2021-03-13T05:59:58Z</time>
      </trkpt>
      <trkpt lat="45.22062" lon="5.7348">
        <ele>1047.792</ele>
        <time>2021-03-13T06:00:06Z</time>
      </trkpt>
      <trkpt lat="45.2207" lon="5.73487">
        <ele>1046.974</ele>
        <time>2021-03-13T06:00:10Z</time>
      </trkpt>
      <trkpt lat="45.22077" lon="5.73492">
        <ele>1045.591</ele>
        <time>2021-03-13T06:00:14Z</time>
      </trkpt>
      <trkpt lat="45.22089" lon="5.735">
        <ele>1042.871</ele>
        <time>2021-03-13T06:00:21Z</time>
      </trkpt>
      <trkpt lat="45.2209" lon="5.73501">
        <ele>1043.505</ele>
        <time>2021-03-13T06:00:22Z</time>
      </trkpt>
      <trkpt lat="45.22099" lon="5.73507">
        <ele>1040.94</ele>
        <time>2021-03-13T06:00:28Z</time>
      </trkpt>
      <trkpt lat="45.22103" lon="5.73509">
        <ele>1040.01</ele>
        <time>2021-03-13T06:00:30Z</time>
      </trkpt>
      <trkpt lat="45.22109" lon="5.73513">
        <ele>1038.612</ele>
        <time>2021-03-13T06:00:36Z</time>
      </trkpt>
      <trkpt lat="45.22117" lon="5.73516">
        <ele>1035.45</ele>
        <time>2021-03-13T06:00:43Z</time>
      </trkpt>
      <trkpt lat="45.22118" lon="5.73516">
        <ele>1035.45</ele>
        <time>2021-03-13T06:00:44Z</time>
      </trkpt>
      <trkpt lat="45.2212" lon="5.73516">
        <ele>1034.465</ele>
        <time>2021-03-13T06:00:46Z</time>
      </trkpt>
      <trkpt lat="45.22122" lon="5.73522">
        <ele>1033.463</ele>
        <time>2021-03-13T06:00:49Z</time>
      </trkpt>
      <trkpt lat="45.22126" lon="5.73539">
        <ele>1030.208</ele>
        <time>2021-03-13T06:00:57Z</time>
      </trkpt>
      <trkpt lat="45.22137" lon="5.73542">
        <ele>1027.466</ele>
        <time>2021-03-13T06:01:04Z</time>
      </trkpt>
      <trkpt lat="45.22138" lon="5.73543">
        <ele>1026.89</ele>
        <time>2021-03-13T06:01:05Z</time>
      </trkpt>
      <trkpt lat="45.22146" lon="5.73547">
        <ele>1025.385</ele>
        <time>2021-03-13T06:01:11Z</time>
      </trkpt>
      <trkpt lat="45.22154" lon="5.73547">
        <ele>1024.144</ele>
        <time>2021-03-13T06:01:16Z</time>
      </trkpt>
      <trkpt lat="45.22157" lon="5.7355">
        <ele>1022.827</ele>
        <time>2021-03-13T06:01:18Z</time>
      </trkpt>
      <trkpt lat="45.22169" lon="5.73557">
        <ele>1020.425</ele>
        <time>2021-03-13T06:01:25Z</time>
      </trkpt>
      <trkpt lat="45.22174" lon="5.73571">
        <ele>1019.78</ele>
        <time>2021-03-13T06:01:33Z</time>
      </trkpt>
      <trkpt lat="45.22182" lon="5.73575">
        <ele>1018.575</ele>
        <time>2021-03-13T06:01:38Z</time>
      </trkpt>
      <trkpt lat="45.22188" lon="5.73581">
        <ele>1016.484</ele>
        <time>2021-03-13T06:01:41Z</time>
      </trkpt>
      <trkpt lat="45.22194" lon="5.73588">
        <ele>1015.074</ele>
        <time>2021-03-13T06:01:47Z</time>
      </trkpt>
      <trkpt lat="45.22198" lon="5.73592">
        <ele>1014.286</ele>
        <time>2021-03-13T06:01:50Z</time>
      </trkpt>
      <trkpt lat="45.22208" lon="5.73607">
        <ele>1012.65</ele>
        <time>2021-03-13T06:01:56Z</time>
      </trkpt>
      <trkpt lat="45.22217" lon="5.73622">
        <ele>1012.321</ele>
        <time>2021-03-13T06:02:02Z</time>
      </trkpt>
      <trkpt lat="45.22219" lon="5.73623">
        <ele>1012.228</ele>
        <time>2021-03-13T06:02:03Z</time>
      </trkpt>
      <trkpt lat="45.2223" lon="5.73632">
        <ele>1012.131</ele>
        <time>2021-03-13T06:02:09Z</time>
      </trkpt>
      <trkpt lat="45.22242" lon="5.73641">
        <ele>1010.413</ele>
        <time>2021-03-13T06:02:15Z</time>
      </trkpt>
      <trkpt lat="45.22252" lon="5.7365">
        <ele>1008.765</ele>
        <time>2021-03-13T06:02:22Z</time>
      </trkpt>
      <trkpt lat="45.22266" lon="5.73656">
        <ele>1006.583</ele>
        <time>2021-03-13T06:02:29Z</time>
      </trkpt>
      <trkpt lat="45.22279" lon="5.73658">
        <ele>1003.305</ele>
        <time>2021-03-13T06:02:37Z</time>
      </trkpt>
      <trkpt lat="45.22281" lon="5.73659">
        <ele>1001.722</ele>
        <time>2021-03-13T06:02:39Z</time>
      </trkpt>
      <trkpt lat="45.22288" lon="5.73661">
        <ele>998.363</ele>
        <time>2021-03-13T06:02:47Z</time>
      </trkpt>
      <trkpt lat="45.22296" lon="5.73663">
        <ele>996.144</ele>
        <time>2021-03-13T06:02:54Z</time>
      </trkpt>
      <trkpt lat="45.22302" lon="5.73665">
        <ele>994.482</ele>
        <time>2021-03-13T06:02:59Z</time>
      </trkpt>
      <trkpt lat="45.22307" lon="5.73668">
        <ele>992.797</ele>
        <time>2021-03-13T06:03:02Z</time>
      </trkpt>
      <trkpt lat="45.22316" lon="5.73671">
        <ele>990.402</ele>
        <time>2021-03-13T06:03:08Z</time>
      </trkpt>
      <trkpt lat="45.22319" lon="5.73673">
        <ele>990.261</ele>
        <time>2021-03-13T06:03:10Z</time>
      </trkpt>
      <trkpt lat="45.22333" lon="5.73681">
        <ele>990.449</ele>
        <time>2021-03-13T06:03:17Z</time>
      </trkpt>
      <trkpt lat="45.22343" lon="5.73685">
        <ele>988.932</ele>
        <time>2021-03-13T06:03:23Z</time>
      </trkpt>
      <trkpt lat="45.22345" lon="5.73686">
        <ele>988.614</ele>
        <time>2021-03-13T06:03:24Z</time>
      </trkpt>
      <trkpt lat="45.22359" lon="5.73693">
        <ele>988.896</ele>
        <time>2021-03-13T06:03:31Z</time>
      </trkpt>
      <trkpt lat="45.22368" lon="5.73696">
        <ele>990.185</ele>
        <time>2021-03-13T06:03:37Z</time>
      </trkpt>
      <trkpt lat="45.22377" lon="5.73699">
        <ele>991.274</ele>
        <time>2021-03-13T06:03:43Z</time>
      </trkpt>
      <trkpt lat="45.22389" lon="5.73697">
        <ele>994.074</ele>
        <time>2021-03-13T06:03:53Z</time>
      </trkpt>
      <trkpt lat="45.22402" lon="5.737">
        <ele>997.399</ele>
        <time>2021-03-13T06:04:00Z</time>
      </trkpt>
      <trkpt lat="45.2241" lon="5.737">
        <ele>998.644</ele>
        <time>2021-03-13T06:04:04Z</time>
      </trkpt>
      <trkpt lat="45.22428" lon="5.737">
        <ele>1000.758</ele>
        <time>2021-03-13T06:04:17Z</time>
      </trkpt>
      <trkpt lat="45.22436" lon="5.73704">
        <ele>1003.066</ele>
        <time>2021-03-13T06:04:23Z</time>
      </trkpt>
      <trkpt lat="45.22445" lon="5.73704">
        <ele>1000.65</ele>
        <time>2021-03-13T06:04:29Z</time>
      </trkpt>
      <trkpt lat="45.22459" lon="5.73703">
        <ele>1003.02</ele>
        <time>2021-03-13T06:04:36Z</time>
      </trkpt>
      <trkpt lat="45.22471" lon="5.73704">
        <ele>1004.689</ele>
        <time>2021-03-13T06:04:42Z</time>
      </trkpt>
      <trkpt lat="45.22481" lon="5.73701">
        <ele>1006.551</ele>
        <time>2021-03-13T06:04:48Z</time>
      </trkpt>
      <trkpt lat="45.22486" lon="5.73697">
        <ele>1008.049</ele>
        <time>2021-03-13T06:04:51Z</time>
      </trkpt>
      <trkpt lat="45.22492" lon="5.73695">
        <ele>1009.84</ele>
        <time>2021-03-13T06:04:57Z</time>
      </trkpt>
      <trkpt lat="45.225" lon="5.7369">
        <ele>1011.585</ele>
        <time>2021-03-13T06:05:04Z</time>
      </trkpt>
      <trkpt lat="45.22506" lon="5.73685">
        <ele>1013.241</ele>
        <time>2021-03-13T06:05:12Z</time>
      </trkpt>
      <trkpt lat="45.22514" lon="5.73685">
        <ele>1014.969</ele>
        <time>2021-03-13T06:05:17Z</time>
      </trkpt>
      <trkpt lat="45.22522" lon="5.73687">
        <ele>1016.556</ele>
        <time>2021-03-13T06:05:25Z</time>
      </trkpt>
      <trkpt lat="45.22526" lon="5.73688">
        <ele>1018.031</ele>
        <time>2021-03-13T06:05:29Z</time>
      </trkpt>
      <trkpt lat="45.22527" lon="5.73688">
        <ele>1017.996</ele>
        <time>2021-03-13T06:05:30Z</time>
      </trkpt>
      <trkpt lat="45.22536" lon="5.73693">
        <ele>1019.613</ele>
        <time>2021-03-13T06:05:39Z</time>
      </trkpt>
      <trkpt lat="45.22545" lon="5.73697">
        <ele>1021.17</ele>
        <time>2021-03-13T06:05:47Z</time>
      </trkpt>
      <trkpt lat="45.22552" lon="5.737">
        <ele>1023.258</ele>
        <time>2021-03-13T06:05:54Z</time>
      </trkpt>
      <trkpt lat="45.22559" lon="5.73705">
        <ele>1024.704</ele>
        <time>2021-03-13T06:06:02Z</time>
      </trkpt>
      <trkpt lat="45.2257" lon="5.73713">
        <ele>1026.552</ele>
        <time>2021-03-13T06:06:09Z</time>
      </trkpt>
      <trkpt lat="45.22582" lon="5.73716">
        <ele>1026.841</ele>
        <time>2021-03-13T06:06:17Z</time>
      </trkpt>
      <trkpt lat="45.2259" lon="5.7372">
        <ele>1029.37</ele>
        <time>2021-03-13T06:06:23Z</time>
      </trkpt>
      <trkpt lat="45.22598" lon="5.73726">
        <ele>1030.864</ele>
        <time>2021-03-13T06:06:30Z</time>
      </trkpt>
      <trkpt lat="45.22605" lon="5.7373">
        <ele>1031.67</ele>
        <time>2021-03-13T06:06:36Z</time>
      </trkpt>
      <trkpt lat="45.22612" lon="5.73736">
        <ele>1032.641</ele>
        <time>2021-03-13T06:06:42Z</time>
      </trkpt>
      <trkpt lat="45.22619" lon="5.73743">
        <ele>1033.883</ele>
        <time>2021-03-13T06:06:48Z</time>
      </trkpt>
      <trkpt lat="45.22631" lon="5.73753">
        <ele>1033.741</ele>
        <time>2021-03-13T06:06:57Z</time>
      </trkpt>
      <trkpt lat="45.22639" lon="5.73758">
        <ele>1033.891</ele>
        <time>2021-03-13T06:07:03Z</time>
      </trkpt>
      <trkpt lat="45.22642" lon="5.73761">
        <ele>1033.061</ele>
        <time>2021-03-13T06:07:05Z</time>
      </trkpt>
      <trkpt lat="45.22652" lon="5.73773">
        <ele>1033.51</ele>
        <time>2021-03-13T06:07:12Z</time>
      </trkpt>
      <trkpt lat="45.22659" lon="5.73778">
        <ele>1035.515</ele>
        <time>2021-03-13T06:07:17Z</time>
      </trkpt>
      <trkpt lat="45.22661" lon="5.73779">
        <ele>1035.779</ele>
        <time>2021-03-13T06:07:18Z</time>
      </trkpt>
      <trkpt lat="45.22669" lon="5.73783">
        <ele>1037.28</ele>
        <time>2021-03-13T06:07:23Z</time>
      </trkpt>
      <trkpt lat="45.22679" lon="5.73794">
        <ele>1038.724</ele>
        <time>2021-03-13T06:07:31Z</time>
      </trkpt>
      <trkpt lat="45.2268" lon="5.73796">
        <ele>1038.261</ele>
        <time>2021-03-13T06:07:32Z</time>
      </trkpt>
      <trkpt lat="45.22693" lon="5.73805">
        <ele>1038.964</ele>
        <time>2021-03-13T06:07:39Z</time>
      </trkpt>
      <trkpt lat="45.227" lon="5.73808">
        <ele>1039.546</ele>
        <time>2021-03-13T06:07:45Z</time>
      </trkpt>
      <trkpt lat="45.22708" lon="5.73811">
        <ele>1040.134</ele>
        <time>2021-03-13T06:07:50Z</time>
      </trkpt>
      <trkpt lat="45.22711" lon="5.73814">
        <ele>1039.782</ele>
        <time>2021-03-13T06:07:52Z</time>
      </trkpt>
      <trkpt lat="45.22724" lon="5.73819">
        <ele>1039.788</ele>
        <time>2021-03-13T06:07:58Z</time>
      </trkpt>
      <trkpt lat="45.22728" lon="5.7382">
        <ele>1039.542</ele>
        <time>2021-03-13T06:08:01Z</time>
      </trkpt>
      <trkpt lat="45.22735" lon="5.73827">
        <ele>1039.182</ele>
        <time>2021-03-13T06:08:07Z</time>
      </trkpt>
      <trkpt lat="45.22744" lon="5.73836">
        <ele>1038.956</ele>
        <time>2021-03-13T06:08:13Z</time>
      </trkpt>
      <trkpt lat="45.22756" lon="5.73843">
        <ele>1039.303</ele>
        <time>2021-03-13T06:08:19Z</time>
      </trkpt>
      <trkpt lat="45.22769" lon="5.73849">
        <ele>1039.067</ele>
        <time>2021-03-13T06:08:26Z</time>
      </trkpt>
      <trkpt lat="45.22775" lon="5.73851">
        <ele>1038.416</ele>
        <time>2021-03-13T06:08:29Z</time>
      </trkpt>
      <trkpt lat="45.22784" lon="5.73857">
        <ele>1037.56</ele>
        <time>2021-03-13T06:08:36Z</time>
      </trkpt>
      <trkpt lat="45.22786" lon="5.73858">
        <ele>1037.01</ele>
        <time>2021-03-13T06:08:37Z</time>
      </trkpt>
      <trkpt lat="45.22789" lon="5.7386">
        <ele>1036.711</ele>
        <time>2021-03-13T06:08:39Z</time>
      </trkpt>
      <trkpt lat="45.22801" lon="5.73867">
        <ele>1034.859</ele>
        <time>2021-03-13T06:08:45Z</time>
      </trkpt>
      <trkpt lat="45.22812" lon="5.73872">
        <ele>1034.618</ele>
        <time>2021-03-13T06:08:51Z</time>
      </trkpt>
      <trkpt lat="45.22831" lon="5.73876">
        <ele>1034.184</ele>
        <time>2021-03-13T06:09:00Z</time>
      </trkpt>
      <trkpt lat="45.22835" lon="5.73877">
        <ele>1034.328</ele>
        <time>2021-03-13T06:09:02Z</time>
      </trkpt>
      <trkpt lat="45.2284" lon="5.73882">
        <ele>1033.069</ele>
        <time>2021-03-13T06:09:05Z</time>
      </trkpt>
      <trkpt lat="45.22841" lon="5.73883">
        <ele>1032.026</ele>
        <time>2021-03-13T06:09:06Z</time>
      </trkpt>
      <trkpt lat="45.22847" lon="5.73882">
        <ele>1031.363</ele>
        <time>2021-03-13T06:09:08Z</time>
      </trkpt>
      <trkpt lat="45.22864" lon="5.73875">
        <ele>1030.528</ele>
        <time>2021-03-13T06:09:15Z</time>
      </trkpt>
      <trkpt lat="45.2288" lon="5.7387">
        <ele>1029.475</ele>
        <time>2021-03-13T06:09:22Z</time>
      </trkpt>
      <trkpt lat="45.22892" lon="5.73867">
        <ele>1029.604</ele>
        <time>2021-03-13T06:09:28Z</time>
      </trkpt>
      <trkpt lat="45.22906" lon="5.7387">
        <ele>1029.207</ele>
        <time>2021-03-13T06:09:36Z</time>
      </trkpt>
      <trkpt lat="45.22921" lon="5.7387">
        <ele>1027.101</ele>
        <time>2021-03-13T06:09:44Z</time>
      </trkpt>
      <trkpt lat="45.22937" lon="5.73881">
        <ele>1025.825</ele>
        <time>2021-03-13T06:09:51Z</time>
      </trkpt>
      <trkpt lat="45.22942" lon="5.73902">
        <ele>1022.147</ele>
        <time>2021-03-13T06:09:58Z</time>
      </trkpt>
      <trkpt lat="45.22948" lon="5.73929">
        <ele>1021.195</ele>
        <time>2021-03-13T06:10:05Z</time>
      </trkpt>
      <trkpt lat="45.22961" lon="5.73952">
        <ele>1021.898</ele>
        <time>2021-03-13T06:10:12Z</time>
      </trkpt>
      <trkpt lat="45.22973" lon="5.73965">
        <ele>1021.499</ele>
        <time>2021-03-13T06:10:18Z</time>
      </trkpt>
      <trkpt lat="45.22993" lon="5.73969">
        <ele>1022.714</ele>
        <time>2021-03-13T06:10:24Z</time>
      </trkpt>
      <trkpt lat="45.2301" lon="5.73975">
        <ele>1023.606</ele>
        <time>2021-03-13T06:10:31Z</time>
      </trkpt>
      <trkpt lat="45.23023" lon="5.73978">
        <ele>1023.564</ele>
        <time>2021-03-13T06:10:38Z</time>
      </trkpt>
      <trkpt lat="45.23036" lon="5.73982">
        <ele>1023.409</ele>
        <time>2021-03-13T06:10:44Z</time>
      </trkpt>
      <trkpt lat="45.23037" lon="5.73982">
        <ele>1023.353</ele>
        <time>2021-03-13T06:10:45Z</time>
      </trkpt>
      <trkpt lat="45.2305" lon="5.73967">
        <ele>1024.632</ele>
        <time>2021-03-13T06:10:52Z</time>
      </trkpt>
      <trkpt lat="45.23061" lon="5.73958">
        <ele>1025.508</ele>
        <time>2021-03-13T06:10:59Z</time>
      </trkpt>
      <trkpt lat="45.23073" lon="5.7396">
        <ele>1027.199</ele>
        <time>2021-03-13T06:11:03Z</time>
      </trkpt>
      <trkpt lat="45.23089" lon="5.7397">
        <ele>1029.476</ele>
        <time>2021-03-13T06:11:11Z</time>
      </trkpt>
      <trkpt lat="45.2309" lon="5.73972">
        <ele>1029.78</ele>
        <time>2021-03-13T06:11:13Z</time>
      </trkpt>
      <trkpt lat="45.23098" lon="5.73981">
        <ele>1030.031</ele>
        <time>2021-03-13T06:11:18Z</time>
      </trkpt>
      <trkpt lat="45.23105" lon="5.7398">
        <ele>1030.274</ele>
        <time>2021-03-13T06:11:22Z</time>
      </trkpt>
      <trkpt lat="45.23116" lon="5.73978">
        <ele>1030.463</ele>
        <time>2021-03-13T06:11:27Z</time>
      </trkpt>
      <trkpt lat="45.2312" lon="5.73978">
        <ele>1030.515</ele>
        <time>2021-03-13T06:11:29Z</time>
      </trkpt>
      <trkpt lat="45.23126" lon="5.73978">
        <ele>1030.186</ele>
        <time>2021-03-13T06:11:32Z</time>
      </trkpt>
      <trkpt lat="45.23141" lon="5.7398">
        <ele>1031.161</ele>
        <time>2021-03-13T06:11:40Z</time>
      </trkpt>
      <trkpt lat="45.23141" lon="5.73982">
        <ele>1031.122</ele>
        <time>2021-03-13T06:11:41Z</time>
      </trkpt>
      <trkpt lat="45.23156" lon="5.73988">
        <ele>1031.062</ele>
        <time>2021-03-13T06:11:50Z</time>
      </trkpt>
      <trkpt lat="45.23162" lon="5.73994">
        <ele>1030.107</ele>
        <time>2021-03-13T06:11:56Z</time>
      </trkpt>
      <trkpt lat="45.23168" lon="5.73994">
        <ele>1030.019</ele>
        <time>2021-03-13T06:11:58Z</time>
      </trkpt>
      <trkpt lat="45.23178" lon="5.73995">
        <ele>1028.746</ele>
        <time>2021-03-13T06:12:01Z</time>
      </trkpt>
      <trkpt lat="45.23197" lon="5.74005">
        <ele>1027.334</ele>
        <time>2021-03-13T06:12:08Z</time>
      </trkpt>
      <trkpt lat="45.23202" lon="5.74008">
        <ele>1027.381</ele>
        <time>2021-03-13T06:12:10Z</time>
      </trkpt>
      <trkpt lat="45.23214" lon="5.74019">
        <ele>1026.789</ele>
        <time>2021-03-13T06:12:16Z</time>
      </trkpt>
      <trkpt lat="45.23216" lon="5.74021">
        <ele>1026.936</ele>
        <time>2021-03-13T06:12:17Z</time>
      </trkpt>
      <trkpt lat="45.2322" lon="5.74023">
        <ele>1026.022</ele>
        <time>2021-03-13T06:12:19Z</time>
      </trkpt>
      <trkpt lat="45.23232" lon="5.74037">
        <ele>1027.869</ele>
        <time>2021-03-13T06:12:25Z</time>
      </trkpt>
      <trkpt lat="45.23232" lon="5.74048">
        <ele>1028.692</ele>
        <time>2021-03-13T06:12:30Z</time>
      </trkpt>
      <trkpt lat="45.23228" lon="5.74062">
        <ele>1029.653</ele>
        <time>2021-03-13T06:12:35Z</time>
      </trkpt>
      <trkpt lat="45.23228" lon="5.74087">
        <ele>1030.285</ele>
        <time>2021-03-13T06:12:44Z</time>
      </trkpt>
      <trkpt lat="45.23228" lon="5.74092">
        <ele>1030.207</ele>
        <time>2021-03-13T06:12:46Z</time>
      </trkpt>
      <trkpt lat="45.23229" lon="5.74115">
        <ele>1029.812</ele>
        <time>2021-03-13T06:12:53Z</time>
      </trkpt>
      <trkpt lat="45.23234" lon="5.74125">
        <ele>1029.219</ele>
        <time>2021-03-13T06:12:58Z</time>
      </trkpt>
      <trkpt lat="45.23239" lon="5.74127">
        <ele>1029.046</ele>
        <time>2021-03-13T06:13:05Z</time>
      </trkpt>
      <trkpt lat="45.23248" lon="5.74134">
        <ele>1030.33</ele>
        <time>2021-03-13T06:13:10Z</time>
      </trkpt>
      <trkpt lat="45.23264" lon="5.74144">
        <ele>1030.786</ele>
        <time>2021-03-13T06:13:17Z</time>
      </trkpt>
      <trkpt lat="45.23276" lon="5.74159">
        <ele>1030.742</ele>
        <time>2021-03-13T06:13:22Z</time>
      </trkpt>
      <trkpt lat="45.23284" lon="5.74174">
        <ele>1030.061</ele>
        <time>2021-03-13T06:13:27Z</time>
      </trkpt>
      <trkpt lat="45.23288" lon="5.7418">
        <ele>1029.02</ele>
        <time>2021-03-13T06:13:30Z</time>
      </trkpt>
      <trkpt lat="45.23296" lon="5.74184">
        <ele>1028.037</ele>
        <time>2021-03-13T06:13:37Z</time>
      </trkpt>
      <trkpt lat="45.23309" lon="5.74191">
        <ele>1027.157</ele>
        <time>2021-03-13T06:13:44Z</time>
      </trkpt>
      <trkpt lat="45.23325" lon="5.74199">
        <ele>1027.48</ele>
        <time>2021-03-13T06:13:50Z</time>
      </trkpt>
      <trkpt lat="45.23337" lon="5.74206">
        <ele>1027.211</ele>
        <time>2021-03-13T06:13:56Z</time>
      </trkpt>
      <trkpt lat="45.2334" lon="5.74207">
        <ele>1027.532</ele>
        <time>2021-03-13T06:13:57Z</time>
      </trkpt>
      <trkpt lat="45.23347" lon="5.74214">
        <ele>1027.544</ele>
        <time>2021-03-13T06:14:01Z</time>
      </trkpt>
      <trkpt lat="45.23365" lon="5.74226">
        <ele>1027.194</ele>
        <time>2021-03-13T06:14:08Z</time>
      </trkpt>
      <trkpt lat="45.23371" lon="5.74232">
        <ele>1026.828</ele>
        <time>2021-03-13T06:14:11Z</time>
      </trkpt>
      <trkpt lat="45.23377" lon="5.74237">
        <ele>1026.18</ele>
        <time>2021-03-13T06:14:14Z</time>
      </trkpt>
      <trkpt lat="45.23385" lon="5.74258">
        <ele>1025.604</ele>
        <time>2021-03-13T06:14:20Z</time>
      </trkpt>
      <trkpt lat="45.23387" lon="5.7426">
        <ele>1024.583</ele>
        <time>2021-03-13T06:14:21Z</time>
      </trkpt>
      <trkpt lat="45.23388" lon="5.74275">
        <ele>1022.438</ele>
        <time>2021-03-13T06:14:27Z</time>
      </trkpt>
      <trkpt lat="45.23387" lon="5.74288">
        <ele>1019.814</ele>
        <time>2021-03-13T06:14:32Z</time>
      </trkpt>
      <trkpt lat="45.23382" lon="5.7431">
        <ele>1018.149</ele>
        <time>2021-03-13T06:14:39Z</time>
      </trkpt>
      <trkpt lat="45.2338" lon="5.7433">
        <ele>1017</ele>
        <time>2021-03-13T06:14:45Z</time>
      </trkpt>
      <trkpt lat="45.23386" lon="5.74349">
        <ele>1014.71</ele>
        <time>2021-03-13T06:14:51Z</time>
      </trkpt>
      <trkpt lat="45.23391" lon="5.7436">
        <ele>1013.692</ele>
        <time>2021-03-13T06:14:56Z</time>
      </trkpt>
      <trkpt lat="45.23395" lon="5.74362">
        <ele>1014.546</ele>
        <time>2021-03-13T06:14:59Z</time>
      </trkpt>
      <trkpt lat="45.23402" lon="5.74365">
        <ele>1014.98</ele>
        <time>2021-03-13T06:15:05Z</time>
      </trkpt>
      <trkpt lat="45.23405" lon="5.74366">
        <ele>1015.377</ele>
        <time>2021-03-13T06:15:06Z</time>
      </trkpt>
      <trkpt lat="45.23429" lon="5.7438">
        <ele>1016.278</ele>
        <time>2021-03-13T06:15:14Z</time>
      </trkpt>
      <trkpt lat="45.23444" lon="5.74393">
        <ele>1018.04</ele>
        <time>2021-03-13T06:15:21Z</time>
      </trkpt>
      <trkpt lat="45.2345" lon="5.74401">
        <ele>1018.918</ele>
        <time>2021-03-13T06:15:26Z</time>
      </trkpt>
      <trkpt lat="45.23454" lon="5.74406">
        <ele>1019.317</ele>
        <time>2021-03-13T06:15:30Z</time>
      </trkpt>
      <trkpt lat="45.23471" lon="5.7442">
        <ele>1019.814</ele>
        <time>2021-03-13T06:15:38Z</time>
      </trkpt>
      <trkpt lat="45.23473" lon="5.74422">
        <ele>1020.41</ele>
        <time>2021-03-13T06:15:39Z</time>
      </trkpt>
      <trkpt lat="45.23484" lon="5.74432">
        <ele>1019.681</ele>
        <time>2021-03-13T06:15:44Z</time>
      </trkpt>
      <trkpt lat="45.23494" lon="5.74446">
        <ele>1019.044</ele>
        <time>2021-03-13T06:15:49Z</time>
      </trkpt>
      <trkpt lat="45.23502" lon="5.7445">
        <ele>1017.366</ele>
        <time>2021-03-13T06:15:52Z</time>
      </trkpt>
      <trkpt lat="45.23504" lon="5.74454">
        <ele>1016.582</ele>
        <time>2021-03-13T06:15:54Z</time>
      </trkpt>
      <trkpt lat="45.2352" lon="5.74464">
        <ele>1015.402</ele>
        <time>2021-03-13T06:16:00Z</time>
      </trkpt>
      <trkpt lat="45.23524" lon="5.74482">
        <ele>1015.261</ele>
        <time>2021-03-13T06:16:05Z</time>
      </trkpt>
      <trkpt lat="45.23521" lon="5.74509">
        <ele>1013.641</ele>
        <time>2021-03-13T06:16:12Z</time>
      </trkpt>
      <trkpt lat="45.23518" lon="5.74535">
        <ele>1013.29</ele>
        <time>2021-03-13T06:16:19Z</time>
      </trkpt>
      <trkpt lat="45.23517" lon="5.74555">
        <ele>1012.02</ele>
        <time>2021-03-13T06:16:25Z</time>
      </trkpt>
      <trkpt lat="45.23517" lon="5.74572">
        <ele>1010.783</ele>
        <time>2021-03-13T06:16:31Z</time>
      </trkpt>
      <trkpt lat="45.23512" lon="5.74583">
        <ele>1010.209</ele>
        <time>2021-03-13T06:16:36Z</time>
      </trkpt>
      <trkpt lat="45.23501" lon="5.7459">
        <ele>1010.076</ele>
        <time>2021-03-13T06:16:42Z</time>
      </trkpt>
      <trkpt lat="45.23502" lon="5.74587">
        <ele>1009.842</ele>
        <time>2021-03-13T06:16:44Z</time>
      </trkpt>
      <trkpt lat="45.23499" lon="5.74571">
        <ele>1011.244</ele>
        <time>2021-03-13T06:16:50Z</time>
      </trkpt>
      <trkpt lat="45.23502" lon="5.74553">
        <ele>1012.408</ele>
        <time>2021-03-13T06:16:58Z</time>
      </trkpt>
      <trkpt lat="45.23508" lon="5.74535">
        <ele>1014.287</ele>
        <time>2021-03-13T06:17:05Z</time>
      </trkpt>
      <trkpt lat="45.23509" lon="5.74515">
        <ele>1014.052</ele>
        <time>2021-03-13T06:17:11Z</time>
      </trkpt>
      <trkpt lat="45.23508" lon="5.74505">
        <ele>1014.211</ele>
        <time>2021-03-13T06:17:14Z</time>
      </trkpt>
      <trkpt lat="45.23514" lon="5.74491">
        <ele>1015.832</ele>
        <time>2021-03-13T06:17:20Z</time>
      </trkpt>
      <trkpt lat="45.23509" lon="5.7448">
        <ele>1016.009</ele>
        <time>2021-03-13T06:17:26Z</time>
      </trkpt>
      <trkpt lat="45.23507" lon="5.74476">
        <ele>1016.403</ele>
        <time>2021-03-13T06:17:28Z</time>
      </trkpt>
      <trkpt lat="45.23497" lon="5.74464">
        <ele>1018.15</ele>
        <time>2021-03-13T06:17:36Z</time>
      </trkpt>
      <trkpt lat="45.23487" lon="5.74458">
        <ele>1018.554</ele>
        <time>2021-03-13T06:17:42Z</time>
      </trkpt>
      <trkpt lat="45.23473" lon="5.74443">
        <ele>1019.632</ele>
        <time>2021-03-13T06:17:49Z</time>
      </trkpt>
      <trkpt lat="45.23461" lon="5.7443">
        <ele>1019.563</ele>
        <time>2021-03-13T06:17:55Z</time>
      </trkpt>
      <trkpt lat="45.23448" lon="5.74418">
        <ele>1019.664</ele>
        <time>2021-03-13T06:18:02Z</time>
      </trkpt>
      <trkpt lat="45.23434" lon="5.74406">
        <ele>1018.795</ele>
        <time>2021-03-13T06:18:10Z</time>
      </trkpt>
      <trkpt lat="45.23423" lon="5.74391">
        <ele>1018.078</ele>
        <time>2021-03-13T06:18:16Z</time>
      </trkpt>
      <trkpt lat="45.23403" lon="5.74377">
        <ele>1017.542</ele>
        <time>2021-03-13T06:18:25Z</time>
      </trkpt>
      <trkpt lat="45.23392" lon="5.74377">
        <ele>1016.033</ele>
        <time>2021-03-13T06:18:30Z</time>
      </trkpt>
      <trkpt lat="45.23383" lon="5.74379">
        <ele>1015.272</ele>
        <time>2021-03-13T06:18:35Z</time>
      </trkpt>
      <trkpt lat="45.23366" lon="5.74377">
        <ele>1013.702</ele>
        <time>2021-03-13T06:18:41Z</time>
      </trkpt>
      <trkpt lat="45.23355" lon="5.74379">
        <ele>1011.91</ele>
        <time>2021-03-13T06:18:46Z</time>
      </trkpt>
      <trkpt lat="45.23346" lon="5.74378">
        <ele>1010.38</ele>
        <time>2021-03-13T06:18:50Z</time>
      </trkpt>
      <trkpt lat="45.23325" lon="5.74375">
        <ele>1008.183</ele>
        <time>2021-03-13T06:18:58Z</time>
      </trkpt>
      <trkpt lat="45.23313" lon="5.7437">
        <ele>1006.815</ele>
        <time>2021-03-13T06:19:03Z</time>
      </trkpt>
      <trkpt lat="45.23298" lon="5.74359">
        <ele>1005.557</ele>
        <time>2021-03-13T06:19:10Z</time>
      </trkpt>
      <trkpt lat="45.23285" lon="5.74349">
        <ele>1004.176</ele>
        <time>2021-03-13T06:19:16Z</time>
      </trkpt>
      <trkpt lat="45.2328" lon="5.74348">
        <ele>1003.232</ele>
        <time>2021-03-13T06:19:18Z</time>
      </trkpt>
      <trkpt lat="45.23265" lon="5.74338">
        <ele>1001.846</ele>
        <time>2021-03-13T06:19:25Z</time>
      </trkpt>
      <trkpt lat="45.23252" lon="5.74326">
        <ele>1000.825</ele>
        <time>2021-03-13T06:19:31Z</time>
      </trkpt>
      <trkpt lat="45.23237" lon="5.74317">
        <ele>997.925</ele>
        <time>2021-03-13T06:19:38Z</time>
      </trkpt>
      <trkpt lat="45.23223" lon="5.74308">
        <ele>997.295</ele>
        <time>2021-03-13T06:19:44Z</time>
      </trkpt>
      <trkpt lat="45.23209" lon="5.74304">
        <ele>995.332</ele>
        <time>2021-03-13T06:19:50Z</time>
      </trkpt>
      <trkpt lat="45.23197" lon="5.74299">
        <ele>992.705</ele>
        <time>2021-03-13T06:19:56Z</time>
      </trkpt>
      <trkpt lat="45.2318" lon="5.74292">
        <ele>992.094</ele>
        <time>2021-03-13T06:20:03Z</time>
      </trkpt>
      <trkpt lat="45.23166" lon="5.74289">
        <ele>989.983</ele>
        <time>2021-03-13T06:20:09Z</time>
      </trkpt>
      <trkpt lat="45.23151" lon="5.74285">
        <ele>987.447</ele>
        <time>2021-03-13T06:20:15Z</time>
      </trkpt>
      <trkpt lat="45.23135" lon="5.74279">
        <ele>985.295</ele>
        <time>2021-03-13T06:20:21Z</time>
      </trkpt>
      <trkpt lat="45.23133" lon="5.74278">
        <ele>984.604</ele>
        <time>2021-03-13T06:20:22Z</time>
      </trkpt>
      <trkpt lat="45.23121" lon="5.74276">
        <ele>984.193</ele>
        <time>2021-03-13T06:20:27Z</time>
      </trkpt>
      <trkpt lat="45.23112" lon="5.74273">
        <ele>983.602</ele>
        <time>2021-03-13T06:20:31Z</time>
      </trkpt>
      <trkpt lat="45.23101" lon="5.74269">
        <ele>981.688</ele>
        <time>2021-03-13T06:20:36Z</time>
      </trkpt>
      <trkpt lat="45.23081" lon="5.74264">
        <ele>979.056</ele>
        <time>2021-03-13T06:20:43Z</time>
      </trkpt>
      <trkpt lat="45.23079" lon="5.74263">
        <ele>978.832</ele>
        <time>2021-03-13T06:20:44Z</time>
      </trkpt>
      <trkpt lat="45.23058" lon="5.74254">
        <ele>977.675</ele>
        <time>2021-03-13T06:20:52Z</time>
      </trkpt>
      <trkpt lat="45.23043" lon="5.7425">
        <ele>976.964</ele>
        <time>2021-03-13T06:20:58Z</time>
      </trkpt>
      <trkpt lat="45.23029" lon="5.74245">
        <ele>973.53</ele>
        <time>2021-03-13T06:21:04Z</time>
      </trkpt>
      <trkpt lat="45.23024" lon="5.74242">
        <ele>973.097</ele>
        <time>2021-03-13T06:21:06Z</time>
      </trkpt>
      <trkpt lat="45.23008" lon="5.74241">
        <ele>972.528</ele>
        <time>2021-03-13T06:21:13Z</time>
      </trkpt>
      <trkpt lat="45.22989" lon="5.74233">
        <ele>970.018</ele>
        <time>2021-03-13T06:21:21Z</time>
      </trkpt>
      <trkpt lat="45.22982" lon="5.74229">
        <ele>968.737</ele>
        <time>2021-03-13T06:21:24Z</time>
      </trkpt>
      <trkpt lat="45.22964" lon="5.74224">
        <ele>967.278</ele>
        <time>2021-03-13T06:21:31Z</time>
      </trkpt>
      <trkpt lat="45.22944" lon="5.74212">
        <ele>965.398</ele>
        <time>2021-03-13T06:21:39Z</time>
      </trkpt>
      <trkpt lat="45.22927" lon="5.74197">
        <ele>962.706</ele>
        <time>2021-03-13T06:21:46Z</time>
      </trkpt>
      <trkpt lat="45.22911" lon="5.74188">
        <ele>960.916</ele>
        <time>2021-03-13T06:21:53Z</time>
      </trkpt>
      <trkpt lat="45.22895" lon="5.74184">
        <ele>959.559</ele>
        <time>2021-03-13T06:22:00Z</time>
      </trkpt>
      <trkpt lat="45.22882" lon="5.7418">
        <ele>958.151</ele>
        <time>2021-03-13T06:22:06Z</time>
      </trkpt>
      <trkpt lat="45.22872" lon="5.74178">
        <ele>956.352</ele>
        <time>2021-03-13T06:22:10Z</time>
      </trkpt>
      <trkpt lat="45.22866" lon="5.74174">
        <ele>955.317</ele>
        <time>2021-03-13T06:22:14Z</time>
      </trkpt>
      <trkpt lat="45.22848" lon="5.74167">
        <ele>953.554</ele>
        <time>2021-03-13T06:22:21Z</time>
      </trkpt>
      <trkpt lat="45.2283" lon="5.74159">
        <ele>952.182</ele>
        <time>2021-03-13T06:22:28Z</time>
      </trkpt>
      <trkpt lat="45.22828" lon="5.74156">
        <ele>951.549</ele>
        <time>2021-03-13T06:22:29Z</time>
      </trkpt>
      <trkpt lat="45.22815" lon="5.7415">
        <ele>950.189</ele>
        <time>2021-03-13T06:22:35Z</time>
      </trkpt>
      <trkpt lat="45.22798" lon="5.74149">
        <ele>948.113</ele>
        <time>2021-03-13T06:22:41Z</time>
      </trkpt>
      <trkpt lat="45.22779" lon="5.74143">
        <ele>947.62</ele>
        <time>2021-03-13T06:22:48Z</time>
      </trkpt>
      <trkpt lat="45.22763" lon="5.74133">
        <ele>945.847</ele>
        <time>2021-03-13T06:22:55Z</time>
      </trkpt>
      <trkpt lat="45.22755" lon="5.7413">
        <ele>944.517</ele>
        <time>2021-03-13T06:22:58Z</time>
      </trkpt>
      <trkpt lat="45.22743" lon="5.74123">
        <ele>942.195</ele>
        <time>2021-03-13T06:23:04Z</time>
      </trkpt>
      <trkpt lat="45.22735" lon="5.7412">
        <ele>940.844</ele>
        <time>2021-03-13T06:23:07Z</time>
      </trkpt>
      <trkpt lat="45.22724" lon="5.74115">
        <ele>939.302</ele>
        <time>2021-03-13T06:23:11Z</time>
      </trkpt>
      <trkpt lat="45.22706" lon="5.74108">
        <ele>937.789</ele>
        <time>2021-03-13T06:23:18Z</time>
      </trkpt>
      <trkpt lat="45.22688" lon="5.74103">
        <ele>936.019</ele>
        <time>2021-03-13T06:23:26Z</time>
      </trkpt>
      <trkpt lat="45.2267" lon="5.74095">
        <ele>933.296</ele>
        <time>2021-03-13T06:23:33Z</time>
      </trkpt>
      <trkpt lat="45.22653" lon="5.74092">
        <ele>932.505</ele>
        <time>2021-03-13T06:23:39Z</time>
      </trkpt>
      <trkpt lat="45.22641" lon="5.7409">
        <ele>931.329</ele>
        <time>2021-03-13T06:23:44Z</time>
      </trkpt>
      <trkpt lat="45.22621" lon="5.74088">
        <ele>930.058</ele>
        <time>2021-03-13T06:23:51Z</time>
      </trkpt>
      <trkpt lat="45.22604" lon="5.74086">
        <ele>927.39</ele>
        <time>2021-03-13T06:23:58Z</time>
      </trkpt>
      <trkpt lat="45.22593" lon="5.74083">
        <ele>925.986</ele>
        <time>2021-03-13T06:24:03Z</time>
      </trkpt>
      <trkpt lat="45.22585" lon="5.74084">
        <ele>924.699</ele>
        <time>2021-03-13T06:24:06Z</time>
      </trkpt>
      <trkpt lat="45.22566" lon="5.74094">
        <ele>922.715</ele>
        <time>2021-03-13T06:24:13Z</time>
      </trkpt>
      <trkpt lat="45.22548" lon="5.74101">
        <ele>920.936</ele>
        <time>2021-03-13T06:24:20Z</time>
      </trkpt>
      <trkpt lat="45.2253" lon="5.74106">
        <ele>919.754</ele>
        <time>2021-03-13T06:24:27Z</time>
      </trkpt>
      <trkpt lat="45.22525" lon="5.74105">
        <ele>918.819</ele>
        <time>2021-03-13T06:24:29Z</time>
      </trkpt>
      <trkpt lat="45.2252" lon="5.74106">
        <ele>918.75</ele>
        <time>2021-03-13T06:24:31Z</time>
      </trkpt>
      <trkpt lat="45.22501" lon="5.74111">
        <ele>916.053</ele>
        <time>2021-03-13T06:24:38Z</time>
      </trkpt>
      <trkpt lat="45.22481" lon="5.74112">
        <ele>914.016</ele>
        <time>2021-03-13T06:24:46Z</time>
      </trkpt>
      <trkpt lat="45.22462" lon="5.74101">
        <ele>911.866</ele>
        <time>2021-03-13T06:24:53Z</time>
      </trkpt>
      <trkpt lat="45.22446" lon="5.74095">
        <ele>909.533</ele>
        <time>2021-03-13T06:25:00Z</time>
      </trkpt>
      <trkpt lat="45.22433" lon="5.74087">
        <ele>907.935</ele>
        <time>2021-03-13T06:25:05Z</time>
      </trkpt>
      <trkpt lat="45.22419" lon="5.74082">
        <ele>906.021</ele>
        <time>2021-03-13T06:25:11Z</time>
      </trkpt>
      <trkpt lat="45.22407" lon="5.74075">
        <ele>905.405</ele>
        <time>2021-03-13T06:25:17Z</time>
      </trkpt>
      <trkpt lat="45.22395" lon="5.74073">
        <ele>904.557</ele>
        <time>2021-03-13T06:25:23Z</time>
      </trkpt>
      <trkpt lat="45.224" lon="5.74079">
        <ele>903.599</ele>
        <time>2021-03-13T06:25:29Z</time>
      </trkpt>
      <trkpt lat="45.22411" lon="5.74087">
        <ele>901.754</ele>
        <time>2021-03-13T06:25:34Z</time>
      </trkpt>
      <trkpt lat="45.22425" lon="5.74107">
        <ele>898.692</ele>
        <time>2021-03-13T06:25:41Z</time>
      </trkpt>
      <trkpt lat="45.22427" lon="5.74109">
        <ele>898.695</ele>
        <time>2021-03-13T06:25:42Z</time>
      </trkpt>
      <trkpt lat="45.22436" lon="5.74127">
        <ele>897.088</ele>
        <time>2021-03-13T06:25:48Z</time>
      </trkpt>
      <trkpt lat="45.22447" lon="5.74141">
        <ele>895.706</ele>
        <time>2021-03-13T06:25:54Z</time>
      </trkpt>
      <trkpt lat="45.22458" lon="5.74157">
        <ele>894.356</ele>
        <time>2021-03-13T06:26:00Z</time>
      </trkpt>
      <trkpt lat="45.22471" lon="5.74174">
        <ele>892.568</ele>
        <time>2021-03-13T06:26:07Z</time>
      </trkpt>
      <trkpt lat="45.22484" lon="5.74191">
        <ele>889.835</ele>
        <time>2021-03-13T06:26:14Z</time>
      </trkpt>
      <trkpt lat="45.22497" lon="5.74201">
        <ele>887.315</ele>
        <time>2021-03-13T06:26:22Z</time>
      </trkpt>
      <trkpt lat="45.22509" lon="5.74208">
        <ele>886.86</ele>
        <time>2021-03-13T06:26:27Z</time>
      </trkpt>
      <trkpt lat="45.22523" lon="5.74217">
        <ele>884.92</ele>
        <time>2021-03-13T06:26:32Z</time>
      </trkpt>
      <trkpt lat="45.22533" lon="5.74226">
        <ele>882.755</ele>
        <time>2021-03-13T06:26:38Z</time>
      </trkpt>
      <trkpt lat="45.22541" lon="5.7423">
        <ele>881.152</ele>
        <time>2021-03-13T06:26:41Z</time>
      </trkpt>
      <trkpt lat="45.22558" lon="5.74239">
        <ele>880.877</ele>
        <time>2021-03-13T06:26:48Z</time>
      </trkpt>
      <trkpt lat="45.22575" lon="5.74248">
        <ele>880.304</ele>
        <time>2021-03-13T06:26:53Z</time>
      </trkpt>
      <trkpt lat="45.22584" lon="5.74254">
        <ele>879.472</ele>
        <time>2021-03-13T06:26:57Z</time>
      </trkpt>
      <trkpt lat="45.22587" lon="5.74252">
        <ele>878.105</ele>
        <time>2021-03-13T06:27:00Z</time>
      </trkpt>
      <trkpt lat="45.22599" lon="5.74255">
        <ele>876.66</ele>
        <time>2021-03-13T06:27:05Z</time>
      </trkpt>
      <trkpt lat="45.22613" lon="5.74259">
        <ele>874.703</ele>
        <time>2021-03-13T06:27:11Z</time>
      </trkpt>
      <trkpt lat="45.22626" lon="5.74263">
        <ele>873.016</ele>
        <time>2021-03-13T06:27:17Z</time>
      </trkpt>
      <trkpt lat="45.2263" lon="5.74262">
        <ele>872.468</ele>
        <time>2021-03-13T06:27:19Z</time>
      </trkpt>
      <trkpt lat="45.22648" lon="5.74267">
        <ele>870.909</ele>
        <time>2021-03-13T06:27:25Z</time>
      </trkpt>
      <trkpt lat="45.22666" lon="5.74273">
        <ele>868.496</ele>
        <time>2021-03-13T06:27:31Z</time>
      </trkpt>
      <trkpt lat="45.22684" lon="5.74287">
        <ele>866.265</ele>
        <time>2021-03-13T06:27:39Z</time>
      </trkpt>
      <trkpt lat="45.22704" lon="5.74305">
        <ele>864.813</ele>
        <time>2021-03-13T06:27:46Z</time>
      </trkpt>
      <trkpt lat="45.22709" lon="5.74309">
        <ele>863.096</ele>
        <time>2021-03-13T06:27:49Z</time>
      </trkpt>
      <trkpt lat="45.22725" lon="5.74319">
        <ele>860.496</ele>
        <time>2021-03-13T06:27:58Z</time>
      </trkpt>
      <trkpt lat="45.22747" lon="5.7433">
        <ele>857.694</ele>
        <time>2021-03-13T06:28:05Z</time>
      </trkpt>
      <trkpt lat="45.22764" lon="5.74336">
        <ele>856.243</ele>
        <time>2021-03-13T06:28:11Z</time>
      </trkpt>
      <trkpt lat="45.22776" lon="5.74347">
        <ele>854.552</ele>
        <time>2021-03-13T06:28:16Z</time>
      </trkpt>
      <trkpt lat="45.22786" lon="5.74362">
        <ele>853.225</ele>
        <time>2021-03-13T06:28:22Z</time>
      </trkpt>
      <trkpt lat="45.22801" lon="5.74375">
        <ele>851.946</ele>
        <time>2021-03-13T06:28:28Z</time>
      </trkpt>
      <trkpt lat="45.22813" lon="5.74387">
        <ele>851.106</ele>
        <time>2021-03-13T06:28:34Z</time>
      </trkpt>
      <trkpt lat="45.22826" lon="5.74397">
        <ele>848.41</ele>
        <time>2021-03-13T06:28:39Z</time>
      </trkpt>
      <trkpt lat="45.2283" lon="5.744">
        <ele>847.749</ele>
        <time>2021-03-13T06:28:41Z</time>
      </trkpt>
      <trkpt lat="45.22844" lon="5.74406">
        <ele>845.901</ele>
        <time>2021-03-13T06:28:47Z</time>
      </trkpt>
      <trkpt lat="45.22853" lon="5.74412">
        <ele>844.545</ele>
        <time>2021-03-13T06:28:52Z</time>
      </trkpt>
      <trkpt lat="45.22867" lon="5.74423">
        <ele>843.181</ele>
        <time>2021-03-13T06:28:57Z</time>
      </trkpt>
      <trkpt lat="45.22881" lon="5.74432">
        <ele>841.283</ele>
        <time>2021-03-13T06:29:04Z</time>
      </trkpt>
      <trkpt lat="45.22887" lon="5.74436">
        <ele>840.481</ele>
        <time>2021-03-13T06:29:06Z</time>
      </trkpt>
      <trkpt lat="45.229" lon="5.74445">
        <ele>838.425</ele>
        <time>2021-03-13T06:29:12Z</time>
      </trkpt>
      <trkpt lat="45.22912" lon="5.74459">
        <ele>835.818</ele>
        <time>2021-03-13T06:29:18Z</time>
      </trkpt>
      <trkpt lat="45.22929" lon="5.74472">
        <ele>835.316</ele>
        <time>2021-03-13T06:29:25Z</time>
      </trkpt>
      <trkpt lat="45.22944" lon="5.74488">
        <ele>832.952</ele>
        <time>2021-03-13T06:29:32Z</time>
      </trkpt>
      <trkpt lat="45.2296" lon="5.74506">
        <ele>830.498</ele>
        <time>2021-03-13T06:29:38Z</time>
      </trkpt>
      <trkpt lat="45.22961" lon="5.74508">
        <ele>830.219</ele>
        <time>2021-03-13T06:29:39Z</time>
      </trkpt>
      <trkpt lat="45.22975" lon="5.74526">
        <ele>827.352</ele>
        <time>2021-03-13T06:29:46Z</time>
      </trkpt>
      <trkpt lat="45.22977" lon="5.74529">
        <ele>826.082</ele>
        <time>2021-03-13T06:29:48Z</time>
      </trkpt>
      <trkpt lat="45.22988" lon="5.74545">
        <ele>824.21</ele>
        <time>2021-03-13T06:29:54Z</time>
      </trkpt>
      <trkpt lat="45.23006" lon="5.74564">
        <ele>821.639</ele>
        <time>2021-03-13T06:30:01Z</time>
      </trkpt>
      <trkpt lat="45.2302" lon="5.74574">
        <ele>820.699</ele>
        <time>2021-03-13T06:30:06Z</time>
      </trkpt>
      <trkpt lat="45.23029" lon="5.74585">
        <ele>819.88</ele>
        <time>2021-03-13T06:30:10Z</time>
      </trkpt>
      <trkpt lat="45.2304" lon="5.74605">
        <ele>817.813</ele>
        <time>2021-03-13T06:30:17Z</time>
      </trkpt>
      <trkpt lat="45.23045" lon="5.74609">
        <ele>816.829</ele>
        <time>2021-03-13T06:30:19Z</time>
      </trkpt>
      <trkpt lat="45.23057" lon="5.74622">
        <ele>815.217</ele>
        <time>2021-03-13T06:30:25Z</time>
      </trkpt>
      <trkpt lat="45.23073" lon="5.74641">
        <ele>813.805</ele>
        <time>2021-03-13T06:30:33Z</time>
      </trkpt>
      <trkpt lat="45.23088" lon="5.74658">
        <ele>810.517</ele>
        <time>2021-03-13T06:30:40Z</time>
      </trkpt>
      <trkpt lat="45.23089" lon="5.74661">
        <ele>810.443</ele>
        <time>2021-03-13T06:30:41Z</time>
      </trkpt>
      <trkpt lat="45.23105" lon="5.74682">
        <ele>807.805</ele>
        <time>2021-03-13T06:30:48Z</time>
      </trkpt>
      <trkpt lat="45.23116" lon="5.74698">
        <ele>807.445</ele>
        <time>2021-03-13T06:30:53Z</time>
      </trkpt>
      <trkpt lat="45.2312" lon="5.74711">
        <ele>805.195</ele>
        <time>2021-03-13T06:30:57Z</time>
      </trkpt>
      <trkpt lat="45.23125" lon="5.74715">
        <ele>804.284</ele>
        <time>2021-03-13T06:30:59Z</time>
      </trkpt>
      <trkpt lat="45.23138" lon="5.74738">
        <ele>801.277</ele>
        <time>2021-03-13T06:31:07Z</time>
      </trkpt>
      <trkpt lat="45.23139" lon="5.74743">
        <ele>801.055</ele>
        <time>2021-03-13T06:31:08Z</time>
      </trkpt>
      <trkpt lat="45.23149" lon="5.74761">
        <ele>800.472</ele>
        <time>2021-03-13T06:31:14Z</time>
      </trkpt>
      <trkpt lat="45.23162" lon="5.74782">
        <ele>798.601</ele>
        <time>2021-03-13T06:31:20Z</time>
      </trkpt>
      <trkpt lat="45.2317" lon="5.748">
        <ele>796.831</ele>
        <time>2021-03-13T06:31:25Z</time>
      </trkpt>
      <trkpt lat="45.23178" lon="5.74819">
        <ele>795.358</ele>
        <time>2021-03-13T06:31:31Z</time>
      </trkpt>
      <trkpt lat="45.2319" lon="5.74834">
        <ele>793.517</ele>
        <time>2021-03-13T06:31:37Z</time>
      </trkpt>
      <trkpt lat="45.23192" lon="5.74842">
        <ele>793.296</ele>
        <time>2021-03-13T06:31:40Z</time>
      </trkpt>
      <trkpt lat="45.23196" lon="5.74844">
        <ele>791.911</ele>
        <time>2021-03-13T06:31:42Z</time>
      </trkpt>
      <trkpt lat="45.23207" lon="5.74853">
        <ele>790.25</ele>
        <time>2021-03-13T06:31:47Z</time>
      </trkpt>
      <trkpt lat="45.23223" lon="5.74862">
        <ele>787.946</ele>
        <time>2021-03-13T06:31:53Z</time>
      </trkpt>
      <trkpt lat="45.2323" lon="5.74883">
        <ele>787.141</ele>
        <time>2021-03-13T06:31:59Z</time>
      </trkpt>
      <trkpt lat="45.23237" lon="5.74902">
        <ele>785.009</ele>
        <time>2021-03-13T06:32:05Z</time>
      </trkpt>
      <trkpt lat="45.23248" lon="5.7491">
        <ele>783.691</ele>
        <time>2021-03-13T06:32:10Z</time>
      </trkpt>
      <trkpt lat="45.23255" lon="5.74922">
        <ele>782.185</ele>
        <time>2021-03-13T06:32:16Z</time>
      </trkpt>
      <trkpt lat="45.23273" lon="5.74943">
        <ele>780.214</ele>
        <time>2021-03-13T06:32:24Z</time>
      </trkpt>
      <trkpt lat="45.23287" lon="5.74961">
        <ele>778.92</ele>
        <time>2021-03-13T06:32:30Z</time>
      </trkpt>
      <trkpt lat="45.23295" lon="5.7498">
        <ele>777.321</ele>
        <time>2021-03-13T06:32:35Z</time>
      </trkpt>
      <trkpt lat="45.23302" lon="5.74996">
        <ele>775.977</ele>
        <time>2021-03-13T06:32:40Z</time>
      </trkpt>
      <trkpt lat="45.23311" lon="5.75014">
        <ele>774.77</ele>
        <time>2021-03-13T06:32:46Z</time>
      </trkpt>
      <trkpt lat="45.23316" lon="5.75031">
        <ele>772.054</ele>
        <time>2021-03-13T06:32:51Z</time>
      </trkpt>
      <trkpt lat="45.23324" lon="5.75052">
        <ele>770.41</ele>
        <time>2021-03-13T06:32:57Z</time>
      </trkpt>
      <trkpt lat="45.23326" lon="5.75071">
        <ele>768.523</ele>
        <time>2021-03-13T06:33:02Z</time>
      </trkpt>
      <trkpt lat="45.23321" lon="5.75102">
        <ele>767.81</ele>
        <time>2021-03-13T06:33:10Z</time>
      </trkpt>
      <trkpt lat="45.23321" lon="5.75105">
        <ele>767.549</ele>
        <time>2021-03-13T06:33:11Z</time>
      </trkpt>
      <trkpt lat="45.2332" lon="5.75104">
        <ele>767.905</ele>
        <time>2021-03-13T06:33:15Z</time>
      </trkpt>
      <trkpt lat="45.23336" lon="5.75102">
        <ele>768.951</ele>
        <time>2021-03-13T06:33:22Z</time>
      </trkpt>
      <trkpt lat="45.23342" lon="5.75096">
        <ele>770.387</ele>
        <time>2021-03-13T06:33:27Z</time>
      </trkpt>
      <trkpt lat="45.23345" lon="5.75091">
        <ele>770.498</ele>
        <time>2021-03-13T06:33:30Z</time>
      </trkpt>
      <trkpt lat="45.23361" lon="5.75099">
        <ele>772.047</ele>
        <time>2021-03-13T06:33:34Z</time>
      </trkpt>
      <trkpt lat="45.23379" lon="5.75098">
        <ele>772.531</ele>
        <time>2021-03-13T06:33:41Z</time>
      </trkpt>
      <trkpt lat="45.23397" lon="5.75099">
        <ele>774.533</ele>
        <time>2021-03-13T06:33:49Z</time>
      </trkpt>
      <trkpt lat="45.2341" lon="5.751">
        <ele>775.706</ele>
        <time>2021-03-13T06:33:54Z</time>
      </trkpt>
      <trkpt lat="45.23426" lon="5.75104">
        <ele>776.284</ele>
        <time>2021-03-13T06:34:00Z</time>
      </trkpt>
      <trkpt lat="45.23441" lon="5.75104">
        <ele>777.554</ele>
        <time>2021-03-13T06:34:06Z</time>
      </trkpt>
      <trkpt lat="45.23457" lon="5.75091">
        <ele>778.724</ele>
        <time>2021-03-13T06:34:14Z</time>
      </trkpt>
      <trkpt lat="45.23472" lon="5.75083">
        <ele>779.938</ele>
        <time>2021-03-13T06:34:21Z</time>
      </trkpt>
      <trkpt lat="45.23479" lon="5.75088">
        <ele>780.5</ele>
        <time>2021-03-13T06:34:26Z</time>
      </trkpt>
      <trkpt lat="45.23473" lon="5.75092">
        <ele>779.034</ele>
        <time>2021-03-13T06:34:29Z</time>
      </trkpt>
      <trkpt lat="45.2346" lon="5.75103">
        <ele>778.489</ele>
        <time>2021-03-13T06:34:35Z</time>
      </trkpt>
      <trkpt lat="45.23454" lon="5.75106">
        <ele>777.663</ele>
        <time>2021-03-13T06:34:37Z</time>
      </trkpt>
      <trkpt lat="45.23438" lon="5.75112">
        <ele>777.327</ele>
        <time>2021-03-13T06:34:43Z</time>
      </trkpt>
      <trkpt lat="45.23422" lon="5.75115">
        <ele>775.578</ele>
        <time>2021-03-13T06:34:49Z</time>
      </trkpt>
      <trkpt lat="45.23404" lon="5.75114">
        <ele>774.79</ele>
        <time>2021-03-13T06:34:55Z</time>
      </trkpt>
      <trkpt lat="45.23384" lon="5.7511">
        <ele>773.282</ele>
        <time>2021-03-13T06:35:02Z</time>
      </trkpt>
      <trkpt lat="45.23361" lon="5.75107">
        <ele>772.342</ele>
        <time>2021-03-13T06:35:09Z</time>
      </trkpt>
      <trkpt lat="45.23339" lon="5.75107">
        <ele>770.497</ele>
        <time>2021-03-13T06:35:16Z</time>
      </trkpt>
      <trkpt lat="45.23338" lon="5.75104">
        <ele>771.29</ele>
        <time>2021-03-13T06:35:21Z</time>
      </trkpt>
      <trkpt lat="45.23342" lon="5.75112">
        <ele>771.862</ele>
        <time>2021-03-13T06:35:24Z</time>
      </trkpt>
      <trkpt lat="45.23336" lon="5.75118">
        <ele>773.029</ele>
        <time>2021-03-13T06:35:28Z</time>
      </trkpt>
      <trkpt lat="45.23325" lon="5.75136">
        <ele>774.623</ele>
        <time>2021-03-13T06:35:36Z</time>
      </trkpt>
      <trkpt lat="45.23312" lon="5.75135">
        <ele>774.453</ele>
        <time>2021-03-13T06:35:40Z</time>
      </trkpt>
      <trkpt lat="45.23307" lon="5.75138">
        <ele>773.891</ele>
        <time>2021-03-13T06:35:46Z</time>
      </trkpt>
      <trkpt lat="45.23289" lon="5.75138">
        <ele>770.77</ele>
        <time>2021-03-13T06:35:54Z</time>
      </trkpt>
      <trkpt lat="45.23277" lon="5.75137">
        <ele>769.135</ele>
        <time>2021-03-13T06:36:00Z</time>
      </trkpt>
      <trkpt lat="45.23257" lon="5.75139">
        <ele>766.866</ele>
        <time>2021-03-13T06:36:07Z</time>
      </trkpt>
      <trkpt lat="45.23242" lon="5.75141">
        <ele>766.16</ele>
        <time>2021-03-13T06:36:15Z</time>
      </trkpt>
      <trkpt lat="45.23234" lon="5.75152">
        <ele>766.95</ele>
        <time>2021-03-13T06:36:22Z</time>
      </trkpt>
      <trkpt lat="45.23229" lon="5.75161">
        <ele>768.299</ele>
        <time>2021-03-13T06:36:27Z</time>
      </trkpt>
      <trkpt lat="45.23216" lon="5.75164">
        <ele>767.577</ele>
        <time>2021-03-13T06:36:33Z</time>
      </trkpt>
      <trkpt lat="45.23207" lon="5.75173">
        <ele>767.763</ele>
        <time>2021-03-13T06:36:38Z</time>
      </trkpt>
      <trkpt lat="45.23191" lon="5.75186">
        <ele>767.551</ele>
        <time>2021-03-13T06:36:46Z</time>
      </trkpt>
      <trkpt lat="45.23186" lon="5.75188">
        <ele>767.474</ele>
        <time>2021-03-13T06:36:48Z</time>
      </trkpt>
      <trkpt lat="45.23187" lon="5.752">
        <ele>767.922</ele>
        <time>2021-03-13T06:36:52Z</time>
      </trkpt>
      <trkpt lat="45.23189" lon="5.7521">
        <ele>769.761</ele>
        <time>2021-03-13T06:36:57Z</time>
      </trkpt>
      <trkpt lat="45.23188" lon="5.75218">
        <ele>770.244</ele>
        <time>2021-03-13T06:37:03Z</time>
      </trkpt>
      <trkpt lat="45.23186" lon="5.75218">
        <ele>770.486</ele>
        <time>2021-03-13T06:37:04Z</time>
      </trkpt>
      <trkpt lat="45.23178" lon="5.75226">
        <ele>769.718</ele>
        <time>2021-03-13T06:37:09Z</time>
      </trkpt>
      <trkpt lat="45.23177" lon="5.75233">
        <ele>770.58</ele>
        <time>2021-03-13T06:37:12Z</time>
      </trkpt>
      <trkpt lat="45.23176" lon="5.75223">
        <ele>770.633</ele>
        <time>2021-03-13T06:37:24Z</time>
      </trkpt>
      <trkpt lat="45.23181" lon="5.75216">
        <ele>769.161</ele>
        <time>2021-03-13T06:37:27Z</time>
      </trkpt>
      <trkpt lat="45.23184" lon="5.75217">
        <ele>770.448</ele>
        <time>2021-03-13T06:37:29Z</time>
      </trkpt>
      <trkpt lat="45.23186" lon="5.75214">
        <ele>770.064</ele>
        <time>2021-03-13T06:37:32Z</time>
      </trkpt>
      <trkpt lat="45.23197" lon="5.75197">
        <ele>771.789</ele>
        <time>2021-03-13T06:37:40Z</time>
      </trkpt>
      <trkpt lat="45.23208" lon="5.75185">
        <ele>773.219</ele>
        <time>2021-03-13T06:37:48Z</time>
      </trkpt>
      <trkpt lat="45.23218" lon="5.75178">
        <ele>774.502</ele>
        <time>2021-03-13T06:37:54Z</time>
      </trkpt>
      <trkpt lat="45.23224" lon="5.75177">
        <ele>776.119</ele>
        <time>2021-03-13T06:37:58Z</time>
      </trkpt>
      <trkpt lat="45.23238" lon="5.75177">
        <ele>776.409</ele>
        <time>2021-03-13T06:38:04Z</time>
      </trkpt>
      <trkpt lat="45.23252" lon="5.75175">
        <ele>776.363</ele>
        <time>2021-03-13T06:38:11Z</time>
      </trkpt>
      <trkpt lat="45.23265" lon="5.7517">
        <ele>777.483</ele>
        <time>2021-03-13T06:38:18Z</time>
      </trkpt>
      <trkpt lat="45.23278" lon="5.75167">
        <ele>778.149</ele>
        <time>2021-03-13T06:38:25Z</time>
      </trkpt>
      <trkpt lat="45.2329" lon="5.75157">
        <ele>779.418</ele>
        <time>2021-03-13T06:38:34Z</time>
      </trkpt>
      <trkpt lat="45.23303" lon="5.75156">
        <ele>781.004</ele>
        <time>2021-03-13T06:38:42Z</time>
      </trkpt>
      <trkpt lat="45.2332" lon="5.75152">
        <ele>781.402</ele>
        <time>2021-03-13T06:38:50Z</time>
      </trkpt>
      <trkpt lat="45.23336" lon="5.75148">
        <ele>782.009</ele>
        <time>2021-03-13T06:38:57Z</time>
      </trkpt>
      <trkpt lat="45.23352" lon="5.75146">
        <ele>782.561</ele>
        <time>2021-03-13T06:39:04Z</time>
      </trkpt>
      <trkpt lat="45.23363" lon="5.75139">
        <ele>784.329</ele>
        <time>2021-03-13T06:39:12Z</time>
      </trkpt>
      <trkpt lat="45.23374" lon="5.7514">
        <ele>785.123</ele>
        <time>2021-03-13T06:39:18Z</time>
      </trkpt>
      <trkpt lat="45.23378" lon="5.75133">
        <ele>783.68</ele>
        <time>2021-03-13T06:39:22Z</time>
      </trkpt>
      <trkpt lat="45.23379" lon="5.75132">
        <ele>783.718</ele>
        <time>2021-03-13T06:39:23Z</time>
      </trkpt>
      <trkpt lat="45.23385" lon="5.75127">
        <ele>781.48</ele>
        <time>2021-03-13T06:39:27Z</time>
      </trkpt>
      <trkpt lat="45.23404" lon="5.75123">
        <ele>778.692</ele>
        <time>2021-03-13T06:39:35Z</time>
      </trkpt>
      <trkpt lat="45.23412" lon="5.75127">
        <ele>779.375</ele>
        <time>2021-03-13T06:39:39Z</time>
      </trkpt>
      <trkpt lat="45.2343" lon="5.75127">
        <ele>779.344</ele>
        <time>2021-03-13T06:39:45Z</time>
      </trkpt>
      <trkpt lat="45.23442" lon="5.7512">
        <ele>779.435</ele>
        <time>2021-03-13T06:39:51Z</time>
      </trkpt>
      <trkpt lat="45.23453" lon="5.7511">
        <ele>780.327</ele>
        <time>2021-03-13T06:39:58Z</time>
      </trkpt>
      <trkpt lat="45.23465" lon="5.75107">
        <ele>780.94</ele>
        <time>2021-03-13T06:40:04Z</time>
      </trkpt>
      <trkpt lat="45.23472" lon="5.75102">
        <ele>782.817</ele>
        <time>2021-03-13T06:40:10Z</time>
      </trkpt>
      <trkpt lat="45.23478" lon="5.75103">
        <ele>783.951</ele>
        <time>2021-03-13T06:40:14Z</time>
      </trkpt>
      <trkpt lat="45.23484" lon="5.75102">
        <ele>785.379</ele>
        <time>2021-03-13T06:40:18Z</time>
      </trkpt>
      <trkpt lat="45.23492" lon="5.751">
        <ele>786.853</ele>
        <time>2021-03-13T06:40:24Z</time>
      </trkpt>
      <trkpt lat="45.23493" lon="5.75098">
        <ele>787.65</ele>
        <time>2021-03-13T06:40:25Z</time>
      </trkpt>
      <trkpt lat="45.23503" lon="5.75094">
        <ele>787.746</ele>
        <time>2021-03-13T06:40:32Z</time>
      </trkpt>
      <trkpt lat="45.23516" lon="5.75094">
        <ele>789.561</ele>
        <time>2021-03-13T06:40:39Z</time>
      </trkpt>
      <trkpt lat="45.23522" lon="5.75093">
        <ele>790.387</ele>
        <time>2021-03-13T06:40:44Z</time>
      </trkpt>
      <trkpt lat="45.23528" lon="5.75093">
        <ele>791.009</ele>
        <time>2021-03-13T06:40:48Z</time>
      </trkpt>
      <trkpt lat="45.23532" lon="5.75095">
        <ele>792.108</ele>
        <time>2021-03-13T06:40:55Z</time>
      </trkpt>
      <trkpt lat="45.23532" lon="5.75108">
        <ele>795.325</ele>
        <time>2021-03-13T06:41:05Z</time>
      </trkpt>
      <trkpt lat="45.23528" lon="5.751">
        <ele>797.646</ele>
        <time>2021-03-13T06:41:12Z</time>
      </trkpt>
      <trkpt lat="45.23538" lon="5.75113">
        <ele>801.461</ele>
        <time>2021-03-13T06:41:25Z</time>
      </trkpt>
      <trkpt lat="45.23537" lon="5.75113">
        <ele>801.579</ele>
        <time>2021-03-13T06:41:26Z</time>
      </trkpt>
      <trkpt lat="45.23542" lon="5.75121">
        <ele>804.027</ele>
        <time>2021-03-13T06:41:33Z</time>
      </trkpt>
      <trkpt lat="45.2354" lon="5.75128">
        <ele>804.644</ele>
        <time>2021-03-13T06:41:37Z</time>
      </trkpt>
      <trkpt lat="45.23543" lon="5.75135">
        <ele>806.35</ele>
        <time>2021-03-13T06:41:41Z</time>
      </trkpt>
      <trkpt lat="45.23544" lon="5.75138">
        <ele>805.729</ele>
        <time>2021-03-13T06:41:42Z</time>
      </trkpt>
      <trkpt lat="45.23544" lon="5.75156">
        <ele>806.6</ele>
        <time>2021-03-13T06:41:46Z</time>
      </trkpt>
      <trkpt lat="45.23544" lon="5.75162">
        <ele>808.103</ele>
        <time>2021-03-13T06:41:48Z</time>
      </trkpt>
      <trkpt lat="45.23538" lon="5.75164">
        <ele>811.096</ele>
        <time>2021-03-13T06:41:52Z</time>
      </trkpt>
      <trkpt lat="45.23527" lon="5.75164">
        <ele>811.727</ele>
        <time>2021-03-13T06:41:59Z</time>
      </trkpt>
      <trkpt lat="45.23522" lon="5.75164">
        <ele>813.031</ele>
        <time>2021-03-13T06:42:03Z</time>
      </trkpt>
      <trkpt lat="45.23519" lon="5.75171">
        <ele>814.183</ele>
        <time>2021-03-13T06:42:09Z</time>
      </trkpt>
      <trkpt lat="45.23516" lon="5.75175">
        <ele>815.12</ele>
        <time>2021-03-13T06:42:16Z</time>
      </trkpt>
      <trkpt lat="45.2351" lon="5.75179">
        <ele>816.651</ele>
        <time>2021-03-13T06:42:21Z</time>
      </trkpt>
      <trkpt lat="45.23506" lon="5.75181">
        <ele>817.624</ele>
        <time>2021-03-13T06:42:25Z</time>
      </trkpt>
      <trkpt lat="45.23501" lon="5.75187">
        <ele>819.841</ele>
        <time>2021-03-13T06:42:30Z</time>
      </trkpt>
      <trkpt lat="45.23495" lon="5.75193">
        <ele>821.184</ele>
        <time>2021-03-13T06:42:36Z</time>
      </trkpt>
      <trkpt lat="45.23493" lon="5.75201">
        <ele>821.969</ele>
        <time>2021-03-13T06:42:41Z</time>
      </trkpt>
      <trkpt lat="45.23483" lon="5.75208">
        <ele>824.576</ele>
        <time>2021-03-13T06:42:48Z</time>
      </trkpt>
      <trkpt lat="45.23472" lon="5.75219">
        <ele>827.31</ele>
        <time>2021-03-13T06:42:55Z</time>
      </trkpt>
      <trkpt lat="45.23466" lon="5.75225">
        <ele>828.481</ele>
        <time>2021-03-13T06:43:02Z</time>
      </trkpt>
      <trkpt lat="45.23458" lon="5.75236">
        <ele>831.099</ele>
        <time>2021-03-13T06:43:09Z</time>
      </trkpt>
      <trkpt lat="45.23457" lon="5.75238">
        <ele>832.828</ele>
        <time>2021-03-13T06:43:13Z</time>
      </trkpt>
      <trkpt lat="45.23456" lon="5.75244">
        <ele>834.05</ele>
        <time>2021-03-13T06:43:18Z</time>
      </trkpt>
      <trkpt lat="45.23453" lon="5.75252">
        <ele>835.43</ele>
        <time>2021-03-13T06:43:24Z</time>
      </trkpt>
      <trkpt lat="45.23452" lon="5.75254">
        <ele>836.107</ele>
        <time>2021-03-13T06:43:25Z</time>
      </trkpt>
      <trkpt lat="45.23446" lon="5.75266">
        <ele>837.052</ele>
        <time>2021-03-13T06:43:30Z</time>
      </trkpt>
      <trkpt lat="45.23438" lon="5.75273">
        <ele>838.3</ele>
        <time>2021-03-13T06:43:34Z</time>
      </trkpt>
      <trkpt lat="45.2343" lon="5.75281">
        <ele>839.941</ele>
        <time>2021-03-13T06:43:40Z</time>
      </trkpt>
      <trkpt lat="45.23432" lon="5.75287">
        <ele>842.018</ele>
        <time>2021-03-13T06:43:46Z</time>
      </trkpt>
      <trkpt lat="45.23432" lon="5.7529">
        <ele>843.22</ele>
        <time>2021-03-13T06:43:48Z</time>
      </trkpt>
      <trkpt lat="45.23427" lon="5.75293">
        <ele>845.511</ele>
        <time>2021-03-13T06:43:53Z</time>
      </trkpt>
      <trkpt lat="45.23425" lon="5.75298">
        <ele>846.206</ele>
        <time>2021-03-13T06:43:55Z</time>
      </trkpt>
      <trkpt lat="45.23427" lon="5.75306">
        <ele>847.562</ele>
        <time>2021-03-13T06:44:00Z</time>
      </trkpt>
      <trkpt lat="45.23425" lon="5.75313">
        <ele>848.902</ele>
        <time>2021-03-13T06:44:06Z</time>
      </trkpt>
      <trkpt lat="45.23425" lon="5.75331">
        <ele>850.21</ele>
        <time>2021-03-13T06:44:15Z</time>
      </trkpt>
      <trkpt lat="45.2342" lon="5.7533">
        <ele>851.724</ele>
        <time>2021-03-13T06:44:21Z</time>
      </trkpt>
      <trkpt lat="45.23415" lon="5.7533">
        <ele>852.888</ele>
        <time>2021-03-13T06:44:23Z</time>
      </trkpt>
      <trkpt lat="45.23413" lon="5.75333">
        <ele>853.533</ele>
        <time>2021-03-13T06:44:25Z</time>
      </trkpt>
      <trkpt lat="45.23402" lon="5.75339">
        <ele>854.655</ele>
        <time>2021-03-13T06:44:31Z</time>
      </trkpt>
      <trkpt lat="45.23396" lon="5.75342">
        <ele>855.852</ele>
        <time>2021-03-13T06:44:36Z</time>
      </trkpt>
      <trkpt lat="45.23383" lon="5.75347">
        <ele>858.219</ele>
        <time>2021-03-13T06:44:46Z</time>
      </trkpt>
      <trkpt lat="45.23376" lon="5.75352">
        <ele>859.982</ele>
        <time>2021-03-13T06:44:53Z</time>
      </trkpt>
      <trkpt lat="45.23369" lon="5.75354">
        <ele>863.256</ele>
        <time>2021-03-13T06:45:00Z</time>
      </trkpt>
      <trkpt lat="45.23362" lon="5.75356">
        <ele>865.361</ele>
        <time>2021-03-13T06:45:08Z</time>
      </trkpt>
      <trkpt lat="45.2336" lon="5.75359">
        <ele>865.864</ele>
        <time>2021-03-13T06:45:10Z</time>
      </trkpt>
      <trkpt lat="45.23354" lon="5.75365">
        <ele>867.501</ele>
        <time>2021-03-13T06:45:16Z</time>
      </trkpt>
      <trkpt lat="45.23345" lon="5.7537">
        <ele>868.263</ele>
        <time>2021-03-13T06:45:23Z</time>
      </trkpt>
      <trkpt lat="45.2334" lon="5.75377">
        <ele>870.073</ele>
        <time>2021-03-13T06:45:29Z</time>
      </trkpt>
      <trkpt lat="45.23333" lon="5.75379">
        <ele>871.178</ele>
        <time>2021-03-13T06:45:34Z</time>
      </trkpt>
      <trkpt lat="45.2333" lon="5.75379">
        <ele>871.907</ele>
        <time>2021-03-13T06:45:37Z</time>
      </trkpt>
      <trkpt lat="45.23325" lon="5.75393">
        <ele>873.67</ele>
        <time>2021-03-13T06:45:44Z</time>
      </trkpt>
      <trkpt lat="45.23319" lon="5.75398">
        <ele>875.667</ele>
        <time>2021-03-13T06:45:49Z</time>
      </trkpt>
      <trkpt lat="45.23315" lon="5.75403">
        <ele>876.75</ele>
        <time>2021-03-13T06:45:53Z</time>
      </trkpt>
      <trkpt lat="45.2331" lon="5.75407">
        <ele>877.407</ele>
        <time>2021-03-13T06:45:57Z</time>
      </trkpt>
      <trkpt lat="45.23306" lon="5.75414">
        <ele>878.901</ele>
        <time>2021-03-13T06:46:02Z</time>
      </trkpt>
      <trkpt lat="45.23307" lon="5.75426">
        <ele>880.506</ele>
        <time>2021-03-13T06:46:08Z</time>
      </trkpt>
      <trkpt lat="45.23304" lon="5.75437">
        <ele>883.547</ele>
        <time>2021-03-13T06:46:16Z</time>
      </trkpt>
      <trkpt lat="45.233" lon="5.75441">
        <ele>883.89</ele>
        <time>2021-03-13T06:46:19Z</time>
      </trkpt>
      <trkpt lat="45.23289" lon="5.75447">
        <ele>886.45</ele>
        <time>2021-03-13T06:46:26Z</time>
      </trkpt>
      <trkpt lat="45.23288" lon="5.7545">
        <ele>887.548</ele>
        <time>2021-03-13T06:46:28Z</time>
      </trkpt>
      <trkpt lat="45.23286" lon="5.75452">
        <ele>887.873</ele>
        <time>2021-03-13T06:46:30Z</time>
      </trkpt>
      <trkpt lat="45.23285" lon="5.75461">
        <ele>888.676</ele>
        <time>2021-03-13T06:46:36Z</time>
      </trkpt>
      <trkpt lat="45.23281" lon="5.75469">
        <ele>890.776</ele>
        <time>2021-03-13T06:46:42Z</time>
      </trkpt>
      <trkpt lat="45.23278" lon="5.75476">
        <ele>891.437</ele>
        <time>2021-03-13T06:46:46Z</time>
      </trkpt>
      <trkpt lat="45.23273" lon="5.75483">
        <ele>892.743</ele>
        <time>2021-03-13T06:46:52Z</time>
      </trkpt>
      <trkpt lat="45.23271" lon="5.75488">
        <ele>894.496</ele>
        <time>2021-03-13T06:46:58Z</time>
      </trkpt>
      <trkpt lat="45.23267" lon="5.75483">
        <ele>894.612</ele>
        <time>2021-03-13T06:47:10Z</time>
      </trkpt>
      <trkpt lat="45.23268" lon="5.75483">
        <ele>894.321</ele>
        <time>2021-03-13T06:47:11Z</time>
      </trkpt>
      <trkpt lat="45.23278" lon="5.75482">
        <ele>896.118</ele>
        <time>2021-03-13T06:47:19Z</time>
      </trkpt>
      <trkpt lat="45.23284" lon="5.75482">
        <ele>897.314</ele>
        <time>2021-03-13T06:47:25Z</time>
      </trkpt>
      <trkpt lat="45.23292" lon="5.75481">
        <ele>897.288</ele>
        <time>2021-03-13T06:47:33Z</time>
      </trkpt>
      <trkpt lat="45.23296" lon="5.75481">
        <ele>897.325</ele>
        <time>2021-03-13T06:47:36Z</time>
      </trkpt>
      <trkpt lat="45.23299" lon="5.75473">
        <ele>898.957</ele>
        <time>2021-03-13T06:47:41Z</time>
      </trkpt>
      <trkpt lat="45.23303" lon="5.7547">
        <ele>899.976</ele>
        <time>2021-03-13T06:47:44Z</time>
      </trkpt>
      <trkpt lat="45.23304" lon="5.75469">
        <ele>900.723</ele>
        <time>2021-03-13T06:47:46Z</time>
      </trkpt>
      <trkpt lat="45.23309" lon="5.75467">
        <ele>902.467</ele>
        <time>2021-03-13T06:47:52Z</time>
      </trkpt>
      <trkpt lat="45.23316" lon="5.75465">
        <ele>903.821</ele>
        <time>2021-03-13T06:47:58Z</time>
      </trkpt>
      <trkpt lat="45.23324" lon="5.75463">
        <ele>905.708</ele>
        <time>2021-03-13T06:48:06Z</time>
      </trkpt>
      <trkpt lat="45.23331" lon="5.75463">
        <ele>908.595</ele>
        <time>2021-03-13T06:48:12Z</time>
      </trkpt>
      <trkpt lat="45.2333" lon="5.75465">
        <ele>908.338</ele>
        <time>2021-03-13T06:48:18Z</time>
      </trkpt>
      <trkpt lat="45.23323" lon="5.75471">
        <ele>906.602</ele>
        <time>2021-03-13T06:48:28Z</time>
      </trkpt>
      <trkpt lat="45.23321" lon="5.75471">
        <ele>905.513</ele>
        <time>2021-03-13T06:48:29Z</time>
      </trkpt>
      <trkpt lat="45.23314" lon="5.75473">
        <ele>903.628</ele>
        <time>2021-03-13T06:48:33Z</time>
      </trkpt>
      <trkpt lat="45.23312" lon="5.75475">
        <ele>902.967</ele>
        <time>2021-03-13T06:48:35Z</time>
      </trkpt>
      <trkpt lat="45.23303" lon="5.75479">
        <ele>900.95</ele>
        <time>2021-03-13T06:48:42Z</time>
      </trkpt>
      <trkpt lat="45.23296" lon="5.75485">
        <ele>899.099</ele>
        <time>2021-03-13T06:48:48Z</time>
      </trkpt>
      <trkpt lat="45.2329" lon="5.75487">
        <ele>897.497</ele>
        <time>2021-03-13T06:48:52Z</time>
      </trkpt>
      <trkpt lat="45.23282" lon="5.75487">
        <ele>895.092</ele>
        <time>2021-03-13T06:48:58Z</time>
      </trkpt>
      <trkpt lat="45.23271" lon="5.75488">
        <ele>891.872</ele>
        <time>2021-03-13T06:49:05Z</time>
      </trkpt>
      <trkpt lat="45.23271" lon="5.75487">
        <ele>891.577</ele>
        <time>2021-03-13T06:49:06Z</time>
      </trkpt>
      <trkpt lat="45.23278" lon="5.75477">
        <ele>890.686</ele>
        <time>2021-03-13T06:49:13Z</time>
      </trkpt>
      <trkpt lat="45.23282" lon="5.75468">
        <ele>889.626</ele>
        <time>2021-03-13T06:49:19Z</time>
      </trkpt>
      <trkpt lat="45.23282" lon="5.75466">
        <ele>889.421</ele>
        <time>2021-03-13T06:49:20Z</time>
      </trkpt>
      <trkpt lat="45.23284" lon="5.75453">
        <ele>886.799</ele>
        <time>2021-03-13T06:49:26Z</time>
      </trkpt>
      <trkpt lat="45.23289" lon="5.75447">
        <ele>884.873</ele>
        <time>2021-03-13T06:49:30Z</time>
      </trkpt>
      <trkpt lat="45.23291" lon="5.75443">
        <ele>883.889</ele>
        <time>2021-03-13T06:49:32Z</time>
      </trkpt>
      <trkpt lat="45.233" lon="5.75427">
        <ele>880.68</ele>
        <time>2021-03-13T06:49:41Z</time>
      </trkpt>
      <trkpt lat="45.23302" lon="5.75417">
        <ele>880.044</ele>
        <time>2021-03-13T06:49:44Z</time>
      </trkpt>
      <trkpt lat="45.23308" lon="5.75403">
        <ele>877.925</ele>
        <time>2021-03-13T06:49:50Z</time>
      </trkpt>
      <trkpt lat="45.23317" lon="5.75394">
        <ele>875.926</ele>
        <time>2021-03-13T06:49:54Z</time>
      </trkpt>
      <trkpt lat="45.23324" lon="5.75387">
        <ele>873.736</ele>
        <time>2021-03-13T06:49:58Z</time>
      </trkpt>
      <trkpt lat="45.23325" lon="5.75385">
        <ele>873.434</ele>
        <time>2021-03-13T06:50:00Z</time>
      </trkpt>
      <trkpt lat="45.23328" lon="5.75378">
        <ele>872.076</ele>
        <time>2021-03-13T06:50:05Z</time>
      </trkpt>
      <trkpt lat="45.2333" lon="5.75374">
        <ele>871.171</ele>
        <time>2021-03-13T06:50:07Z</time>
      </trkpt>
      <trkpt lat="45.23333" lon="5.7537">
        <ele>870.315</ele>
        <time>2021-03-13T06:50:09Z</time>
      </trkpt>
      <trkpt lat="45.23336" lon="5.75368">
        <ele>869.524</ele>
        <time>2021-03-13T06:50:11Z</time>
      </trkpt>
      <trkpt lat="45.23343" lon="5.75363">
        <ele>867.669</ele>
        <time>2021-03-13T06:50:16Z</time>
      </trkpt>
      <trkpt lat="45.23359" lon="5.75359">
        <ele>866.15</ele>
        <time>2021-03-13T06:50:22Z</time>
      </trkpt>
      <trkpt lat="45.2337" lon="5.7535">
        <ele>862.861</ele>
        <time>2021-03-13T06:50:29Z</time>
      </trkpt>
      <trkpt lat="45.2337" lon="5.75349">
        <ele>862.673</ele>
        <time>2021-03-13T06:50:30Z</time>
      </trkpt>
      <trkpt lat="45.2337" lon="5.75347">
        <ele>861.986</ele>
        <time>2021-03-13T06:50:31Z</time>
      </trkpt>
      <trkpt lat="45.23379" lon="5.75341">
        <ele>859.125</ele>
        <time>2021-03-13T06:50:39Z</time>
      </trkpt>
      <trkpt lat="45.23383" lon="5.7534">
        <ele>858.03</ele>
        <time>2021-03-13T06:50:41Z</time>
      </trkpt>
      <trkpt lat="45.23391" lon="5.75338">
        <ele>856.797</ele>
        <time>2021-03-13T06:50:44Z</time>
      </trkpt>
      <trkpt lat="45.23403" lon="5.75329">
        <ele>855.765</ele>
        <time>2021-03-13T06:50:51Z</time>
      </trkpt>
      <trkpt lat="45.23405" lon="5.75326">
        <ele>854.056</ele>
        <time>2021-03-13T06:50:53Z</time>
      </trkpt>
      <trkpt lat="45.23409" lon="5.75323">
        <ele>853.267</ele>
        <time>2021-03-13T06:50:55Z</time>
      </trkpt>
      <trkpt lat="45.2342" lon="5.75315">
        <ele>849.947</ele>
        <time>2021-03-13T06:51:01Z</time>
      </trkpt>
      <trkpt lat="45.23421" lon="5.75313">
        <ele>849.681</ele>
        <time>2021-03-13T06:51:02Z</time>
      </trkpt>
      <trkpt lat="45.23417" lon="5.75302">
        <ele>847.152</ele>
        <time>2021-03-13T06:51:08Z</time>
      </trkpt>
      <trkpt lat="45.23413" lon="5.75291">
        <ele>845.378</ele>
        <time>2021-03-13T06:51:14Z</time>
      </trkpt>
      <trkpt lat="45.23418" lon="5.75281">
        <ele>843.142</ele>
        <time>2021-03-13T06:51:19Z</time>
      </trkpt>
      <trkpt lat="45.23424" lon="5.75272">
        <ele>840.954</ele>
        <time>2021-03-13T06:51:23Z</time>
      </trkpt>
      <trkpt lat="45.23429" lon="5.75267">
        <ele>839.247</ele>
        <time>2021-03-13T06:51:26Z</time>
      </trkpt>
      <trkpt lat="45.23437" lon="5.75254">
        <ele>837.246</ele>
        <time>2021-03-13T06:51:32Z</time>
      </trkpt>
      <trkpt lat="45.23444" lon="5.7524">
        <ele>835.563</ele>
        <time>2021-03-13T06:51:38Z</time>
      </trkpt>
      <trkpt lat="45.23446" lon="5.75227">
        <ele>833.195</ele>
        <time>2021-03-13T06:51:43Z</time>
      </trkpt>
      <trkpt lat="45.23451" lon="5.75221">
        <ele>830.731</ele>
        <time>2021-03-13T06:51:47Z</time>
      </trkpt>
      <trkpt lat="45.23455" lon="5.75214">
        <ele>829.973</ele>
        <time>2021-03-13T06:51:50Z</time>
      </trkpt>
      <trkpt lat="45.2346" lon="5.75209">
        <ele>828.044</ele>
        <time>2021-03-13T06:51:52Z</time>
      </trkpt>
      <trkpt lat="45.23466" lon="5.75206">
        <ele>826.981</ele>
        <time>2021-03-13T06:51:54Z</time>
      </trkpt>
      <trkpt lat="45.23474" lon="5.75201">
        <ele>824.811</ele>
        <time>2021-03-13T06:51:58Z</time>
      </trkpt>
      <trkpt lat="45.23475" lon="5.752">
        <ele>824.666</ele>
        <time>2021-03-13T06:51:59Z</time>
      </trkpt>
      <trkpt lat="45.23487" lon="5.7519">
        <ele>822.201</ele>
        <time>2021-03-13T06:52:05Z</time>
      </trkpt>
      <trkpt lat="45.2349" lon="5.75188">
        <ele>821.261</ele>
        <time>2021-03-13T06:52:07Z</time>
      </trkpt>
      <trkpt lat="45.23497" lon="5.75178">
        <ele>820.143</ele>
        <time>2021-03-13T06:52:13Z</time>
      </trkpt>
      <trkpt lat="45.23509" lon="5.7517">
        <ele>815.963</ele>
        <time>2021-03-13T06:52:21Z</time>
      </trkpt>
      <trkpt lat="45.23518" lon="5.75161">
        <ele>814.243</ele>
        <time>2021-03-13T06:52:26Z</time>
      </trkpt>
      <trkpt lat="45.23529" lon="5.75149">
        <ele>811.415</ele>
        <time>2021-03-13T06:52:33Z</time>
      </trkpt>
      <trkpt lat="45.23534" lon="5.75145">
        <ele>809.671</ele>
        <time>2021-03-13T06:52:37Z</time>
      </trkpt>
      <trkpt lat="45.23545" lon="5.7514">
        <ele>807.565</ele>
        <time>2021-03-13T06:52:42Z</time>
      </trkpt>
      <trkpt lat="45.2356" lon="5.75133">
        <ele>804.325</ele>
        <time>2021-03-13T06:52:49Z</time>
      </trkpt>
      <trkpt lat="45.2357" lon="5.75129">
        <ele>801.724</ele>
        <time>2021-03-13T06:52:55Z</time>
      </trkpt>
      <trkpt lat="45.23572" lon="5.75127">
        <ele>800.6</ele>
        <time>2021-03-13T06:52:56Z</time>
      </trkpt>
      <trkpt lat="45.23588" lon="5.75132">
        <ele>799.375</ele>
        <time>2021-03-13T06:53:03Z</time>
      </trkpt>
      <trkpt lat="45.23588" lon="5.75129">
        <ele>797.072</ele>
        <time>2021-03-13T06:53:06Z</time>
      </trkpt>
      <trkpt lat="45.23586" lon="5.75128">
        <ele>796.323</ele>
        <time>2021-03-13T06:53:08Z</time>
      </trkpt>
      <trkpt lat="45.23583" lon="5.75128">
        <ele>795.571</ele>
        <time>2021-03-13T06:53:10Z</time>
      </trkpt>
      <trkpt lat="45.23574" lon="5.75125">
        <ele>794.053</ele>
        <time>2021-03-13T06:53:14Z</time>
      </trkpt>
      <trkpt lat="45.23567" lon="5.7512">
        <ele>792.249</ele>
        <time>2021-03-13T06:53:17Z</time>
      </trkpt>
      <trkpt lat="45.23556" lon="5.7511">
        <ele>790.091</ele>
        <time>2021-03-13T06:53:23Z</time>
      </trkpt>
      <trkpt lat="45.23554" lon="5.75106">
        <ele>789.081</ele>
        <time>2021-03-13T06:53:25Z</time>
      </trkpt>
      <trkpt lat="45.23543" lon="5.75097">
        <ele>786.852</ele>
        <time>2021-03-13T06:53:29Z</time>
      </trkpt>
      <trkpt lat="45.23536" lon="5.75089">
        <ele>785.758</ele>
        <time>2021-03-13T06:53:32Z</time>
      </trkpt>
      <trkpt lat="45.23525" lon="5.75083">
        <ele>784.833</ele>
        <time>2021-03-13T06:53:37Z</time>
      </trkpt>
      <trkpt lat="45.23512" lon="5.75085">
        <ele>784.41</ele>
        <time>2021-03-13T06:53:42Z</time>
      </trkpt>
      <trkpt lat="45.23488" lon="5.75091">
        <ele>782.452</ele>
        <time>2021-03-13T06:53:50Z</time>
      </trkpt>
      <trkpt lat="45.23466" lon="5.751">
        <ele>781.47</ele>
        <time>2021-03-13T06:53:58Z</time>
      </trkpt>
      <trkpt lat="45.23445" lon="5.751">
        <ele>779.807</ele>
        <time>2021-03-13T06:54:05Z</time>
      </trkpt>
      <trkpt lat="45.23427" lon="5.75101">
        <ele>777.817</ele>
        <time>2021-03-13T06:54:11Z</time>
      </trkpt>
      <trkpt lat="45.23409" lon="5.75103">
        <ele>778.157</ele>
        <time>2021-03-13T06:54:17Z</time>
      </trkpt>
      <trkpt lat="45.23391" lon="5.75108">
        <ele>777.488</ele>
        <time>2021-03-13T06:54:23Z</time>
      </trkpt>
      <trkpt lat="45.23372" lon="5.75112">
        <ele>777.269</ele>
        <time>2021-03-13T06:54:30Z</time>
      </trkpt>
      <trkpt lat="45.23356" lon="5.75113">
        <ele>776.587</ele>
        <time>2021-03-13T06:54:37Z</time>
      </trkpt>
      <trkpt lat="45.23341" lon="5.75115">
        <ele>774.685</ele>
        <time>2021-03-13T06:54:43Z</time>
      </trkpt>
      <trkpt lat="45.23331" lon="5.75117">
        <ele>773.318</ele>
        <time>2021-03-13T06:54:48Z</time>
      </trkpt>
      <trkpt lat="45.23323" lon="5.75118">
        <ele>772.704</ele>
        <time>2021-03-13T06:54:51Z</time>
      </trkpt>
      <trkpt lat="45.23314" lon="5.75105">
        <ele>772.165</ele>
        <time>2021-03-13T06:54:55Z</time>
      </trkpt>
      <trkpt lat="45.23319" lon="5.75077">
        <ele>773.333</ele>
        <time>2021-03-13T06:55:02Z</time>
      </trkpt>
      <trkpt lat="45.2332" lon="5.75056">
        <ele>775.621</ele>
        <time>2021-03-13T06:55:09Z</time>
      </trkpt>
      <trkpt lat="45.23315" lon="5.7504">
        <ele>777.072</ele>
        <time>2021-03-13T06:55:14Z</time>
      </trkpt>
      <trkpt lat="45.23306" lon="5.75028">
        <ele>778.942</ele>
        <time>2021-03-13T06:55:21Z</time>
      </trkpt>
      <trkpt lat="45.23303" lon="5.75025">
        <ele>779.7</ele>
        <time>2021-03-13T06:55:23Z</time>
      </trkpt>
      <trkpt lat="45.23298" lon="5.75009">
        <ele>781.401</ele>
        <time>2021-03-13T06:55:30Z</time>
      </trkpt>
      <trkpt lat="45.23289" lon="5.74991">
        <ele>783.207</ele>
        <time>2021-03-13T06:55:37Z</time>
      </trkpt>
      <trkpt lat="45.23284" lon="5.74978">
        <ele>783.895</ele>
        <time>2021-03-13T06:55:42Z</time>
      </trkpt>
      <trkpt lat="45.23277" lon="5.74961">
        <ele>785.628</ele>
        <time>2021-03-13T06:55:49Z</time>
      </trkpt>
      <trkpt lat="45.23267" lon="5.74949">
        <ele>786.199</ele>
        <time>2021-03-13T06:55:55Z</time>
      </trkpt>
      <trkpt lat="45.23259" lon="5.74936">
        <ele>787.576</ele>
        <time>2021-03-13T06:56:01Z</time>
      </trkpt>
      <trkpt lat="45.23252" lon="5.74927">
        <ele>788.495</ele>
        <time>2021-03-13T06:56:07Z</time>
      </trkpt>
      <trkpt lat="45.23251" lon="5.74925">
        <ele>788.804</ele>
        <time>2021-03-13T06:56:08Z</time>
      </trkpt>
      <trkpt lat="45.23241" lon="5.74911">
        <ele>790.271</ele>
        <time>2021-03-13T06:56:15Z</time>
      </trkpt>
      <trkpt lat="45.23231" lon="5.74905">
        <ele>791.706</ele>
        <time>2021-03-13T06:56:21Z</time>
      </trkpt>
      <trkpt lat="45.23223" lon="5.74895">
        <ele>792.77</ele>
        <time>2021-03-13T06:56:25Z</time>
      </trkpt>
      <trkpt lat="45.23221" lon="5.74891">
        <ele>793.563</ele>
        <time>2021-03-13T06:56:28Z</time>
      </trkpt>
      <trkpt lat="45.2322" lon="5.74888">
        <ele>793.439</ele>
        <time>2021-03-13T06:56:30Z</time>
      </trkpt>
      <trkpt lat="45.23214" lon="5.74869">
        <ele>795.518</ele>
        <time>2021-03-13T06:56:36Z</time>
      </trkpt>
      <trkpt lat="45.23214" lon="5.74867">
        <ele>795.495</ele>
        <time>2021-03-13T06:56:37Z</time>
      </trkpt>
      <trkpt lat="45.23207" lon="5.74863">
        <ele>797.36</ele>
        <time>2021-03-13T06:56:43Z</time>
      </trkpt>
      <trkpt lat="45.23202" lon="5.74861">
        <ele>797.799</ele>
        <time>2021-03-13T06:56:46Z</time>
      </trkpt>
      <trkpt lat="45.23195" lon="5.74855">
        <ele>798.737</ele>
        <time>2021-03-13T06:56:51Z</time>
      </trkpt>
      <trkpt lat="45.23194" lon="5.74853">
        <ele>798.858</ele>
        <time>2021-03-13T06:56:52Z</time>
      </trkpt>
      <trkpt lat="45.23185" lon="5.74838">
        <ele>799.894</ele>
        <time>2021-03-13T06:56:58Z</time>
      </trkpt>
      <trkpt lat="45.23178" lon="5.74827">
        <ele>800.866</ele>
        <time>2021-03-13T06:57:03Z</time>
      </trkpt>
      <trkpt lat="45.23174" lon="5.74823">
        <ele>802.04</ele>
        <time>2021-03-13T06:57:06Z</time>
      </trkpt>
      <trkpt lat="45.23167" lon="5.74809">
        <ele>803.001</ele>
        <time>2021-03-13T06:57:12Z</time>
      </trkpt>
      <trkpt lat="45.23166" lon="5.74807">
        <ele>803.141</ele>
        <time>2021-03-13T06:57:13Z</time>
      </trkpt>
      <trkpt lat="45.23157" lon="5.74793">
        <ele>804.169</ele>
        <time>2021-03-13T06:57:20Z</time>
      </trkpt>
      <trkpt lat="45.23155" lon="5.74789">
        <ele>804.967</ele>
        <time>2021-03-13T06:57:23Z</time>
      </trkpt>
      <trkpt lat="45.23152" lon="5.74784">
        <ele>806.304</ele>
        <time>2021-03-13T06:57:26Z</time>
      </trkpt>
      <trkpt lat="45.23148" lon="5.74775">
        <ele>806.69</ele>
        <time>2021-03-13T06:57:30Z</time>
      </trkpt>
      <trkpt lat="45.23144" lon="5.74767">
        <ele>807.293</ele>
        <time>2021-03-13T06:57:33Z</time>
      </trkpt>
      <trkpt lat="45.23138" lon="5.74756">
        <ele>807.554</ele>
        <time>2021-03-13T06:57:38Z</time>
      </trkpt>
      <trkpt lat="45.23132" lon="5.74742">
        <ele>808.011</ele>
        <time>2021-03-13T06:57:45Z</time>
      </trkpt>
      <trkpt lat="45.23126" lon="5.74731">
        <ele>809.626</ele>
        <time>2021-03-13T06:57:51Z</time>
      </trkpt>
      <trkpt lat="45.23118" lon="5.74719">
        <ele>812.009</ele>
        <time>2021-03-13T06:57:58Z</time>
      </trkpt>
      <trkpt lat="45.23111" lon="5.74708">
        <ele>813.536</ele>
        <time>2021-03-13T06:58:03Z</time>
      </trkpt>
      <trkpt lat="45.23107" lon="5.74704">
        <ele>813.071</ele>
        <time>2021-03-13T06:58:05Z</time>
      </trkpt>
      <trkpt lat="45.23102" lon="5.74693">
        <ele>814.564</ele>
        <time>2021-03-13T06:58:11Z</time>
      </trkpt>
      <trkpt lat="45.231" lon="5.74691">
        <ele>814.63</ele>
        <time>2021-03-13T06:58:12Z</time>
      </trkpt>
      <trkpt lat="45.23088" lon="5.74676">
        <ele>815.93</ele>
        <time>2021-03-13T06:58:20Z</time>
      </trkpt>
      <trkpt lat="45.23082" lon="5.74669">
        <ele>816.794</ele>
        <time>2021-03-13T06:58:24Z</time>
      </trkpt>
      <trkpt lat="45.23074" lon="5.74656">
        <ele>818.068</ele>
        <time>2021-03-13T06:58:30Z</time>
      </trkpt>
      <trkpt lat="45.23069" lon="5.74649">
        <ele>819.962</ele>
        <time>2021-03-13T06:58:36Z</time>
      </trkpt>
      <trkpt lat="45.23068" lon="5.74646">
        <ele>819.955</ele>
        <time>2021-03-13T06:58:37Z</time>
      </trkpt>
      <trkpt lat="45.23062" lon="5.74629">
        <ele>821.329</ele>
        <time>2021-03-13T06:58:45Z</time>
      </trkpt>
      <trkpt lat="45.2305" lon="5.74618">
        <ele>823.149</ele>
        <time>2021-03-13T06:58:51Z</time>
      </trkpt>
      <trkpt lat="45.23047" lon="5.74615">
        <ele>823.157</ele>
        <time>2021-03-13T06:58:53Z</time>
      </trkpt>
      <trkpt lat="45.23041" lon="5.74605">
        <ele>824.547</ele>
        <time>2021-03-13T06:58:59Z</time>
      </trkpt>
      <trkpt lat="45.23039" lon="5.74606">
        <ele>824.573</ele>
        <time>2021-03-13T06:59:00Z</time>
      </trkpt>
      <trkpt lat="45.23026" lon="5.74597">
        <ele>825.355</ele>
        <time>2021-03-13T06:59:07Z</time>
      </trkpt>
      <trkpt lat="45.23021" lon="5.74589">
        <ele>826.534</ele>
        <time>2021-03-13T06:59:12Z</time>
      </trkpt>
      <trkpt lat="45.23006" lon="5.74577">
        <ele>827.776</ele>
        <time>2021-03-13T06:59:20Z</time>
      </trkpt>
      <trkpt lat="45.22995" lon="5.74563">
        <ele>828.669</ele>
        <time>2021-03-13T06:59:27Z</time>
      </trkpt>
      <trkpt lat="45.2299" lon="5.74552">
        <ele>830.067</ele>
        <time>2021-03-13T06:59:34Z</time>
      </trkpt>
      <trkpt lat="45.22986" lon="5.7455">
        <ele>832.101</ele>
        <time>2021-03-13T06:59:36Z</time>
      </trkpt>
      <trkpt lat="45.22971" lon="5.74539">
        <ele>833.248</ele>
        <time>2021-03-13T06:59:43Z</time>
      </trkpt>
      <trkpt lat="45.22965" lon="5.74531">
        <ele>835.497</ele>
        <time>2021-03-13T06:59:48Z</time>
      </trkpt>
      <trkpt lat="45.22963" lon="5.74522">
        <ele>836.461</ele>
        <time>2021-03-13T06:59:54Z</time>
      </trkpt>
      <trkpt lat="45.22961" lon="5.74513">
        <ele>837.264</ele>
        <time>2021-03-13T06:59:58Z</time>
      </trkpt>
      <trkpt lat="45.2296" lon="5.74511">
        <ele>837.46</ele>
        <time>2021-03-13T06:59:59Z</time>
      </trkpt>
      <trkpt lat="45.22947" lon="5.74499">
        <ele>837.896</ele>
        <time>2021-03-13T07:00:06Z</time>
      </trkpt>
      <trkpt lat="45.22946" lon="5.74497">
        <ele>837.896</ele>
        <time>2021-03-13T07:00:07Z</time>
      </trkpt>
      <trkpt lat="45.2294" lon="5.74491">
        <ele>838.239</ele>
        <time>2021-03-13T07:00:11Z</time>
      </trkpt>
      <trkpt lat="45.22932" lon="5.7448">
        <ele>839.949</ele>
        <time>2021-03-13T07:00:17Z</time>
      </trkpt>
      <trkpt lat="45.22925" lon="5.74476">
        <ele>841.283</ele>
        <time>2021-03-13T07:00:21Z</time>
      </trkpt>
      <trkpt lat="45.22916" lon="5.74468">
        <ele>843.067</ele>
        <time>2021-03-13T07:00:28Z</time>
      </trkpt>
      <trkpt lat="45.2291" lon="5.74463">
        <ele>843.92</ele>
        <time>2021-03-13T07:00:33Z</time>
      </trkpt>
      <trkpt lat="45.22906" lon="5.74457">
        <ele>844.639</ele>
        <time>2021-03-13T07:00:38Z</time>
      </trkpt>
      <trkpt lat="45.22905" lon="5.74455">
        <ele>844.713</ele>
        <time>2021-03-13T07:00:39Z</time>
      </trkpt>
      <trkpt lat="45.22897" lon="5.74449">
        <ele>845.606</ele>
        <time>2021-03-13T07:00:44Z</time>
      </trkpt>
      <trkpt lat="45.22886" lon="5.74445">
        <ele>846.729</ele>
        <time>2021-03-13T07:00:50Z</time>
      </trkpt>
      <trkpt lat="45.22884" lon="5.74441">
        <ele>847.416</ele>
        <time>2021-03-13T07:00:52Z</time>
      </trkpt>
      <trkpt lat="45.2288" lon="5.74431">
        <ele>848.531</ele>
        <time>2021-03-13T07:00:57Z</time>
      </trkpt>
      <trkpt lat="45.22872" lon="5.74419">
        <ele>850.891</ele>
        <time>2021-03-13T07:01:03Z</time>
      </trkpt>
      <trkpt lat="45.2287" lon="5.74415">
        <ele>851.34</ele>
        <time>2021-03-13T07:01:05Z</time>
      </trkpt>
      <trkpt lat="45.22859" lon="5.74408">
        <ele>851.948</ele>
        <time>2021-03-13T07:01:12Z</time>
      </trkpt>
      <trkpt lat="45.22853" lon="5.74402">
        <ele>852.521</ele>
        <time>2021-03-13T07:01:16Z</time>
      </trkpt>
      <trkpt lat="45.22843" lon="5.74399">
        <ele>853.293</ele>
        <time>2021-03-13T07:01:22Z</time>
      </trkpt>
      <trkpt lat="45.22833" lon="5.74395">
        <ele>853.964</ele>
        <time>2021-03-13T07:01:27Z</time>
      </trkpt>
      <trkpt lat="45.22824" lon="5.7439">
        <ele>854.899</ele>
        <time>2021-03-13T07:01:33Z</time>
      </trkpt>
      <trkpt lat="45.22813" lon="5.74381">
        <ele>855.98</ele>
        <time>2021-03-13T07:01:39Z</time>
      </trkpt>
      <trkpt lat="45.22806" lon="5.74374">
        <ele>857.291</ele>
        <time>2021-03-13T07:01:46Z</time>
      </trkpt>
      <trkpt lat="45.22796" lon="5.74369">
        <ele>858.58</ele>
        <time>2021-03-13T07:01:51Z</time>
      </trkpt>
      <trkpt lat="45.2279" lon="5.7436">
        <ele>859.825</ele>
        <time>2021-03-13T07:01:57Z</time>
      </trkpt>
      <trkpt lat="45.22783" lon="5.74357">
        <ele>860.334</ele>
        <time>2021-03-13T07:02:03Z</time>
      </trkpt>
      <trkpt lat="45.22771" lon="5.7435">
        <ele>861.793</ele>
        <time>2021-03-13T07:02:09Z</time>
      </trkpt>
      <trkpt lat="45.2276" lon="5.74344">
        <ele>863.836</ele>
        <time>2021-03-13T07:02:18Z</time>
      </trkpt>
      <trkpt lat="45.22749" lon="5.74333">
        <ele>864.813</ele>
        <time>2021-03-13T07:02:24Z</time>
      </trkpt>
      <trkpt lat="45.22735" lon="5.74325">
        <ele>866.232</ele>
        <time>2021-03-13T07:02:32Z</time>
      </trkpt>
      <trkpt lat="45.22729" lon="5.74317">
        <ele>868.251</ele>
        <time>2021-03-13T07:02:37Z</time>
      </trkpt>
      <trkpt lat="45.2272" lon="5.74311">
        <ele>869.672</ele>
        <time>2021-03-13T07:02:43Z</time>
      </trkpt>
      <trkpt lat="45.22719" lon="5.74309">
        <ele>869.664</ele>
        <time>2021-03-13T07:02:44Z</time>
      </trkpt>
      <trkpt lat="45.22714" lon="5.74303">
        <ele>869.942</ele>
        <time>2021-03-13T07:02:48Z</time>
      </trkpt>
      <trkpt lat="45.22703" lon="5.74295">
        <ele>871.216</ele>
        <time>2021-03-13T07:02:54Z</time>
      </trkpt>
      <trkpt lat="45.22694" lon="5.74286">
        <ele>872.09</ele>
        <time>2021-03-13T07:03:00Z</time>
      </trkpt>
      <trkpt lat="45.2269" lon="5.74276">
        <ele>871.924</ele>
        <time>2021-03-13T07:03:04Z</time>
      </trkpt>
      <trkpt lat="45.22678" lon="5.74271">
        <ele>873.703</ele>
        <time>2021-03-13T07:03:10Z</time>
      </trkpt>
      <trkpt lat="45.22668" lon="5.74268">
        <ele>874.46</ele>
        <time>2021-03-13T07:03:16Z</time>
      </trkpt>
      <trkpt lat="45.2266" lon="5.74268">
        <ele>875.445</ele>
        <time>2021-03-13T07:03:21Z</time>
      </trkpt>
      <trkpt lat="45.22649" lon="5.74268">
        <ele>875.233</ele>
        <time>2021-03-13T07:03:28Z</time>
      </trkpt>
      <trkpt lat="45.22639" lon="5.74269">
        <ele>875.234</ele>
        <time>2021-03-13T07:03:34Z</time>
      </trkpt>
      <trkpt lat="45.22634" lon="5.74269">
        <ele>875.093</ele>
        <time>2021-03-13T07:03:36Z</time>
      </trkpt>
      <trkpt lat="45.2262" lon="5.74267">
        <ele>876.249</ele>
        <time>2021-03-13T07:03:41Z</time>
      </trkpt>
      <trkpt lat="45.2261" lon="5.74264">
        <ele>878.015</ele>
        <time>2021-03-13T07:03:48Z</time>
      </trkpt>
      <trkpt lat="45.22604" lon="5.74261">
        <ele>879.19</ele>
        <time>2021-03-13T07:03:53Z</time>
      </trkpt>
      <trkpt lat="45.22593" lon="5.74258">
        <ele>880.043</ele>
        <time>2021-03-13T07:04:01Z</time>
      </trkpt>
      <trkpt lat="45.22591" lon="5.74258">
        <ele>880.848</ele>
        <time>2021-03-13T07:04:02Z</time>
      </trkpt>
      <trkpt lat="45.22579" lon="5.74255">
        <ele>881.621</ele>
        <time>2021-03-13T07:04:09Z</time>
      </trkpt>
      <trkpt lat="45.22569" lon="5.74251">
        <ele>883.036</ele>
        <time>2021-03-13T07:04:14Z</time>
      </trkpt>
      <trkpt lat="45.22562" lon="5.74247">
        <ele>884.154</ele>
        <time>2021-03-13T07:04:18Z</time>
      </trkpt>
      <trkpt lat="45.22555" lon="5.74242">
        <ele>884.873</ele>
        <time>2021-03-13T07:04:22Z</time>
      </trkpt>
      <trkpt lat="45.22547" lon="5.7424">
        <ele>886.199</ele>
        <time>2021-03-13T07:04:26Z</time>
      </trkpt>
      <trkpt lat="45.2254" lon="5.74236">
        <ele>886.698</ele>
        <time>2021-03-13T07:04:30Z</time>
      </trkpt>
      <trkpt lat="45.22533" lon="5.74227">
        <ele>888.105</ele>
        <time>2021-03-13T07:04:38Z</time>
      </trkpt>
      <trkpt lat="45.22532" lon="5.74228">
        <ele>888.148</ele>
        <time>2021-03-13T07:04:39Z</time>
      </trkpt>
      <trkpt lat="45.22518" lon="5.74222">
        <ele>889.471</ele>
        <time>2021-03-13T07:04:46Z</time>
      </trkpt>
      <trkpt lat="45.22517" lon="5.74221">
        <ele>889.831</ele>
        <time>2021-03-13T07:04:47Z</time>
      </trkpt>
      <trkpt lat="45.22508" lon="5.74211">
        <ele>890.931</ele>
        <time>2021-03-13T07:04:53Z</time>
      </trkpt>
      <trkpt lat="45.22497" lon="5.74204">
        <ele>891.756</ele>
        <time>2021-03-13T07:04:59Z</time>
      </trkpt>
      <trkpt lat="45.22495" lon="5.74202">
        <ele>892.651</ele>
        <time>2021-03-13T07:05:01Z</time>
      </trkpt>
      <trkpt lat="45.22488" lon="5.74198">
        <ele>893.869</ele>
        <time>2021-03-13T07:05:04Z</time>
      </trkpt>
      <trkpt lat="45.22475" lon="5.74187">
        <ele>894.737</ele>
        <time>2021-03-13T07:05:13Z</time>
      </trkpt>
      <trkpt lat="45.22473" lon="5.74186">
        <ele>895.674</ele>
        <time>2021-03-13T07:05:14Z</time>
      </trkpt>
      <trkpt lat="45.22464" lon="5.74174">
        <ele>896.067</ele>
        <time>2021-03-13T07:05:21Z</time>
      </trkpt>
      <trkpt lat="45.22454" lon="5.74162">
        <ele>896.257</ele>
        <time>2021-03-13T07:05:29Z</time>
      </trkpt>
      <trkpt lat="45.22449" lon="5.74153">
        <ele>896.749</ele>
        <time>2021-03-13T07:05:34Z</time>
      </trkpt>
      <trkpt lat="45.22437" lon="5.74138">
        <ele>898.866</ele>
        <time>2021-03-13T07:05:43Z</time>
      </trkpt>
      <trkpt lat="45.22433" lon="5.7413">
        <ele>900.427</ele>
        <time>2021-03-13T07:05:47Z</time>
      </trkpt>
      <trkpt lat="45.22424" lon="5.74114">
        <ele>901.411</ele>
        <time>2021-03-13T07:05:55Z</time>
      </trkpt>
      <trkpt lat="45.22419" lon="5.74103">
        <ele>903.095</ele>
        <time>2021-03-13T07:06:01Z</time>
      </trkpt>
      <trkpt lat="45.22416" lon="5.741">
        <ele>903.409</ele>
        <time>2021-03-13T07:06:03Z</time>
      </trkpt>
      <trkpt lat="45.22408" lon="5.74089">
        <ele>905.842</ele>
        <time>2021-03-13T07:06:09Z</time>
      </trkpt>
      <trkpt lat="45.22399" lon="5.74083">
        <ele>906.709</ele>
        <time>2021-03-13T07:06:13Z</time>
      </trkpt>
      <trkpt lat="45.22389" lon="5.74073">
        <ele>907.108</ele>
        <time>2021-03-13T07:06:20Z</time>
      </trkpt>
      <trkpt lat="45.22381" lon="5.74063">
        <ele>908.079</ele>
        <time>2021-03-13T07:06:26Z</time>
      </trkpt>
      <trkpt lat="45.2237" lon="5.74045">
        <ele>908.59</ele>
        <time>2021-03-13T07:06:34Z</time>
      </trkpt>
      <trkpt lat="45.22359" lon="5.74034">
        <ele>907.781</ele>
        <time>2021-03-13T07:06:41Z</time>
      </trkpt>
      <trkpt lat="45.22349" lon="5.74027">
        <ele>905.949</ele>
        <time>2021-03-13T07:06:47Z</time>
      </trkpt>
      <trkpt lat="45.22339" lon="5.74024">
        <ele>905.469</ele>
        <time>2021-03-13T07:06:52Z</time>
      </trkpt>
      <trkpt lat="45.22327" lon="5.74019">
        <ele>904.166</ele>
        <time>2021-03-13T07:06:57Z</time>
      </trkpt>
      <trkpt lat="45.22316" lon="5.74014">
        <ele>903.406</ele>
        <time>2021-03-13T07:07:02Z</time>
      </trkpt>
      <trkpt lat="45.22301" lon="5.74011">
        <ele>900.799</ele>
        <time>2021-03-13T07:07:09Z</time>
      </trkpt>
      <trkpt lat="45.22299" lon="5.74009">
        <ele>901.383</ele>
        <time>2021-03-13T07:07:10Z</time>
      </trkpt>
      <trkpt lat="45.22288" lon="5.74001">
        <ele>899.416</ele>
        <time>2021-03-13T07:07:15Z</time>
      </trkpt>
      <trkpt lat="45.22275" lon="5.7399">
        <ele>897.832</ele>
        <time>2021-03-13T07:07:21Z</time>
      </trkpt>
      <trkpt lat="45.22269" lon="5.73986">
        <ele>896.757</ele>
        <time>2021-03-13T07:07:24Z</time>
      </trkpt>
      <trkpt lat="45.22255" lon="5.73977">
        <ele>895.807</ele>
        <time>2021-03-13T07:07:30Z</time>
      </trkpt>
      <trkpt lat="45.22236" lon="5.73965">
        <ele>894.571</ele>
        <time>2021-03-13T07:07:37Z</time>
      </trkpt>
      <trkpt lat="45.22228" lon="5.73962">
        <ele>894.119</ele>
        <time>2021-03-13T07:07:40Z</time>
      </trkpt>
      <trkpt lat="45.22225" lon="5.73952">
        <ele>892.69</ele>
        <time>2021-03-13T07:07:43Z</time>
      </trkpt>
      <trkpt lat="45.22224" lon="5.73949">
        <ele>892.686</ele>
        <time>2021-03-13T07:07:44Z</time>
      </trkpt>
      <trkpt lat="45.22211" lon="5.73934">
        <ele>891.502</ele>
        <time>2021-03-13T07:07:51Z</time>
      </trkpt>
      <trkpt lat="45.22201" lon="5.73925">
        <ele>890.339</ele>
        <time>2021-03-13T07:07:56Z</time>
      </trkpt>
      <trkpt lat="45.22188" lon="5.73916">
        <ele>889.509</ele>
        <time>2021-03-13T07:08:03Z</time>
      </trkpt>
      <trkpt lat="45.22186" lon="5.73915">
        <ele>889.509</ele>
        <time>2021-03-13T07:08:04Z</time>
      </trkpt>
      <trkpt lat="45.22181" lon="5.73914">
        <ele>889.311</ele>
        <time>2021-03-13T07:08:06Z</time>
      </trkpt>
      <trkpt lat="45.22171" lon="5.73906">
        <ele>888.139</ele>
        <time>2021-03-13T07:08:10Z</time>
      </trkpt>
      <trkpt lat="45.2216" lon="5.73898">
        <ele>886.072</ele>
        <time>2021-03-13T07:08:16Z</time>
      </trkpt>
      <trkpt lat="45.22148" lon="5.73893">
        <ele>883.824</ele>
        <time>2021-03-13T07:08:21Z</time>
      </trkpt>
      <trkpt lat="45.22145" lon="5.73893">
        <ele>883.622</ele>
        <time>2021-03-13T07:08:22Z</time>
      </trkpt>
      <trkpt lat="45.22142" lon="5.73892">
        <ele>883.627</ele>
        <time>2021-03-13T07:08:23Z</time>
      </trkpt>
      <trkpt lat="45.22121" lon="5.73888">
        <ele>881.839</ele>
        <time>2021-03-13T07:08:30Z</time>
      </trkpt>
      <trkpt lat="45.22119" lon="5.73888">
        <ele>880.943</ele>
        <time>2021-03-13T07:08:31Z</time>
      </trkpt>
      <trkpt lat="45.22108" lon="5.73883">
        <ele>880.053</ele>
        <time>2021-03-13T07:08:36Z</time>
      </trkpt>
      <trkpt lat="45.22087" lon="5.73873">
        <ele>879.028</ele>
        <time>2021-03-13T07:08:43Z</time>
      </trkpt>
      <trkpt lat="45.22069" lon="5.73864">
        <ele>878.298</ele>
        <time>2021-03-13T07:08:49Z</time>
      </trkpt>
      <trkpt lat="45.22059" lon="5.73859">
        <ele>878.154</ele>
        <time>2021-03-13T07:08:53Z</time>
      </trkpt>
      <trkpt lat="45.22054" lon="5.73857">
        <ele>878.93</ele>
        <time>2021-03-13T07:08:56Z</time>
      </trkpt>
      <trkpt lat="45.22041" lon="5.73847">
        <ele>879.915</ele>
        <time>2021-03-13T07:09:03Z</time>
      </trkpt>
      <trkpt lat="45.2203" lon="5.73834">
        <ele>881.17</ele>
        <time>2021-03-13T07:09:10Z</time>
      </trkpt>
      <trkpt lat="45.22024" lon="5.73827">
        <ele>881.584</ele>
        <time>2021-03-13T07:09:14Z</time>
      </trkpt>
      <trkpt lat="45.22009" lon="5.73818">
        <ele>883.007</ele>
        <time>2021-03-13T07:09:21Z</time>
      </trkpt>
      <trkpt lat="45.22" lon="5.73811">
        <ele>885.298</ele>
        <time>2021-03-13T07:09:26Z</time>
      </trkpt>
      <trkpt lat="45.2199" lon="5.73809">
        <ele>886.083</ele>
        <time>2021-03-13T07:09:32Z</time>
      </trkpt>
      <trkpt lat="45.21981" lon="5.73804">
        <ele>888.788</ele>
        <time>2021-03-13T07:09:38Z</time>
      </trkpt>
      <trkpt lat="45.2198" lon="5.73804">
        <ele>888.627</ele>
        <time>2021-03-13T07:09:39Z</time>
      </trkpt>
      <trkpt lat="45.21976" lon="5.738">
        <ele>889.164</ele>
        <time>2021-03-13T07:09:42Z</time>
      </trkpt>
      <trkpt lat="45.21969" lon="5.73789">
        <ele>889.745</ele>
        <time>2021-03-13T07:09:48Z</time>
      </trkpt>
      <trkpt lat="45.21965" lon="5.7377">
        <ele>890.717</ele>
        <time>2021-03-13T07:09:55Z</time>
      </trkpt>
      <trkpt lat="45.21962" lon="5.73764">
        <ele>890.684</ele>
        <time>2021-03-13T07:09:58Z</time>
      </trkpt>
      <trkpt lat="45.21952" lon="5.73755">
        <ele>892.047</ele>
        <time>2021-03-13T07:10:04Z</time>
      </trkpt>
      <trkpt lat="45.2195" lon="5.73752">
        <ele>891.939</ele>
        <time>2021-03-13T07:10:06Z</time>
      </trkpt>
      <trkpt lat="45.21946" lon="5.73742">
        <ele>893.354</ele>
        <time>2021-03-13T07:10:11Z</time>
      </trkpt>
      <trkpt lat="45.2194" lon="5.73732">
        <ele>894.47</ele>
        <time>2021-03-13T07:10:16Z</time>
      </trkpt>
      <trkpt lat="45.21937" lon="5.73725">
        <ele>896.399</ele>
        <time>2021-03-13T07:10:21Z</time>
      </trkpt>
      <trkpt lat="45.21931" lon="5.73717">
        <ele>897.247</ele>
        <time>2021-03-13T07:10:27Z</time>
      </trkpt>
      <trkpt lat="45.21924" lon="5.7371">
        <ele>898.612</ele>
        <time>2021-03-13T07:10:33Z</time>
      </trkpt>
      <trkpt lat="45.21917" lon="5.73709">
        <ele>900.326</ele>
        <time>2021-03-13T07:10:38Z</time>
      </trkpt>
      <trkpt lat="45.2191" lon="5.73707">
        <ele>902.756</ele>
        <time>2021-03-13T07:10:43Z</time>
      </trkpt>
      <trkpt lat="45.21902" lon="5.73705">
        <ele>904.604</ele>
        <time>2021-03-13T07:10:51Z</time>
      </trkpt>
      <trkpt lat="45.2189" lon="5.73702">
        <ele>906.441</ele>
        <time>2021-03-13T07:10:58Z</time>
      </trkpt>
      <trkpt lat="45.21884" lon="5.73696">
        <ele>906.633</ele>
        <time>2021-03-13T07:11:02Z</time>
      </trkpt>
      <trkpt lat="45.2188" lon="5.73684">
        <ele>907.115</ele>
        <time>2021-03-13T07:11:08Z</time>
      </trkpt>
      <trkpt lat="45.21874" lon="5.73678">
        <ele>907.111</ele>
        <time>2021-03-13T07:11:12Z</time>
      </trkpt>
      <trkpt lat="45.21866" lon="5.73669">
        <ele>906.854</ele>
        <time>2021-03-13T07:11:18Z</time>
      </trkpt>
      <trkpt lat="45.21864" lon="5.73664">
        <ele>906.228</ele>
        <time>2021-03-13T07:11:20Z</time>
      </trkpt>
      <trkpt lat="45.2186" lon="5.7366">
        <ele>906.471</ele>
        <time>2021-03-13T07:11:22Z</time>
      </trkpt>
      <trkpt lat="45.2185" lon="5.73652">
        <ele>905.771</ele>
        <time>2021-03-13T07:11:27Z</time>
      </trkpt>
      <trkpt lat="45.21839" lon="5.73632">
        <ele>907.314</ele>
        <time>2021-03-13T07:11:36Z</time>
      </trkpt>
      <trkpt lat="45.21833" lon="5.73614">
        <ele>908.04</ele>
        <time>2021-03-13T07:11:42Z</time>
      </trkpt>
      <trkpt lat="45.2183" lon="5.73607">
        <ele>908.403</ele>
        <time>2021-03-13T07:11:45Z</time>
      </trkpt>
      <trkpt lat="45.21828" lon="5.73599">
        <ele>908.425</ele>
        <time>2021-03-13T07:11:48Z</time>
      </trkpt>
      <trkpt lat="45.21821" lon="5.7359">
        <ele>909.975</ele>
        <time>2021-03-13T07:11:53Z</time>
      </trkpt>
      <trkpt lat="45.21813" lon="5.73582">
        <ele>911.868</ele>
        <time>2021-03-13T07:11:58Z</time>
      </trkpt>
      <trkpt lat="45.21808" lon="5.73576">
        <ele>913.132</ele>
        <time>2021-03-13T07:12:02Z</time>
      </trkpt>
      <trkpt lat="45.21801" lon="5.73564">
        <ele>915.032</ele>
        <time>2021-03-13T07:12:10Z</time>
      </trkpt>
      <trkpt lat="45.21797" lon="5.73555">
        <ele>915.807</ele>
        <time>2021-03-13T07:12:15Z</time>
      </trkpt>
      <trkpt lat="45.21797" lon="5.73543">
        <ele>916.978</ele>
        <time>2021-03-13T07:12:20Z</time>
      </trkpt>
      <trkpt lat="45.21792" lon="5.73534">
        <ele>918.676</ele>
        <time>2021-03-13T07:12:27Z</time>
      </trkpt>
      <trkpt lat="45.21785" lon="5.73531">
        <ele>920.275</ele>
        <time>2021-03-13T07:12:32Z</time>
      </trkpt>
      <trkpt lat="45.21782" lon="5.7353">
        <ele>920.686</ele>
        <time>2021-03-13T07:12:34Z</time>
      </trkpt>
      <trkpt lat="45.21766" lon="5.73522">
        <ele>922.43</ele>
        <time>2021-03-13T07:12:43Z</time>
      </trkpt>
      <trkpt lat="45.21761" lon="5.73521">
        <ele>921.794</ele>
        <time>2021-03-13T07:12:47Z</time>
      </trkpt>
      <trkpt lat="45.21744" lon="5.7352">
        <ele>920.505</ele>
        <time>2021-03-13T07:12:54Z</time>
      </trkpt>
      <trkpt lat="45.21732" lon="5.73511">
        <ele>921.811</ele>
        <time>2021-03-13T07:13:00Z</time>
      </trkpt>
      <trkpt lat="45.21729" lon="5.73506">
        <ele>921.181</ele>
        <time>2021-03-13T07:13:02Z</time>
      </trkpt>
      <trkpt lat="45.21714" lon="5.73491">
        <ele>921.289</ele>
        <time>2021-03-13T07:13:09Z</time>
      </trkpt>
      <trkpt lat="45.21699" lon="5.7349">
        <ele>920.258</ele>
        <time>2021-03-13T07:13:15Z</time>
      </trkpt>
      <trkpt lat="45.2169" lon="5.73486">
        <ele>920.14</ele>
        <time>2021-03-13T07:13:19Z</time>
      </trkpt>
      <trkpt lat="45.21675" lon="5.73474">
        <ele>918.86</ele>
        <time>2021-03-13T07:13:26Z</time>
      </trkpt>
      <trkpt lat="45.21668" lon="5.7345">
        <ele>916.347</ele>
        <time>2021-03-13T07:13:33Z</time>
      </trkpt>
      <trkpt lat="45.21667" lon="5.73439">
        <ele>915.803</ele>
        <time>2021-03-13T07:13:36Z</time>
      </trkpt>
      <trkpt lat="45.2166" lon="5.73415">
        <ele>914.397</ele>
        <time>2021-03-13T07:13:43Z</time>
      </trkpt>
      <trkpt lat="45.21649" lon="5.73393">
        <ele>913.035</ele>
        <time>2021-03-13T07:13:50Z</time>
      </trkpt>
      <trkpt lat="45.21631" lon="5.73377">
        <ele>911.018</ele>
        <time>2021-03-13T07:13:58Z</time>
      </trkpt>
      <trkpt lat="45.21624" lon="5.73373">
        <ele>910.341</ele>
        <time>2021-03-13T07:14:01Z</time>
      </trkpt>
      <trkpt lat="45.21619" lon="5.73372">
        <ele>909.163</ele>
        <time>2021-03-13T07:14:03Z</time>
      </trkpt>
      <trkpt lat="45.21601" lon="5.73355">
        <ele>904.169</ele>
        <time>2021-03-13T07:14:13Z</time>
      </trkpt>
      <trkpt lat="45.21598" lon="5.73351">
        <ele>903.331</ele>
        <time>2021-03-13T07:14:15Z</time>
      </trkpt>
      <trkpt lat="45.21589" lon="5.73338">
        <ele>901.59</ele>
        <time>2021-03-13T07:14:21Z</time>
      </trkpt>
      <trkpt lat="45.21575" lon="5.73329">
        <ele>899.284</ele>
        <time>2021-03-13T07:14:28Z</time>
      </trkpt>
      <trkpt lat="45.21569" lon="5.73321">
        <ele>897.804</ele>
        <time>2021-03-13T07:14:32Z</time>
      </trkpt>
      <trkpt lat="45.21565" lon="5.73321">
        <ele>897.843</ele>
        <time>2021-03-13T07:14:34Z</time>
      </trkpt>
      <trkpt lat="45.2156" lon="5.7332">
        <ele>896.771</ele>
        <time>2021-03-13T07:14:36Z</time>
      </trkpt>
      <trkpt lat="45.21553" lon="5.73319">
        <ele>895.369</ele>
        <time>2021-03-13T07:14:40Z</time>
      </trkpt>
      <trkpt lat="45.2154" lon="5.73318">
        <ele>892.941</ele>
        <time>2021-03-13T07:14:44Z</time>
      </trkpt>
      <trkpt lat="45.21526" lon="5.73314">
        <ele>890.829</ele>
        <time>2021-03-13T07:14:49Z</time>
      </trkpt>
      <trkpt lat="45.21516" lon="5.73309">
        <ele>890.124</ele>
        <time>2021-03-13T07:14:53Z</time>
      </trkpt>
      <trkpt lat="45.21515" lon="5.73296">
        <ele>887.859</ele>
        <time>2021-03-13T07:14:59Z</time>
      </trkpt>
      <trkpt lat="45.21513" lon="5.73294">
        <ele>888.188</ele>
        <time>2021-03-13T07:15:00Z</time>
      </trkpt>
      <trkpt lat="45.21513" lon="5.73274">
        <ele>886.898</ele>
        <time>2021-03-13T07:15:05Z</time>
      </trkpt>
      <trkpt lat="45.21516" lon="5.73262">
        <ele>887.39</ele>
        <time>2021-03-13T07:15:08Z</time>
      </trkpt>
      <trkpt lat="45.2151" lon="5.73246">
        <ele>886.037</ele>
        <time>2021-03-13T07:15:14Z</time>
      </trkpt>
      <trkpt lat="45.21503" lon="5.73233">
        <ele>883.434</ele>
        <time>2021-03-13T07:15:19Z</time>
      </trkpt>
      <trkpt lat="45.21498" lon="5.7323">
        <ele>882.585</ele>
        <time>2021-03-13T07:15:22Z</time>
      </trkpt>
      <trkpt lat="45.21491" lon="5.73219">
        <ele>881.243</ele>
        <time>2021-03-13T07:15:28Z</time>
      </trkpt>
      <trkpt lat="45.21489" lon="5.73217">
        <ele>881.229</ele>
        <time>2021-03-13T07:15:29Z</time>
      </trkpt>
      <trkpt lat="45.21482" lon="5.73206">
        <ele>880.546</ele>
        <time>2021-03-13T07:15:34Z</time>
      </trkpt>
      <trkpt lat="45.21479" lon="5.73188">
        <ele>879.272</ele>
        <time>2021-03-13T07:15:40Z</time>
      </trkpt>
      <trkpt lat="45.21477" lon="5.73181">
        <ele>877.206</ele>
        <time>2021-03-13T07:15:43Z</time>
      </trkpt>
      <trkpt lat="45.21473" lon="5.73175">
        <ele>874.984</ele>
        <time>2021-03-13T07:15:46Z</time>
      </trkpt>
      <trkpt lat="45.2147" lon="5.73165">
        <ele>873.007</ele>
        <time>2021-03-13T07:15:50Z</time>
      </trkpt>
      <trkpt lat="45.21467" lon="5.73162">
        <ele>872.5</ele>
        <time>2021-03-13T07:15:52Z</time>
      </trkpt>
      <trkpt lat="45.21463" lon="5.73156">
        <ele>871.416</ele>
        <time>2021-03-13T07:15:55Z</time>
      </trkpt>
      <trkpt lat="45.21452" lon="5.73149">
        <ele>868.39</ele>
        <time>2021-03-13T07:16:01Z</time>
      </trkpt>
      <trkpt lat="45.21451" lon="5.73148">
        <ele>867.495</ele>
        <time>2021-03-13T07:16:02Z</time>
      </trkpt>
      <trkpt lat="45.21432" lon="5.73142">
        <ele>864.844</ele>
        <time>2021-03-13T07:16:09Z</time>
      </trkpt>
      <trkpt lat="45.21419" lon="5.73131">
        <ele>862.836</ele>
        <time>2021-03-13T07:16:16Z</time>
      </trkpt>
      <trkpt lat="45.21413" lon="5.73126">
        <ele>861.958</ele>
        <time>2021-03-13T07:16:19Z</time>
      </trkpt>
      <trkpt lat="45.21405" lon="5.73106">
        <ele>860.244</ele>
        <time>2021-03-13T07:16:26Z</time>
      </trkpt>
      <trkpt lat="45.21391" lon="5.73092">
        <ele>858.05</ele>
        <time>2021-03-13T07:16:33Z</time>
      </trkpt>
      <trkpt lat="45.21387" lon="5.73087">
        <ele>857.918</ele>
        <time>2021-03-13T07:16:35Z</time>
      </trkpt>
      <trkpt lat="45.2138" lon="5.7307">
        <ele>856.168</ele>
        <time>2021-03-13T07:16:41Z</time>
      </trkpt>
      <trkpt lat="45.21371" lon="5.7306">
        <ele>854.903</ele>
        <time>2021-03-13T07:16:46Z</time>
      </trkpt>
      <trkpt lat="45.21363" lon="5.73047">
        <ele>853.263</ele>
        <time>2021-03-13T07:16:53Z</time>
      </trkpt>
      <trkpt lat="45.21355" lon="5.73039">
        <ele>851.975</ele>
        <time>2021-03-13T07:16:58Z</time>
      </trkpt>
      <trkpt lat="45.21349" lon="5.73035">
        <ele>850.085</ele>
        <time>2021-03-13T07:17:03Z</time>
      </trkpt>
      <trkpt lat="45.21342" lon="5.73029">
        <ele>847.635</ele>
        <time>2021-03-13T07:17:08Z</time>
      </trkpt>
      <trkpt lat="45.2134" lon="5.73022">
        <ele>845.88</ele>
        <time>2021-03-13T07:17:12Z</time>
      </trkpt>
      <trkpt lat="45.21337" lon="5.73018">
        <ele>845.227</ele>
        <time>2021-03-13T07:17:14Z</time>
      </trkpt>
      <trkpt lat="45.21334" lon="5.73015">
        <ele>844.502</ele>
        <time>2021-03-13T07:17:16Z</time>
      </trkpt>
      <trkpt lat="45.21332" lon="5.7301">
        <ele>843.363</ele>
        <time>2021-03-13T07:17:18Z</time>
      </trkpt>
      <trkpt lat="45.21331" lon="5.73008">
        <ele>843.062</ele>
        <time>2021-03-13T07:17:19Z</time>
      </trkpt>
      <trkpt lat="45.21324" lon="5.72996">
        <ele>840.626</ele>
        <time>2021-03-13T07:17:25Z</time>
      </trkpt>
      <trkpt lat="45.2132" lon="5.72993">
        <ele>838.922</ele>
        <time>2021-03-13T07:17:28Z</time>
      </trkpt>
      <trkpt lat="45.21313" lon="5.72983">
        <ele>837.699</ele>
        <time>2021-03-13T07:17:33Z</time>
      </trkpt>
      <trkpt lat="45.21312" lon="5.72979">
        <ele>836.724</ele>
        <time>2021-03-13T07:17:35Z</time>
      </trkpt>
      <trkpt lat="45.21308" lon="5.72974">
        <ele>835.423</ele>
        <time>2021-03-13T07:17:39Z</time>
      </trkpt>
      <trkpt lat="45.21302" lon="5.72971">
        <ele>833.752</ele>
        <time>2021-03-13T07:17:43Z</time>
      </trkpt>
      <trkpt lat="45.213" lon="5.72971">
        <ele>833.045</ele>
        <time>2021-03-13T07:17:44Z</time>
      </trkpt>
      <trkpt lat="45.21288" lon="5.72968">
        <ele>830.805</ele>
        <time>2021-03-13T07:17:51Z</time>
      </trkpt>
      <trkpt lat="45.21286" lon="5.72967">
        <ele>830.459</ele>
        <time>2021-03-13T07:17:52Z</time>
      </trkpt>
      <trkpt lat="45.21283" lon="5.72964">
        <ele>829.205</ele>
        <time>2021-03-13T07:17:54Z</time>
      </trkpt>
      <trkpt lat="45.21276" lon="5.72957">
        <ele>826.72</ele>
        <time>2021-03-13T07:18:00Z</time>
      </trkpt>
      <trkpt lat="45.21272" lon="5.72955">
        <ele>826.077</ele>
        <time>2021-03-13T07:18:02Z</time>
      </trkpt>
      <trkpt lat="45.21266" lon="5.72951">
        <ele>823.125</ele>
        <time>2021-03-13T07:18:08Z</time>
      </trkpt>
      <trkpt lat="45.21262" lon="5.72946">
        <ele>821.793</ele>
        <time>2021-03-13T07:18:12Z</time>
      </trkpt>
      <trkpt lat="45.21254" lon="5.72942">
        <ele>821.154</ele>
        <time>2021-03-13T07:18:17Z</time>
      </trkpt>
      <trkpt lat="45.21249" lon="5.72941">
        <ele>820.243</ele>
        <time>2021-03-13T07:18:20Z</time>
      </trkpt>
      <trkpt lat="45.21247" lon="5.72938">
        <ele>819.417</ele>
        <time>2021-03-13T07:18:22Z</time>
      </trkpt>
      <trkpt lat="45.21236" lon="5.72931">
        <ele>816.701</ele>
        <time>2021-03-13T07:18:28Z</time>
      </trkpt>
      <trkpt lat="45.2123" lon="5.7292">
        <ele>813.44</ele>
        <time>2021-03-13T07:18:33Z</time>
      </trkpt>
      <trkpt lat="45.21217" lon="5.72918">
        <ele>811.401</ele>
        <time>2021-03-13T07:18:41Z</time>
      </trkpt>
      <trkpt lat="45.21215" lon="5.72918">
        <ele>810.46</ele>
        <time>2021-03-13T07:18:44Z</time>
      </trkpt>
      <trkpt lat="45.21215" lon="5.72925">
        <ele>808.929</ele>
        <time>2021-03-13T07:18:47Z</time>
      </trkpt>
      <trkpt lat="45.21219" lon="5.72938">
        <ele>806.22</ele>
        <time>2021-03-13T07:18:53Z</time>
      </trkpt>
      <trkpt lat="45.21219" lon="5.72944">
        <ele>803.748</ele>
        <time>2021-03-13T07:18:57Z</time>
      </trkpt>
      <trkpt lat="45.21206" lon="5.72929">
        <ele>802.585</ele>
        <time>2021-03-13T07:19:04Z</time>
      </trkpt>
      <trkpt lat="45.21197" lon="5.72916">
        <ele>801.261</ele>
        <time>2021-03-13T07:19:10Z</time>
      </trkpt>
      <trkpt lat="45.21191" lon="5.7291">
        <ele>799.782</ele>
        <time>2021-03-13T07:19:14Z</time>
      </trkpt>
      <trkpt lat="45.21183" lon="5.72901">
        <ele>797.031</ele>
        <time>2021-03-13T07:19:20Z</time>
      </trkpt>
      <trkpt lat="45.21181" lon="5.729">
        <ele>797.023</ele>
        <time>2021-03-13T07:19:21Z</time>
      </trkpt>
      <trkpt lat="45.21172" lon="5.72898">
        <ele>794.232</ele>
        <time>2021-03-13T07:19:26Z</time>
      </trkpt>
      <trkpt lat="45.21165" lon="5.72895">
        <ele>792.118</ele>
        <time>2021-03-13T07:19:30Z</time>
      </trkpt>
      <trkpt lat="45.21161" lon="5.72891">
        <ele>791.616</ele>
        <time>2021-03-13T07:19:32Z</time>
      </trkpt>
      <trkpt lat="45.21145" lon="5.72883">
        <ele>789.074</ele>
        <time>2021-03-13T07:19:41Z</time>
      </trkpt>
      <trkpt lat="45.21136" lon="5.72875">
        <ele>786.702</ele>
        <time>2021-03-13T07:19:48Z</time>
      </trkpt>
      <trkpt lat="45.21132" lon="5.72874">
        <ele>786.317</ele>
        <time>2021-03-13T07:19:50Z</time>
      </trkpt>
      <trkpt lat="45.2112" lon="5.72871">
        <ele>785.183</ele>
        <time>2021-03-13T07:19:56Z</time>
      </trkpt>
      <trkpt lat="45.21108" lon="5.72864">
        <ele>782.005</ele>
        <time>2021-03-13T07:20:03Z</time>
      </trkpt>
      <trkpt lat="45.21106" lon="5.72863">
        <ele>781.82</ele>
        <time>2021-03-13T07:20:04Z</time>
      </trkpt>
      <trkpt lat="45.21104" lon="5.72861">
        <ele>781.261</ele>
        <time>2021-03-13T07:20:06Z</time>
      </trkpt>
      <trkpt lat="45.2109" lon="5.72845">
        <ele>778.473</ele>
        <time>2021-03-13T07:20:13Z</time>
      </trkpt>
      <trkpt lat="45.21081" lon="5.72841">
        <ele>777.942</ele>
        <time>2021-03-13T07:20:17Z</time>
      </trkpt>
      <trkpt lat="45.21073" lon="5.7282">
        <ele>776.316</ele>
        <time>2021-03-13T07:20:24Z</time>
      </trkpt>
      <trkpt lat="45.21064" lon="5.72802">
        <ele>774.975</ele>
        <time>2021-03-13T07:20:29Z</time>
      </trkpt>
      <trkpt lat="45.2106" lon="5.72783">
        <ele>774.864</ele>
        <time>2021-03-13T07:20:34Z</time>
      </trkpt>
      <trkpt lat="45.21055" lon="5.7277">
        <ele>774.101</ele>
        <time>2021-03-13T07:20:38Z</time>
      </trkpt>
      <trkpt lat="45.21048" lon="5.72749">
        <ele>773.125</ele>
        <time>2021-03-13T07:20:45Z</time>
      </trkpt>
      <trkpt lat="45.2104" lon="5.72742">
        <ele>771.63</ele>
        <time>2021-03-13T07:20:51Z</time>
      </trkpt>
      <trkpt lat="45.21036" lon="5.72742">
        <ele>768.326</ele>
        <time>2021-03-13T07:20:56Z</time>
      </trkpt>
      <trkpt lat="45.21033" lon="5.72743">
        <ele>768.031</ele>
        <time>2021-03-13T07:20:58Z</time>
      </trkpt>
      <trkpt lat="45.21029" lon="5.72743">
        <ele>766.599</ele>
        <time>2021-03-13T07:21:01Z</time>
      </trkpt>
      <trkpt lat="45.21028" lon="5.72742">
        <ele>765.986</ele>
        <time>2021-03-13T07:21:02Z</time>
      </trkpt>
      <trkpt lat="45.21022" lon="5.72743">
        <ele>764.473</ele>
        <time>2021-03-13T07:21:09Z</time>
      </trkpt>
      <trkpt lat="45.21021" lon="5.72744">
        <ele>764.452</ele>
        <time>2021-03-13T07:21:10Z</time>
      </trkpt>
      <trkpt lat="45.21014" lon="5.72742">
        <ele>761.266</ele>
        <time>2021-03-13T07:21:17Z</time>
      </trkpt>
      <trkpt lat="45.2101" lon="5.72744">
        <ele>758.862</ele>
        <time>2021-03-13T07:21:23Z</time>
      </trkpt>
      <trkpt lat="45.21006" lon="5.7275">
        <ele>756.012</ele>
        <time>2021-03-13T07:21:31Z</time>
      </trkpt>
      <trkpt lat="45.20999" lon="5.72748">
        <ele>753.076</ele>
        <time>2021-03-13T07:21:38Z</time>
      </trkpt>
      <trkpt lat="45.20998" lon="5.72751">
        <ele>752.165</ele>
        <time>2021-03-13T07:21:40Z</time>
      </trkpt>
      <trkpt lat="45.20994" lon="5.72754">
        <ele>750.236</ele>
        <time>2021-03-13T07:21:44Z</time>
      </trkpt>
      <trkpt lat="45.20991" lon="5.72755">
        <ele>748.905</ele>
        <time>2021-03-13T07:21:47Z</time>
      </trkpt>
      <trkpt lat="45.20984" lon="5.72745">
        <ele>745.372</ele>
        <time>2021-03-13T07:21:53Z</time>
      </trkpt>
      <trkpt lat="45.20982" lon="5.72741">
        <ele>744.348</ele>
        <time>2021-03-13T07:21:55Z</time>
      </trkpt>
      <trkpt lat="45.20975" lon="5.72737">
        <ele>740.64</ele>
        <time>2021-03-13T07:22:01Z</time>
      </trkpt>
      <trkpt lat="45.20973" lon="5.72733">
        <ele>739.97</ele>
        <time>2021-03-13T07:22:03Z</time>
      </trkpt>
      <trkpt lat="45.20969" lon="5.72727">
        <ele>736.596</ele>
        <time>2021-03-13T07:22:08Z</time>
      </trkpt>
      <trkpt lat="45.20962" lon="5.72721">
        <ele>734.312</ele>
        <time>2021-03-13T07:22:14Z</time>
      </trkpt>
      <trkpt lat="45.20959" lon="5.7272">
        <ele>734.382</ele>
        <time>2021-03-13T07:22:15Z</time>
      </trkpt>
      <trkpt lat="45.20955" lon="5.72716">
        <ele>732.798</ele>
        <time>2021-03-13T07:22:18Z</time>
      </trkpt>
      <trkpt lat="45.20947" lon="5.72709">
        <ele>729.833</ele>
        <time>2021-03-13T07:22:23Z</time>
      </trkpt>
      <trkpt lat="45.20939" lon="5.72695">
        <ele>727.309</ele>
        <time>2021-03-13T07:22:29Z</time>
      </trkpt>
      <trkpt lat="45.20927" lon="5.72684">
        <ele>725.131</ele>
        <time>2021-03-13T07:22:35Z</time>
      </trkpt>
      <trkpt lat="45.20921" lon="5.72677">
        <ele>723.21</ele>
        <time>2021-03-13T07:22:40Z</time>
      </trkpt>
      <trkpt lat="45.20917" lon="5.72675">
        <ele>721.339</ele>
        <time>2021-03-13T07:22:43Z</time>
      </trkpt>
      <trkpt lat="45.20912" lon="5.72671">
        <ele>720.031</ele>
        <time>2021-03-13T07:22:46Z</time>
      </trkpt>
      <trkpt lat="45.20901" lon="5.72672">
        <ele>718.234</ele>
        <time>2021-03-13T07:22:53Z</time>
      </trkpt>
      <trkpt lat="45.209" lon="5.72672">
        <ele>717.871</ele>
        <time>2021-03-13T07:22:54Z</time>
      </trkpt>
      <trkpt lat="45.20894" lon="5.72671">
        <ele>715.989</ele>
        <time>2021-03-13T07:22:58Z</time>
      </trkpt>
      <trkpt lat="45.20884" lon="5.72676">
        <ele>712.417</ele>
        <time>2021-03-13T07:23:04Z</time>
      </trkpt>
      <trkpt lat="45.20877" lon="5.72677">
        <ele>710.408</ele>
        <time>2021-03-13T07:23:08Z</time>
      </trkpt>
      <trkpt lat="45.20861" lon="5.72678">
        <ele>708.977</ele>
        <time>2021-03-13T07:23:15Z</time>
      </trkpt>
      <trkpt lat="45.20854" lon="5.72681">
        <ele>706.996</ele>
        <time>2021-03-13T07:23:20Z</time>
      </trkpt>
      <trkpt lat="45.20846" lon="5.72684">
        <ele>705.775</ele>
        <time>2021-03-13T07:23:26Z</time>
      </trkpt>
      <trkpt lat="45.20844" lon="5.72684">
        <ele>704.022</ele>
        <time>2021-03-13T07:23:28Z</time>
      </trkpt>
      <trkpt lat="45.20841" lon="5.72683">
        <ele>703.364</ele>
        <time>2021-03-13T07:23:30Z</time>
      </trkpt>
      <trkpt lat="45.2084" lon="5.72682">
        <ele>701.122</ele>
        <time>2021-03-13T07:23:32Z</time>
      </trkpt>
      <trkpt lat="45.20839" lon="5.72679">
        <ele>699.663</ele>
        <time>2021-03-13T07:23:35Z</time>
      </trkpt>
      <trkpt lat="45.20837" lon="5.72668">
        <ele>697.151</ele>
        <time>2021-03-13T07:23:42Z</time>
      </trkpt>
      <trkpt lat="45.20836" lon="5.72665">
        <ele>696.074</ele>
        <time>2021-03-13T07:23:44Z</time>
      </trkpt>
      <trkpt lat="45.20829" lon="5.72656">
        <ele>693.968</ele>
        <time>2021-03-13T07:23:50Z</time>
      </trkpt>
      <trkpt lat="45.20827" lon="5.72657">
        <ele>693.506</ele>
        <time>2021-03-13T07:23:52Z</time>
      </trkpt>
      <trkpt lat="45.20823" lon="5.72663">
        <ele>692.147</ele>
        <time>2021-03-13T07:23:56Z</time>
      </trkpt>
      <trkpt lat="45.2082" lon="5.72668">
        <ele>690.671</ele>
        <time>2021-03-13T07:23:58Z</time>
      </trkpt>
      <trkpt lat="45.20816" lon="5.7267">
        <ele>689.405</ele>
        <time>2021-03-13T07:24:00Z</time>
      </trkpt>
      <trkpt lat="45.2081" lon="5.72665">
        <ele>687.238</ele>
        <time>2021-03-13T07:24:04Z</time>
      </trkpt>
      <trkpt lat="45.20806" lon="5.72656">
        <ele>685.989</ele>
        <time>2021-03-13T07:24:09Z</time>
      </trkpt>
      <trkpt lat="45.20806" lon="5.72653">
        <ele>684.841</ele>
        <time>2021-03-13T07:24:10Z</time>
      </trkpt>
      <trkpt lat="45.20805" lon="5.72641">
        <ele>682.268</ele>
        <time>2021-03-13T07:24:17Z</time>
      </trkpt>
      <trkpt lat="45.20803" lon="5.72639">
        <ele>681.983</ele>
        <time>2021-03-13T07:24:19Z</time>
      </trkpt>
      <trkpt lat="45.20798" lon="5.72628">
        <ele>678.732</ele>
        <time>2021-03-13T07:24:26Z</time>
      </trkpt>
      <trkpt lat="45.20797" lon="5.72628">
        <ele>678.847</ele>
        <time>2021-03-13T07:24:28Z</time>
      </trkpt>
      <trkpt lat="45.20797" lon="5.72632">
        <ele>677.235</ele>
        <time>2021-03-13T07:24:30Z</time>
      </trkpt>
      <trkpt lat="45.20793" lon="5.72637">
        <ele>676.241</ele>
        <time>2021-03-13T07:24:34Z</time>
      </trkpt>
      <trkpt lat="45.20783" lon="5.72643">
        <ele>673.065</ele>
        <time>2021-03-13T07:24:42Z</time>
      </trkpt>
      <trkpt lat="45.20782" lon="5.72642">
        <ele>672.89</ele>
        <time>2021-03-13T07:24:43Z</time>
      </trkpt>
      <trkpt lat="45.20781" lon="5.72642">
        <ele>672.151</ele>
        <time>2021-03-13T07:24:45Z</time>
      </trkpt>
      <trkpt lat="45.20778" lon="5.7264">
        <ele>670.363</ele>
        <time>2021-03-13T07:24:49Z</time>
      </trkpt>
      <trkpt lat="45.20776" lon="5.72637">
        <ele>668.702</ele>
        <time>2021-03-13T07:24:52Z</time>
      </trkpt>
      <trkpt lat="45.20776" lon="5.72633">
        <ele>668.317</ele>
        <time>2021-03-13T07:24:54Z</time>
      </trkpt>
      <trkpt lat="45.20777" lon="5.72621">
        <ele>666.761</ele>
        <time>2021-03-13T07:25:01Z</time>
      </trkpt>
      <trkpt lat="45.20771" lon="5.72616">
        <ele>664.047</ele>
        <time>2021-03-13T07:25:05Z</time>
      </trkpt>
      <trkpt lat="45.20766" lon="5.72614">
        <ele>660.993</ele>
        <time>2021-03-13T07:25:09Z</time>
      </trkpt>
      <trkpt lat="45.2076" lon="5.72611">
        <ele>659.101</ele>
        <time>2021-03-13T07:25:14Z</time>
      </trkpt>
      <trkpt lat="45.20757" lon="5.7261">
        <ele>658.043</ele>
        <time>2021-03-13T07:25:16Z</time>
      </trkpt>
      <trkpt lat="45.2075" lon="5.72608">
        <ele>657.288</ele>
        <time>2021-03-13T07:25:22Z</time>
      </trkpt>
      <trkpt lat="45.20747" lon="5.726">
        <ele>655.308</ele>
        <time>2021-03-13T07:25:27Z</time>
      </trkpt>
      <trkpt lat="45.20745" lon="5.72596">
        <ele>652.835</ele>
        <time>2021-03-13T07:25:29Z</time>
      </trkpt>
      <trkpt lat="45.20744" lon="5.72591">
        <ele>651.778</ele>
        <time>2021-03-13T07:25:31Z</time>
      </trkpt>
      <trkpt lat="45.20732" lon="5.72588">
        <ele>649.557</ele>
        <time>2021-03-13T07:25:37Z</time>
      </trkpt>
      <trkpt lat="45.20722" lon="5.72581">
        <ele>646.025</ele>
        <time>2021-03-13T07:25:44Z</time>
      </trkpt>
      <trkpt lat="45.2072" lon="5.7258">
        <ele>645.881</ele>
        <time>2021-03-13T07:25:45Z</time>
      </trkpt>
      <trkpt lat="45.20719" lon="5.7258">
        <ele>645.401</ele>
        <time>2021-03-13T07:25:46Z</time>
      </trkpt>
      <trkpt lat="45.2071" lon="5.72576">
        <ele>643.114</ele>
        <time>2021-03-13T07:25:52Z</time>
      </trkpt>
      <trkpt lat="45.20701" lon="5.7257">
        <ele>641.917</ele>
        <time>2021-03-13T07:25:57Z</time>
      </trkpt>
      <trkpt lat="45.20694" lon="5.72569">
        <ele>640.185</ele>
        <time>2021-03-13T07:26:01Z</time>
      </trkpt>
      <trkpt lat="45.20678" lon="5.72575">
        <ele>637.035</ele>
        <time>2021-03-13T07:26:07Z</time>
      </trkpt>
      <trkpt lat="45.2067" lon="5.72583">
        <ele>635.241</ele>
        <time>2021-03-13T07:26:12Z</time>
      </trkpt>
      <trkpt lat="45.20658" lon="5.72594">
        <ele>634.901</ele>
        <time>2021-03-13T07:26:17Z</time>
      </trkpt>
      <trkpt lat="45.20643" lon="5.72602">
        <ele>632.456</ele>
        <time>2021-03-13T07:26:23Z</time>
      </trkpt>
      <trkpt lat="45.20635" lon="5.72603">
        <ele>632.223</ele>
        <time>2021-03-13T07:26:26Z</time>
      </trkpt>
      <trkpt lat="45.2062" lon="5.72598">
        <ele>630.412</ele>
        <time>2021-03-13T07:26:33Z</time>
      </trkpt>
      <trkpt lat="45.20611" lon="5.72591">
        <ele>629.098</ele>
        <time>2021-03-13T07:26:38Z</time>
      </trkpt>
      <trkpt lat="45.20597" lon="5.72581">
        <ele>628.006</ele>
        <time>2021-03-13T07:26:45Z</time>
      </trkpt>
      <trkpt lat="45.20593" lon="5.72578">
        <ele>628.009</ele>
        <time>2021-03-13T07:26:47Z</time>
      </trkpt>
      <trkpt lat="45.20582" lon="5.7257">
        <ele>626.135</ele>
        <time>2021-03-13T07:26:53Z</time>
      </trkpt>
      <trkpt lat="45.20578" lon="5.72567">
        <ele>625.852</ele>
        <time>2021-03-13T07:26:55Z</time>
      </trkpt>
      <trkpt lat="45.20575" lon="5.72566">
        <ele>624.864</ele>
        <time>2021-03-13T07:26:57Z</time>
      </trkpt>
      <trkpt lat="45.2056" lon="5.72559">
        <ele>624.233</ele>
        <time>2021-03-13T07:27:03Z</time>
      </trkpt>
      <trkpt lat="45.20558" lon="5.72558">
        <ele>624.581</ele>
        <time>2021-03-13T07:27:04Z</time>
      </trkpt>
      <trkpt lat="45.20542" lon="5.72566">
        <ele>623.074</ele>
        <time>2021-03-13T07:27:10Z</time>
      </trkpt>
      <trkpt lat="45.20534" lon="5.72571">
        <ele>621.51</ele>
        <time>2021-03-13T07:27:15Z</time>
      </trkpt>
      <trkpt lat="45.20517" lon="5.72575">
        <ele>621.054</ele>
        <time>2021-03-13T07:27:20Z</time>
      </trkpt>
      <trkpt lat="45.20492" lon="5.72564">
        <ele>620.138</ele>
        <time>2021-03-13T07:27:29Z</time>
      </trkpt>
      <trkpt lat="45.20475" lon="5.7255">
        <ele>617.594</ele>
        <time>2021-03-13T07:27:36Z</time>
      </trkpt>
      <trkpt lat="45.20466" lon="5.72539">
        <ele>615.522</ele>
        <time>2021-03-13T07:27:41Z</time>
      </trkpt>
      <trkpt lat="45.20454" lon="5.72524">
        <ele>614.131</ele>
        <time>2021-03-13T07:27:48Z</time>
      </trkpt>
      <trkpt lat="45.20448" lon="5.72518">
        <ele>613.764</ele>
        <time>2021-03-13T07:27:51Z</time>
      </trkpt>
      <trkpt lat="45.20444" lon="5.72521">
        <ele>612.197</ele>
        <time>2021-03-13T07:27:54Z</time>
      </trkpt>
      <trkpt lat="45.20442" lon="5.72532">
        <ele>610.827</ele>
        <time>2021-03-13T07:27:58Z</time>
      </trkpt>
      <trkpt lat="45.20444" lon="5.72541">
        <ele>609.8</ele>
        <time>2021-03-13T07:28:01Z</time>
      </trkpt>
      <trkpt lat="45.20456" lon="5.72559">
        <ele>608.646</ele>
        <time>2021-03-13T07:28:07Z</time>
      </trkpt>
      <trkpt lat="45.20469" lon="5.72577">
        <ele>607.02</ele>
        <time>2021-03-13T07:28:14Z</time>
      </trkpt>
      <trkpt lat="45.20474" lon="5.72597">
        <ele>605.64</ele>
        <time>2021-03-13T07:28:20Z</time>
      </trkpt>
      <trkpt lat="45.20485" lon="5.72612">
        <ele>603.416</ele>
        <time>2021-03-13T07:28:26Z</time>
      </trkpt>
      <trkpt lat="45.20496" lon="5.7262">
        <ele>600.918</ele>
        <time>2021-03-13T07:28:32Z</time>
      </trkpt>
      <trkpt lat="45.2051" lon="5.72624">
        <ele>599.682</ele>
        <time>2021-03-13T07:28:38Z</time>
      </trkpt>
      <trkpt lat="45.20521" lon="5.72631">
        <ele>599.455</ele>
        <time>2021-03-13T07:28:42Z</time>
      </trkpt>
      <trkpt lat="45.20536" lon="5.72649">
        <ele>598.473</ele>
        <time>2021-03-13T07:28:49Z</time>
      </trkpt>
      <trkpt lat="45.2055" lon="5.72672">
        <ele>596.787</ele>
        <time>2021-03-13T07:28:56Z</time>
      </trkpt>
      <trkpt lat="45.2056" lon="5.72683">
        <ele>595.213</ele>
        <time>2021-03-13T07:29:01Z</time>
      </trkpt>
      <trkpt lat="45.20563" lon="5.72688">
        <ele>593.529</ele>
        <time>2021-03-13T07:29:03Z</time>
      </trkpt>
      <trkpt lat="45.20577" lon="5.72699">
        <ele>594.325</ele>
        <time>2021-03-13T07:29:09Z</time>
      </trkpt>
      <trkpt lat="45.20587" lon="5.72709">
        <ele>592.493</ele>
        <time>2021-03-13T07:29:14Z</time>
      </trkpt>
      <trkpt lat="45.20584" lon="5.72711">
        <ele>591.638</ele>
        <time>2021-03-13T07:29:15Z</time>
      </trkpt>
      <trkpt lat="45.20568" lon="5.72712">
        <ele>590.422</ele>
        <time>2021-03-13T07:29:19Z</time>
      </trkpt>
      <trkpt lat="45.20562" lon="5.72712">
        <ele>590.221</ele>
        <time>2021-03-13T07:29:21Z</time>
      </trkpt>
      <trkpt lat="45.20544" lon="5.72695">
        <ele>587.088</ele>
        <time>2021-03-13T07:29:30Z</time>
      </trkpt>
      <trkpt lat="45.20535" lon="5.72688">
        <ele>585.529</ele>
        <time>2021-03-13T07:29:35Z</time>
      </trkpt>
      <trkpt lat="45.20522" lon="5.72678">
        <ele>583.64</ele>
        <time>2021-03-13T07:29:42Z</time>
      </trkpt>
      <trkpt lat="45.2052" lon="5.72677">
        <ele>583.159</ele>
        <time>2021-03-13T07:29:43Z</time>
      </trkpt>
      <trkpt lat="45.20501" lon="5.72664">
        <ele>580.85</ele>
        <time>2021-03-13T07:29:52Z</time>
      </trkpt>
      <trkpt lat="45.20496" lon="5.72662">
        <ele>580.2</ele>
        <time>2021-03-13T07:29:54Z</time>
      </trkpt>
      <trkpt lat="45.2048" lon="5.72654">
        <ele>578.473</ele>
        <time>2021-03-13T07:30:01Z</time>
      </trkpt>
      <trkpt lat="45.20476" lon="5.72654">
        <ele>576.674</ele>
        <time>2021-03-13T07:30:03Z</time>
      </trkpt>
      <trkpt lat="45.20461" lon="5.72642">
        <ele>575.545</ele>
        <time>2021-03-13T07:30:11Z</time>
      </trkpt>
      <trkpt lat="45.20457" lon="5.72641">
        <ele>574.872</ele>
        <time>2021-03-13T07:30:13Z</time>
      </trkpt>
      <trkpt lat="45.20448" lon="5.7264">
        <ele>573.607</ele>
        <time>2021-03-13T07:30:17Z</time>
      </trkpt>
      <trkpt lat="45.20429" lon="5.72625">
        <ele>571.979</ele>
        <time>2021-03-13T07:30:24Z</time>
      </trkpt>
      <trkpt lat="45.20417" lon="5.72623">
        <ele>570.507</ele>
        <time>2021-03-13T07:30:30Z</time>
      </trkpt>
      <trkpt lat="45.20416" lon="5.72637">
        <ele>568.865</ele>
        <time>2021-03-13T07:30:33Z</time>
      </trkpt>
      <trkpt lat="45.20428" lon="5.72652">
        <ele>568.309</ele>
        <time>2021-03-13T07:30:38Z</time>
      </trkpt>
      <trkpt lat="45.20443" lon="5.72665">
        <ele>566.375</ele>
        <time>2021-03-13T07:30:45Z</time>
      </trkpt>
      <trkpt lat="45.20447" lon="5.72672">
        <ele>566.189</ele>
        <time>2021-03-13T07:30:50Z</time>
      </trkpt>
      <trkpt lat="45.20445" lon="5.72675">
        <ele>566.828</ele>
        <time>2021-03-13T07:30:54Z</time>
      </trkpt>
      <trkpt lat="45.20445" lon="5.72674">
        <ele>566.13</ele>
        <time>2021-03-13T07:30:56Z</time>
      </trkpt>
      <trkpt lat="45.20445" lon="5.72679">
        <ele>565.944</ele>
        <time>2021-03-13T07:31:17Z</time>
      </trkpt>
      <trkpt lat="45.20448" lon="5.72677">
        <ele>564.53</ele>
        <time>2021-03-13T07:31:19Z</time>
      </trkpt>
      <trkpt lat="45.20455" lon="5.72678">
        <ele>564.306</ele>
        <time>2021-03-13T07:31:24Z</time>
      </trkpt>
      <trkpt lat="45.20466" lon="5.72688">
        <ele>561.314</ele>
        <time>2021-03-13T07:31:30Z</time>
      </trkpt>
      <trkpt lat="45.20486" lon="5.72705">
        <ele>559.915</ele>
        <time>2021-03-13T07:31:36Z</time>
      </trkpt>
      <trkpt lat="45.20501" lon="5.7272">
        <ele>558.253</ele>
        <time>2021-03-13T07:31:42Z</time>
      </trkpt>
      <trkpt lat="45.20516" lon="5.72734">
        <ele>556.179</ele>
        <time>2021-03-13T07:31:48Z</time>
      </trkpt>
      <trkpt lat="45.20525" lon="5.72748">
        <ele>555.366</ele>
        <time>2021-03-13T07:31:53Z</time>
      </trkpt>
      <trkpt lat="45.20512" lon="5.72748">
        <ele>554.01</ele>
        <time>2021-03-13T07:31:56Z</time>
      </trkpt>
      <trkpt lat="45.20504" lon="5.7274">
        <ele>553.148</ele>
        <time>2021-03-13T07:31:59Z</time>
      </trkpt>
      <trkpt lat="45.20491" lon="5.72731">
        <ele>552.357</ele>
        <time>2021-03-13T07:32:04Z</time>
      </trkpt>
      <trkpt lat="45.20479" lon="5.72722">
        <ele>551.087</ele>
        <time>2021-03-13T07:32:11Z</time>
      </trkpt>
      <trkpt lat="45.20475" lon="5.72721">
        <ele>549.695</ele>
        <time>2021-03-13T07:32:13Z</time>
      </trkpt>
      <trkpt lat="45.20469" lon="5.7272">
        <ele>548.754</ele>
        <time>2021-03-13T07:32:16Z</time>
      </trkpt>
      <trkpt lat="45.20448" lon="5.72718">
        <ele>545.901</ele>
        <time>2021-03-13T07:32:24Z</time>
      </trkpt>
      <trkpt lat="45.20432" lon="5.72715">
        <ele>544.249</ele>
        <time>2021-03-13T07:32:31Z</time>
      </trkpt>
      <trkpt lat="45.20417" lon="5.72705">
        <ele>543.046</ele>
        <time>2021-03-13T07:32:38Z</time>
      </trkpt>
      <trkpt lat="45.20403" lon="5.72694">
        <ele>540.221</ele>
        <time>2021-03-13T07:32:45Z</time>
      </trkpt>
      <trkpt lat="45.20393" lon="5.72681">
        <ele>537.367</ele>
        <time>2021-03-13T07:32:51Z</time>
      </trkpt>
      <trkpt lat="45.20382" lon="5.72669">
        <ele>535.973</ele>
        <time>2021-03-13T07:32:57Z</time>
      </trkpt>
      <trkpt lat="45.20365" lon="5.72656">
        <ele>532.929</ele>
        <time>2021-03-13T07:33:05Z</time>
      </trkpt>
      <trkpt lat="45.20353" lon="5.72647">
        <ele>531.451</ele>
        <time>2021-03-13T07:33:10Z</time>
      </trkpt>
      <trkpt lat="45.20346" lon="5.7264">
        <ele>530.635</ele>
        <time>2021-03-13T07:33:14Z</time>
      </trkpt>
      <trkpt lat="45.20328" lon="5.72627">
        <ele>527.493</ele>
        <time>2021-03-13T07:33:22Z</time>
      </trkpt>
      <trkpt lat="45.20318" lon="5.72618">
        <ele>525.927</ele>
        <time>2021-03-13T07:33:28Z</time>
      </trkpt>
      <trkpt lat="45.2031" lon="5.72611">
        <ele>523.295</ele>
        <time>2021-03-13T07:33:33Z</time>
      </trkpt>
      <trkpt lat="45.20294" lon="5.72611">
        <ele>521.263</ele>
        <time>2021-03-13T07:33:39Z</time>
      </trkpt>
      <trkpt lat="45.20288" lon="5.72609">
        <ele>519.455</ele>
        <time>2021-03-13T07:33:42Z</time>
      </trkpt>
      <trkpt lat="45.20274" lon="5.72607">
        <ele>517.289</ele>
        <time>2021-03-13T07:33:49Z</time>
      </trkpt>
      <trkpt lat="45.20269" lon="5.72608">
        <ele>517.16</ele>
        <time>2021-03-13T07:33:51Z</time>
      </trkpt>
      <trkpt lat="45.20258" lon="5.72608">
        <ele>515.705</ele>
        <time>2021-03-13T07:33:56Z</time>
      </trkpt>
      <trkpt lat="45.2024" lon="5.72607">
        <ele>512.698</ele>
        <time>2021-03-13T07:34:03Z</time>
      </trkpt>
      <trkpt lat="45.20228" lon="5.72601">
        <ele>510.414</ele>
        <time>2021-03-13T07:34:08Z</time>
      </trkpt>
      <trkpt lat="45.20214" lon="5.72595">
        <ele>508.988</ele>
        <time>2021-03-13T07:34:15Z</time>
      </trkpt>
      <trkpt lat="45.20203" lon="5.72585">
        <ele>506.764</ele>
        <time>2021-03-13T07:34:21Z</time>
      </trkpt>
      <trkpt lat="45.20201" lon="5.72583">
        <ele>506.519</ele>
        <time>2021-03-13T07:34:22Z</time>
      </trkpt>
      <trkpt lat="45.20183" lon="5.72574">
        <ele>503.937</ele>
        <time>2021-03-13T07:34:29Z</time>
      </trkpt>
      <trkpt lat="45.20175" lon="5.72568">
        <ele>501.864</ele>
        <time>2021-03-13T07:34:33Z</time>
      </trkpt>
      <trkpt lat="45.20169" lon="5.72562">
        <ele>499.653</ele>
        <time>2021-03-13T07:34:36Z</time>
      </trkpt>
      <trkpt lat="45.20154" lon="5.72553">
        <ele>497.722</ele>
        <time>2021-03-13T07:34:42Z</time>
      </trkpt>
      <trkpt lat="45.20137" lon="5.72549">
        <ele>496.223</ele>
        <time>2021-03-13T07:34:48Z</time>
      </trkpt>
      <trkpt lat="45.2013" lon="5.72547">
        <ele>494.774</ele>
        <time>2021-03-13T07:34:51Z</time>
      </trkpt>
      <trkpt lat="45.20119" lon="5.72543">
        <ele>491.865</ele>
        <time>2021-03-13T07:34:56Z</time>
      </trkpt>
      <trkpt lat="45.20106" lon="5.7254">
        <ele>489.977</ele>
        <time>2021-03-13T07:35:03Z</time>
      </trkpt>
      <trkpt lat="45.20103" lon="5.7254">
        <ele>489.314</ele>
        <time>2021-03-13T07:35:05Z</time>
      </trkpt>
      <trkpt lat="45.20091" lon="5.72542">
        <ele>487.216</ele>
        <time>2021-03-13T07:35:10Z</time>
      </trkpt>
      <trkpt lat="45.20072" lon="5.7255">
        <ele>483.386</ele>
        <time>2021-03-13T07:35:18Z</time>
      </trkpt>
      <trkpt lat="45.2007" lon="5.72552">
        <ele>483.167</ele>
        <time>2021-03-13T07:35:19Z</time>
      </trkpt>
      <trkpt lat="45.20074" lon="5.72552">
        <ele>483.311</ele>
        <time>2021-03-13T07:35:24Z</time>
      </trkpt>
      <trkpt lat="45.20075" lon="5.72549">
        <ele>484.005</ele>
        <time>2021-03-13T07:35:39Z</time>
      </trkpt>
      <trkpt lat="45.20073" lon="5.72532">
        <ele>486.193</ele>
        <time>2021-03-13T07:35:46Z</time>
      </trkpt>
      <trkpt lat="45.20072" lon="5.72505">
        <ele>484.325</ele>
        <time>2021-03-13T07:35:52Z</time>
      </trkpt>
      <trkpt lat="45.20073" lon="5.725">
        <ele>484.089</ele>
        <time>2021-03-13T07:35:53Z</time>
      </trkpt>
      <trkpt lat="45.20078" lon="5.72478">
        <ele>483.6</ele>
        <time>2021-03-13T07:35:59Z</time>
      </trkpt>
      <trkpt lat="45.20076" lon="5.72448">
        <ele>481.517</ele>
        <time>2021-03-13T07:36:06Z</time>
      </trkpt>
      <trkpt lat="45.20067" lon="5.7243">
        <ele>479.734</ele>
        <time>2021-03-13T07:36:11Z</time>
      </trkpt>
      <trkpt lat="45.20053" lon="5.72425">
        <ele>476.983</ele>
        <time>2021-03-13T07:36:17Z</time>
      </trkpt>
      <trkpt lat="45.20043" lon="5.72423">
        <ele>475.535</ele>
        <time>2021-03-13T07:36:20Z</time>
      </trkpt>
      <trkpt lat="45.20019" lon="5.72419">
        <ele>473.459</ele>
        <time>2021-03-13T07:36:28Z</time>
      </trkpt>
      <trkpt lat="45.20003" lon="5.72416">
        <ele>471.479</ele>
        <time>2021-03-13T07:36:33Z</time>
      </trkpt>
      <trkpt lat="45.19996" lon="5.72417">
        <ele>470.362</ele>
        <time>2021-03-13T07:36:35Z</time>
      </trkpt>
      <trkpt lat="45.19974" lon="5.72415">
        <ele>467.989</ele>
        <time>2021-03-13T07:36:42Z</time>
      </trkpt>
      <trkpt lat="45.19952" lon="5.72415">
        <ele>465.688</ele>
        <time>2021-03-13T07:36:49Z</time>
      </trkpt>
      <trkpt lat="45.19937" lon="5.72418">
        <ele>464.681</ele>
        <time>2021-03-13T07:36:54Z</time>
      </trkpt>
      <trkpt lat="45.19913" lon="5.72425">
        <ele>465.943</ele>
        <time>2021-03-13T07:37:02Z</time>
      </trkpt>
      <trkpt lat="45.19895" lon="5.72436">
        <ele>468.16</ele>
        <time>2021-03-13T07:37:09Z</time>
      </trkpt>
      <trkpt lat="45.19893" lon="5.72438">
        <ele>468.521</ele>
        <time>2021-03-13T07:37:10Z</time>
      </trkpt>
      <trkpt lat="45.19889" lon="5.7245">
        <ele>469.82</ele>
        <time>2021-03-13T07:37:14Z</time>
      </trkpt>
      <trkpt lat="45.19887" lon="5.72471">
        <ele>469.73</ele>
        <time>2021-03-13T07:37:20Z</time>
      </trkpt>
      <trkpt lat="45.19886" lon="5.72474">
        <ele>469.824</ele>
        <time>2021-03-13T07:37:22Z</time>
      </trkpt>
      <trkpt lat="45.19861" lon="5.72494">
        <ele>469.52</ele>
        <time>2021-03-13T07:37:28Z</time>
      </trkpt>
      <trkpt lat="45.1986" lon="5.72499">
        <ele>470.121</ele>
        <time>2021-03-13T07:37:29Z</time>
      </trkpt>
      <trkpt lat="45.19861" lon="5.7253">
        <ele>468.351</ele>
        <time>2021-03-13T07:37:36Z</time>
      </trkpt>
      <trkpt lat="45.19862" lon="5.72535">
        <ele>466.984</ele>
        <time>2021-03-13T07:37:37Z</time>
      </trkpt>
      <trkpt lat="45.19864" lon="5.72546">
        <ele>466.371</ele>
        <time>2021-03-13T07:37:39Z</time>
      </trkpt>
      <trkpt lat="45.19864" lon="5.72561">
        <ele>464.535</ele>
        <time>2021-03-13T07:37:42Z</time>
      </trkpt>
      <trkpt lat="45.19855" lon="5.72542">
        <ele>463.548</ele>
        <time>2021-03-13T07:37:46Z</time>
      </trkpt>
      <trkpt lat="45.19853" lon="5.72532">
        <ele>463.247</ele>
        <time>2021-03-13T07:37:48Z</time>
      </trkpt>
      <trkpt lat="45.19851" lon="5.72505">
        <ele>461.923</ele>
        <time>2021-03-13T07:37:55Z</time>
      </trkpt>
      <trkpt lat="45.19848" lon="5.7248">
        <ele>459.804</ele>
        <time>2021-03-13T07:38:00Z</time>
      </trkpt>
      <trkpt lat="45.19846" lon="5.72475">
        <ele>459.203</ele>
        <time>2021-03-13T07:38:01Z</time>
      </trkpt>
      <trkpt lat="45.19846" lon="5.72444">
        <ele>457.201</ele>
        <time>2021-03-13T07:38:08Z</time>
      </trkpt>
      <trkpt lat="45.1984" lon="5.72434">
        <ele>456.526</ele>
        <time>2021-03-13T07:38:11Z</time>
      </trkpt>
      <trkpt lat="45.19836" lon="5.72459">
        <ele>455.252</ele>
        <time>2021-03-13T07:38:16Z</time>
      </trkpt>
      <trkpt lat="45.19834" lon="5.72464">
        <ele>454.641</ele>
        <time>2021-03-13T07:38:17Z</time>
      </trkpt>
      <trkpt lat="45.19827" lon="5.72496">
        <ele>451.412</ele>
        <time>2021-03-13T07:38:25Z</time>
      </trkpt>
      <trkpt lat="45.19827" lon="5.72504">
        <ele>450.495</ele>
        <time>2021-03-13T07:38:27Z</time>
      </trkpt>
      <trkpt lat="45.19825" lon="5.72524">
        <ele>447.601</ele>
        <time>2021-03-13T07:38:32Z</time>
      </trkpt>
      <trkpt lat="45.19825" lon="5.72556">
        <ele>446.103</ele>
        <time>2021-03-13T07:38:40Z</time>
      </trkpt>
      <trkpt lat="45.19829" lon="5.72573">
        <ele>444.09</ele>
        <time>2021-03-13T07:38:44Z</time>
      </trkpt>
      <trkpt lat="45.1983" lon="5.72594">
        <ele>443.135</ele>
        <time>2021-03-13T07:38:49Z</time>
      </trkpt>
      <trkpt lat="45.19836" lon="5.72629">
        <ele>441.694</ele>
        <time>2021-03-13T07:38:57Z</time>
      </trkpt>
      <trkpt lat="45.19836" lon="5.72641">
        <ele>438.416</ele>
        <time>2021-03-13T07:39:00Z</time>
      </trkpt>
      <trkpt lat="45.19841" lon="5.72653">
        <ele>439.428</ele>
        <time>2021-03-13T07:39:04Z</time>
      </trkpt>
      <trkpt lat="45.19841" lon="5.72657">
        <ele>438.575</ele>
        <time>2021-03-13T07:39:05Z</time>
      </trkpt>
      <trkpt lat="45.19863" lon="5.72678">
        <ele>436.319</ele>
        <time>2021-03-13T07:39:13Z</time>
      </trkpt>
      <trkpt lat="45.19866" lon="5.72684">
        <ele>435.647</ele>
        <time>2021-03-13T07:39:15Z</time>
      </trkpt>
      <trkpt lat="45.19866" lon="5.72685">
        <ele>435.385</ele>
        <time>2021-03-13T07:39:16Z</time>
      </trkpt>
      <trkpt lat="45.19847" lon="5.72677">
        <ele>434.305</ele>
        <time>2021-03-13T07:39:21Z</time>
      </trkpt>
      <trkpt lat="45.19828" lon="5.7266">
        <ele>431.801</ele>
        <time>2021-03-13T07:39:28Z</time>
      </trkpt>
      <trkpt lat="45.19825" lon="5.72657">
        <ele>431.636</ele>
        <time>2021-03-13T07:39:29Z</time>
      </trkpt>
      <trkpt lat="45.19808" lon="5.72649">
        <ele>430.636</ele>
        <time>2021-03-13T07:39:35Z</time>
      </trkpt>
      <trkpt lat="45.19795" lon="5.72638">
        <ele>428.909</ele>
        <time>2021-03-13T07:39:40Z</time>
      </trkpt>
      <trkpt lat="45.19789" lon="5.72614">
        <ele>427.378</ele>
        <time>2021-03-13T07:39:46Z</time>
      </trkpt>
      <trkpt lat="45.19786" lon="5.72611">
        <ele>427.481</ele>
        <time>2021-03-13T07:39:47Z</time>
      </trkpt>
      <trkpt lat="45.19786" lon="5.72578">
        <ele>425.969</ele>
        <time>2021-03-13T07:39:54Z</time>
      </trkpt>
      <trkpt lat="45.19785" lon="5.72554">
        <ele>424.182</ele>
        <time>2021-03-13T07:40:00Z</time>
      </trkpt>
      <trkpt lat="45.19785" lon="5.72534">
        <ele>422.687</ele>
        <time>2021-03-13T07:40:05Z</time>
      </trkpt>
      <trkpt lat="45.19784" lon="5.7253">
        <ele>420.385</ele>
        <time>2021-03-13T07:40:11Z</time>
      </trkpt>
      <trkpt lat="45.19782" lon="5.72555">
        <ele>418.936</ele>
        <time>2021-03-13T07:40:17Z</time>
      </trkpt>
      <trkpt lat="45.19781" lon="5.7256">
        <ele>418.838</ele>
        <time>2021-03-13T07:40:18Z</time>
      </trkpt>
      <trkpt lat="45.19769" lon="5.72581">
        <ele>416.152</ele>
        <time>2021-03-13T07:40:24Z</time>
      </trkpt>
      <trkpt lat="45.19762" lon="5.72573">
        <ele>414.586</ele>
        <time>2021-03-13T07:40:28Z</time>
      </trkpt>
      <trkpt lat="45.19761" lon="5.72546">
        <ele>412.259</ele>
        <time>2021-03-13T07:40:34Z</time>
      </trkpt>
      <trkpt lat="45.1976" lon="5.72531">
        <ele>411.358</ele>
        <time>2021-03-13T07:40:38Z</time>
      </trkpt>
      <trkpt lat="45.19771" lon="5.72504">
        <ele>409.205</ele>
        <time>2021-03-13T07:40:45Z</time>
      </trkpt>
      <trkpt lat="45.19768" lon="5.72506">
        <ele>409.259</ele>
        <time>2021-03-13T07:40:49Z</time>
      </trkpt>
      <trkpt lat="45.19757" lon="5.72524">
        <ele>406.599</ele>
        <time>2021-03-13T07:40:55Z</time>
      </trkpt>
      <trkpt lat="45.19754" lon="5.72543">
        <ele>406.808</ele>
        <time>2021-03-13T07:41:00Z</time>
      </trkpt>
      <trkpt lat="45.19753" lon="5.72579">
        <ele>406.705</ele>
        <time>2021-03-13T07:41:09Z</time>
      </trkpt>
      <trkpt lat="45.19756" lon="5.726">
        <ele>407.133</ele>
        <time>2021-03-13T07:41:14Z</time>
      </trkpt>
      <trkpt lat="45.19762" lon="5.7263">
        <ele>406.985</ele>
        <time>2021-03-13T07:41:21Z</time>
      </trkpt>
      <trkpt lat="45.19772" lon="5.72655">
        <ele>406.807</ele>
        <time>2021-03-13T07:41:27Z</time>
      </trkpt>
      <trkpt lat="45.19789" lon="5.72678">
        <ele>407.639</ele>
        <time>2021-03-13T07:41:34Z</time>
      </trkpt>
      <trkpt lat="45.19808" lon="5.72693">
        <ele>407.882</ele>
        <time>2021-03-13T07:41:41Z</time>
      </trkpt>
      <trkpt lat="45.19821" lon="5.72704">
        <ele>409.741</ele>
        <time>2021-03-13T07:41:47Z</time>
      </trkpt>
      <trkpt lat="45.19835" lon="5.72729">
        <ele>409.577</ele>
        <time>2021-03-13T07:41:53Z</time>
      </trkpt>
      <trkpt lat="45.19844" lon="5.72743">
        <ele>410.09</ele>
        <time>2021-03-13T07:41:58Z</time>
      </trkpt>
      <trkpt lat="45.19849" lon="5.72747">
        <ele>406.889</ele>
        <time>2021-03-13T07:42:03Z</time>
      </trkpt>
      <trkpt lat="45.1985" lon="5.72748">
        <ele>406.704</ele>
        <time>2021-03-13T07:42:04Z</time>
      </trkpt>
      <trkpt lat="45.19853" lon="5.72742">
        <ele>406.763</ele>
        <time>2021-03-13T07:42:07Z</time>
      </trkpt>
      <trkpt lat="45.19863" lon="5.72737">
        <ele>405.36</ele>
        <time>2021-03-13T07:42:10Z</time>
      </trkpt>
      <trkpt lat="45.19854" lon="5.72761">
        <ele>402.339</ele>
        <time>2021-03-13T07:42:18Z</time>
      </trkpt>
      <trkpt lat="45.19853" lon="5.72755">
        <ele>400.918</ele>
        <time>2021-03-13T07:42:20Z</time>
      </trkpt>
      <trkpt lat="45.19855" lon="5.72749">
        <ele>398.954</ele>
        <time>2021-03-13T07:42:23Z</time>
      </trkpt>
      <trkpt lat="45.19856" lon="5.72751">
        <ele>397.246</ele>
        <time>2021-03-13T07:42:27Z</time>
      </trkpt>
      <trkpt lat="45.19854" lon="5.72749">
        <ele>394.146</ele>
        <time>2021-03-13T07:42:37Z</time>
      </trkpt>
      <trkpt lat="45.19853" lon="5.72749">
        <ele>390.806</ele>
        <time>2021-03-13T07:42:40Z</time>
      </trkpt>
      <trkpt lat="45.19852" lon="5.72748">
        <ele>387.424</ele>
        <time>2021-03-13T07:42:45Z</time>
      </trkpt>
      <trkpt lat="45.19851" lon="5.72748">
        <ele>386.365</ele>
        <time>2021-03-13T07:42:47Z</time>
      </trkpt>
      <trkpt lat="45.19851" lon="5.72747">
        <ele>385.247</ele>
        <time>2021-03-13T07:42:49Z</time>
      </trkpt>
      <trkpt lat="45.19858" lon="5.72764">
        <ele>382.84</ele>
        <time>2021-03-13T07:42:54Z</time>
      </trkpt>
      <trkpt lat="45.19856" lon="5.72763">
        <ele>381.949</ele>
        <time>2021-03-13T07:42:56Z</time>
      </trkpt>
      <trkpt lat="45.19856" lon="5.72762">
        <ele>380.187</ele>
        <time>2021-03-13T07:43:00Z</time>
      </trkpt>
      <trkpt lat="45.19862" lon="5.72768">
        <ele>378.787</ele>
        <time>2021-03-13T07:43:03Z</time>
      </trkpt>
      <trkpt lat="45.19862" lon="5.72767">
        <ele>378.653</ele>
        <time>2021-03-13T07:43:05Z</time>
      </trkpt>
      <trkpt lat="45.19837" lon="5.72749">
        <ele>375.966</ele>
        <time>2021-03-13T07:43:13Z</time>
      </trkpt>
      <trkpt lat="45.1982" lon="5.72735">
        <ele>374.023</ele>
        <time>2021-03-13T07:43:19Z</time>
      </trkpt>
      <trkpt lat="45.19815" lon="5.72729">
        <ele>372.887</ele>
        <time>2021-03-13T07:43:21Z</time>
      </trkpt>
      <trkpt lat="45.19809" lon="5.7272">
        <ele>372.187</ele>
        <time>2021-03-13T07:43:24Z</time>
      </trkpt>
      <trkpt lat="45.19799" lon="5.72723">
        <ele>370.904</ele>
        <time>2021-03-13T07:43:29Z</time>
      </trkpt>
      <trkpt lat="45.19807" lon="5.72743">
        <ele>369.312</ele>
        <time>2021-03-13T07:43:35Z</time>
      </trkpt>
      <trkpt lat="45.19815" lon="5.72771">
        <ele>366.618</ele>
        <time>2021-03-13T07:43:41Z</time>
      </trkpt>
      <trkpt lat="45.19829" lon="5.72795">
        <ele>363.98</ele>
        <time>2021-03-13T07:43:48Z</time>
      </trkpt>
      <trkpt lat="45.19831" lon="5.72803">
        <ele>362.983</ele>
        <time>2021-03-13T07:43:50Z</time>
      </trkpt>
      <trkpt lat="45.19833" lon="5.72807">
        <ele>362.921</ele>
        <time>2021-03-13T07:43:51Z</time>
      </trkpt>
      <trkpt lat="45.19837" lon="5.72806">
        <ele>361.002</ele>
        <time>2021-03-13T07:43:56Z</time>
      </trkpt>
      <trkpt lat="45.19826" lon="5.72798">
        <ele>359.789</ele>
        <time>2021-03-13T07:44:00Z</time>
      </trkpt>
      <trkpt lat="45.19807" lon="5.72783">
        <ele>357.603</ele>
        <time>2021-03-13T07:44:07Z</time>
      </trkpt>
      <trkpt lat="45.198" lon="5.72777">
        <ele>356.476</ele>
        <time>2021-03-13T07:44:10Z</time>
      </trkpt>
      <trkpt lat="45.19803" lon="5.72784">
        <ele>355.218</ele>
        <time>2021-03-13T07:44:15Z</time>
      </trkpt>
      <trkpt lat="45.19821" lon="5.72803">
        <ele>352.863</ele>
        <time>2021-03-13T07:44:22Z</time>
      </trkpt>
      <trkpt lat="45.19824" lon="5.72804">
        <ele>352.623</ele>
        <time>2021-03-13T07:44:23Z</time>
      </trkpt>
      <trkpt lat="45.19836" lon="5.72815">
        <ele>350.236</ele>
        <time>2021-03-13T07:44:28Z</time>
      </trkpt>
      <trkpt lat="45.19845" lon="5.7282">
        <ele>348.866</ele>
        <time>2021-03-13T07:44:31Z</time>
      </trkpt>
      <trkpt lat="45.19849" lon="5.72823">
        <ele>347.924</ele>
        <time>2021-03-13T07:44:33Z</time>
      </trkpt>
      <trkpt lat="45.19843" lon="5.72811">
        <ele>346.784</ele>
        <time>2021-03-13T07:44:37Z</time>
      </trkpt>
      <trkpt lat="45.19827" lon="5.72811">
        <ele>345.201</ele>
        <time>2021-03-13T07:44:41Z</time>
      </trkpt>
      <trkpt lat="45.19816" lon="5.7281">
        <ele>343.731</ele>
        <time>2021-03-13T07:44:45Z</time>
      </trkpt>
      <trkpt lat="45.19824" lon="5.7282">
        <ele>343.113</ele>
        <time>2021-03-13T07:44:49Z</time>
      </trkpt>
      <trkpt lat="45.19835" lon="5.72832">
        <ele>341.097</ele>
        <time>2021-03-13T07:44:55Z</time>
      </trkpt>
      <trkpt lat="45.19809" lon="5.72825">
        <ele>338.614</ele>
        <time>2021-03-13T07:45:02Z</time>
      </trkpt>
      <trkpt lat="45.19798" lon="5.72825">
        <ele>337.087</ele>
        <time>2021-03-13T07:45:05Z</time>
      </trkpt>
      <trkpt lat="45.19787" lon="5.72816">
        <ele>335.808</ele>
        <time>2021-03-13T07:45:10Z</time>
      </trkpt>
      <trkpt lat="45.19799" lon="5.72822">
        <ele>335.103</ele>
        <time>2021-03-13T07:45:15Z</time>
      </trkpt>
      <trkpt lat="45.19803" lon="5.72824">
        <ele>334.611</ele>
        <time>2021-03-13T07:45:16Z</time>
      </trkpt>
      <trkpt lat="45.19824" lon="5.7284">
        <ele>332.264</ele>
        <time>2021-03-13T07:45:24Z</time>
      </trkpt>
      <trkpt lat="45.19823" lon="5.72843">
        <ele>331.788</ele>
        <time>2021-03-13T07:45:26Z</time>
      </trkpt>
      <trkpt lat="45.19802" lon="5.72835">
        <ele>329.484</ele>
        <time>2021-03-13T07:45:33Z</time>
      </trkpt>
      <trkpt lat="45.19781" lon="5.7283">
        <ele>327.635</ele>
        <time>2021-03-13T07:45:39Z</time>
      </trkpt>
      <trkpt lat="45.19775" lon="5.72827">
        <ele>326.868</ele>
        <time>2021-03-13T07:45:41Z</time>
      </trkpt>
      <trkpt lat="45.19759" lon="5.72816">
        <ele>324.605</ele>
        <time>2021-03-13T07:45:47Z</time>
      </trkpt>
      <trkpt lat="45.19749" lon="5.72811">
        <ele>323.242</ele>
        <time>2021-03-13T07:45:50Z</time>
      </trkpt>
      <trkpt lat="45.19756" lon="5.72813">
        <ele>321.318</ele>
        <time>2021-03-13T07:45:55Z</time>
      </trkpt>
      <trkpt lat="45.19774" lon="5.72829">
        <ele>319.334</ele>
        <time>2021-03-13T07:46:01Z</time>
      </trkpt>
      <trkpt lat="45.19775" lon="5.72832">
        <ele>319.326</ele>
        <time>2021-03-13T07:46:02Z</time>
      </trkpt>
      <trkpt lat="45.19795" lon="5.72854">
        <ele>315.544</ele>
        <time>2021-03-13T07:46:10Z</time>
      </trkpt>
      <trkpt lat="45.19801" lon="5.7286">
        <ele>314.319</ele>
        <time>2021-03-13T07:46:13Z</time>
      </trkpt>
      <trkpt lat="45.19806" lon="5.7287">
        <ele>312.445</ele>
        <time>2021-03-13T07:46:17Z</time>
      </trkpt>
      <trkpt lat="45.19806" lon="5.72874">
        <ele>312.129</ele>
        <time>2021-03-13T07:46:20Z</time>
      </trkpt>
      <trkpt lat="45.19777" lon="5.72869">
        <ele>309.171</ele>
        <time>2021-03-13T07:46:27Z</time>
      </trkpt>
      <trkpt lat="45.19761" lon="5.7286">
        <ele>306.468</ele>
        <time>2021-03-13T07:46:33Z</time>
      </trkpt>
      <trkpt lat="45.19758" lon="5.72859">
        <ele>306.478</ele>
        <time>2021-03-13T07:46:34Z</time>
      </trkpt>
      <trkpt lat="45.19747" lon="5.72844">
        <ele>304.346</ele>
        <time>2021-03-13T07:46:40Z</time>
      </trkpt>
      <trkpt lat="45.19744" lon="5.72843">
        <ele>303.833</ele>
        <time>2021-03-13T07:46:41Z</time>
      </trkpt>
      <trkpt lat="45.1974" lon="5.72843">
        <ele>302.026</ele>
        <time>2021-03-13T07:46:44Z</time>
      </trkpt>
      <trkpt lat="45.19746" lon="5.72846">
        <ele>301.833</ele>
        <time>2021-03-13T07:46:46Z</time>
      </trkpt>
      <trkpt lat="45.1975" lon="5.7285">
        <ele>301.426</ele>
        <time>2021-03-13T07:46:48Z</time>
      </trkpt>
      <trkpt lat="45.19764" lon="5.72867">
        <ele>300.098</ele>
        <time>2021-03-13T07:46:54Z</time>
      </trkpt>
      <trkpt lat="45.19766" lon="5.72868">
        <ele>299.555</ele>
        <time>2021-03-13T07:46:55Z</time>
      </trkpt>
      <trkpt lat="45.19774" lon="5.72874">
        <ele>298.402</ele>
        <time>2021-03-13T07:46:58Z</time>
      </trkpt>
      <trkpt lat="45.19786" lon="5.72893">
        <ele>296.143</ele>
        <time>2021-03-13T07:47:03Z</time>
      </trkpt>
      <trkpt lat="45.1979" lon="5.729">
        <ele>294.842</ele>
        <time>2021-03-13T07:47:05Z</time>
      </trkpt>
      <trkpt lat="45.19798" lon="5.7291">
        <ele>293.043</ele>
        <time>2021-03-13T07:47:09Z</time>
      </trkpt>
      <trkpt lat="45.19798" lon="5.72919">
        <ele>291.639</ele>
        <time>2021-03-13T07:47:13Z</time>
      </trkpt>
      <trkpt lat="45.19776" lon="5.7292">
        <ele>289.452</ele>
        <time>2021-03-13T07:47:18Z</time>
      </trkpt>
      <trkpt lat="45.19759" lon="5.72911">
        <ele>288.337</ele>
        <time>2021-03-13T07:47:24Z</time>
      </trkpt>
      <trkpt lat="45.19744" lon="5.72897">
        <ele>285.86</ele>
        <time>2021-03-13T07:47:30Z</time>
      </trkpt>
      <trkpt lat="45.19734" lon="5.7289">
        <ele>284.306</ele>
        <time>2021-03-13T07:47:34Z</time>
      </trkpt>
      <trkpt lat="45.19711" lon="5.72887">
        <ele>282.798</ele>
        <time>2021-03-13T07:47:40Z</time>
      </trkpt>
      <trkpt lat="45.19707" lon="5.72881">
        <ele>282.039</ele>
        <time>2021-03-13T07:47:42Z</time>
      </trkpt>
      <trkpt lat="45.19693" lon="5.72868">
        <ele>279.475</ele>
        <time>2021-03-13T07:47:47Z</time>
      </trkpt>
      <trkpt lat="45.19689" lon="5.7286">
        <ele>278.721</ele>
        <time>2021-03-13T07:47:49Z</time>
      </trkpt>
      <trkpt lat="45.19688" lon="5.72855">
        <ele>278.037</ele>
        <time>2021-03-13T07:47:52Z</time>
      </trkpt>
      <trkpt lat="45.19703" lon="5.72873">
        <ele>276.214</ele>
        <time>2021-03-13T07:47:58Z</time>
      </trkpt>
      <trkpt lat="45.19717" lon="5.7289">
        <ele>273.595</ele>
        <time>2021-03-13T07:48:04Z</time>
      </trkpt>
      <trkpt lat="45.19732" lon="5.72911">
        <ele>271.55</ele>
        <time>2021-03-13T07:48:11Z</time>
      </trkpt>
      <trkpt lat="45.1974" lon="5.72933">
        <ele>269.041</ele>
        <time>2021-03-13T07:48:17Z</time>
      </trkpt>
      <trkpt lat="45.19755" lon="5.72954">
        <ele>266.944</ele>
        <time>2021-03-13T07:48:24Z</time>
      </trkpt>
      <trkpt lat="45.19765" lon="5.72969">
        <ele>264.914</ele>
        <time>2021-03-13T07:48:29Z</time>
      </trkpt>
      <trkpt lat="45.19785" lon="5.72994">
        <ele>261.953</ele>
        <time>2021-03-13T07:48:37Z</time>
      </trkpt>
      <trkpt lat="45.19805" lon="5.73011">
        <ele>259.282</ele>
        <time>2021-03-13T07:48:45Z</time>
      </trkpt>
      <trkpt lat="45.19809" lon="5.73017">
        <ele>258.331</ele>
        <time>2021-03-13T07:48:47Z</time>
      </trkpt>
      <trkpt lat="45.19811" lon="5.73021">
        <ele>257.991</ele>
        <time>2021-03-13T07:48:48Z</time>
      </trkpt>
      <trkpt lat="45.1981" lon="5.73022">
        <ele>257.04</ele>
        <time>2021-03-13T07:48:50Z</time>
      </trkpt>
      <trkpt lat="45.19789" lon="5.73016">
        <ele>255.674</ele>
        <time>2021-03-13T07:48:55Z</time>
      </trkpt>
      <trkpt lat="45.19769" lon="5.73009">
        <ele>252.719</ele>
        <time>2021-03-13T07:49:02Z</time>
      </trkpt>
      <trkpt lat="45.19768" lon="5.73009">
        <ele>252.425</ele>
        <time>2021-03-13T07:49:04Z</time>
      </trkpt>
      <trkpt lat="45.19781" lon="5.73015">
        <ele>251.059</ele>
        <time>2021-03-13T07:49:09Z</time>
      </trkpt>
      <trkpt lat="45.19805" lon="5.73031">
        <ele>248.104</ele>
        <time>2021-03-13T07:49:17Z</time>
      </trkpt>
      <trkpt lat="45.19815" lon="5.73037">
        <ele>246.592</ele>
        <time>2021-03-13T07:49:20Z</time>
      </trkpt>
      <trkpt lat="45.19797" lon="5.73035">
        <ele>244.772</ele>
        <time>2021-03-13T07:49:24Z</time>
      </trkpt>
      <trkpt lat="45.19775" lon="5.73035">
        <ele>241.765</ele>
        <time>2021-03-13T07:49:30Z</time>
      </trkpt>
      <trkpt lat="45.19754" lon="5.73035">
        <ele>240.673</ele>
        <time>2021-03-13T07:49:35Z</time>
      </trkpt>
      <trkpt lat="45.19752" lon="5.73033">
        <ele>239.806</ele>
        <time>2021-03-13T07:49:37Z</time>
      </trkpt>
      <trkpt lat="45.19768" lon="5.73038">
        <ele>237.909</ele>
        <time>2021-03-13T07:49:41Z</time>
      </trkpt>
      <trkpt lat="45.19792" lon="5.73051">
        <ele>236.027</ele>
        <time>2021-03-13T07:49:48Z</time>
      </trkpt>
      <trkpt lat="45.19802" lon="5.7306">
        <ele>234.103</ele>
        <time>2021-03-13T07:49:52Z</time>
      </trkpt>
      <trkpt lat="45.19788" lon="5.73062">
        <ele>232.677</ele>
        <time>2021-03-13T07:49:56Z</time>
      </trkpt>
      <trkpt lat="45.19782" lon="5.73058">
        <ele>231.597</ele>
        <time>2021-03-13T07:49:58Z</time>
      </trkpt>
      <trkpt lat="45.19769" lon="5.73054">
        <ele>229.408</ele>
        <time>2021-03-13T07:50:02Z</time>
      </trkpt>
      <trkpt lat="45.19752" lon="5.73056">
        <ele>227.276</ele>
        <time>2021-03-13T07:50:08Z</time>
      </trkpt>
      <trkpt lat="45.19766" lon="5.73068">
        <ele>225.447</ele>
        <time>2021-03-13T07:50:13Z</time>
      </trkpt>
      <trkpt lat="45.19775" lon="5.73072">
        <ele>224.144</ele>
        <time>2021-03-13T07:50:16Z</time>
      </trkpt>
      <trkpt lat="45.19785" lon="5.73076">
        <ele>222.855</ele>
        <time>2021-03-13T07:50:19Z</time>
      </trkpt>
      <trkpt lat="45.198" lon="5.73082">
        <ele>221.236</ele>
        <time>2021-03-13T07:50:24Z</time>
      </trkpt>
      <trkpt lat="45.19809" lon="5.73098">
        <ele>219.818</ele>
        <time>2021-03-13T07:50:28Z</time>
      </trkpt>
      <trkpt lat="45.19786" lon="5.73096">
        <ele>218.175</ele>
        <time>2021-03-13T07:50:33Z</time>
      </trkpt>
      <trkpt lat="45.19761" lon="5.73092">
        <ele>215.915</ele>
        <time>2021-03-13T07:50:40Z</time>
      </trkpt>
      <trkpt lat="45.19765" lon="5.73096">
        <ele>214.252</ele>
        <time>2021-03-13T07:50:45Z</time>
      </trkpt>
      <trkpt lat="45.19773" lon="5.73092">
        <ele>212.23</ele>
        <time>2021-03-13T07:50:50Z</time>
      </trkpt>
      <trkpt lat="45.19774" lon="5.73092">
        <ele>212.498</ele>
        <time>2021-03-13T07:50:51Z</time>
      </trkpt>
      <trkpt lat="45.19775" lon="5.73096">
        <ele>211.221</ele>
        <time>2021-03-13T07:50:52Z</time>
      </trkpt>
      <trkpt lat="45.1978" lon="5.73104">
        <ele>210.426</ele>
        <time>2021-03-13T07:50:54Z</time>
      </trkpt>
      <trkpt lat="45.19802" lon="5.73118">
        <ele>208.624</ele>
        <time>2021-03-13T07:50:59Z</time>
      </trkpt>
      <trkpt lat="45.19801" lon="5.73122">
        <ele>208.178</ele>
        <time>2021-03-13T07:51:01Z</time>
      </trkpt>
      <trkpt lat="45.19785" lon="5.73139">
        <ele>204.782</ele>
        <time>2021-03-13T07:51:07Z</time>
      </trkpt>
      <trkpt lat="45.19782" lon="5.73161">
        <ele>202.403</ele>
        <time>2021-03-13T07:51:12Z</time>
      </trkpt>
      <trkpt lat="45.19782" lon="5.73169">
        <ele>201.118</ele>
        <time>2021-03-13T07:51:14Z</time>
      </trkpt>
      <trkpt lat="45.19782" lon="5.73192">
        <ele>200.841</ele>
        <time>2021-03-13T07:51:19Z</time>
      </trkpt>
      <trkpt lat="45.19784" lon="5.73218">
        <ele>200.957</ele>
        <time>2021-03-13T07:51:25Z</time>
      </trkpt>
      <trkpt lat="45.1978" lon="5.73243">
        <ele>201.947</ele>
        <time>2021-03-13T07:51:31Z</time>
      </trkpt>
      <trkpt lat="45.19762" lon="5.73269">
        <ele>203.802</ele>
        <time>2021-03-13T07:51:39Z</time>
      </trkpt>
      <trkpt lat="45.19753" lon="5.73291">
        <ele>204.341</ele>
        <time>2021-03-13T07:51:45Z</time>
      </trkpt>
      <trkpt lat="45.19744" lon="5.73313">
        <ele>203.792</ele>
        <time>2021-03-13T07:51:51Z</time>
      </trkpt>
      <trkpt lat="45.19738" lon="5.73337">
        <ele>203.81</ele>
        <time>2021-03-13T07:51:57Z</time>
      </trkpt>
      <trkpt lat="45.19731" lon="5.73361">
        <ele>202.637</ele>
        <time>2021-03-13T07:52:03Z</time>
      </trkpt>
      <trkpt lat="45.19742" lon="5.73362">
        <ele>201.929</ele>
        <time>2021-03-13T07:52:07Z</time>
      </trkpt>
      <trkpt lat="45.19747" lon="5.73364">
        <ele>201.462</ele>
        <time>2021-03-13T07:52:09Z</time>
      </trkpt>
      <trkpt lat="45.19778" lon="5.73371">
        <ele>200.526</ele>
        <time>2021-03-13T07:52:19Z</time>
      </trkpt>
      <trkpt lat="45.19793" lon="5.73373">
        <ele>200.025</ele>
        <time>2021-03-13T07:52:25Z</time>
      </trkpt>
      <trkpt lat="45.19816" lon="5.73381">
        <ele>200.542</ele>
        <time>2021-03-13T07:52:33Z</time>
      </trkpt>
      <trkpt lat="45.1984" lon="5.73386">
        <ele>200.529</ele>
        <time>2021-03-13T07:52:41Z</time>
      </trkpt>
      <trkpt lat="45.1985" lon="5.73386">
        <ele>200.528</ele>
        <time>2021-03-13T07:52:45Z</time>
      </trkpt>
      <trkpt lat="45.19869" lon="5.73394">
        <ele>200.427</ele>
        <time>2021-03-13T07:52:52Z</time>
      </trkpt>
      <trkpt lat="45.19895" lon="5.73401">
        <ele>200.776</ele>
        <time>2021-03-13T07:53:00Z</time>
      </trkpt>
      <trkpt lat="45.19906" lon="5.73404">
        <ele>200.889</ele>
        <time>2021-03-13T07:53:05Z</time>
      </trkpt>
      <trkpt lat="45.19924" lon="5.73406">
        <ele>200.519</ele>
        <time>2021-03-13T07:53:10Z</time>
      </trkpt>
      <trkpt lat="45.19949" lon="5.73418">
        <ele>201.055</ele>
        <time>2021-03-13T07:53:19Z</time>
      </trkpt>
      <trkpt lat="45.19964" lon="5.73423">
        <ele>200.962</ele>
        <time>2021-03-13T07:53:25Z</time>
      </trkpt>
      <trkpt lat="45.19987" lon="5.73425">
        <ele>201.202</ele>
        <time>2021-03-13T07:53:32Z</time>
      </trkpt>
      <trkpt lat="45.20002" lon="5.73433">
        <ele>200.982</ele>
        <time>2021-03-13T07:53:38Z</time>
      </trkpt>
      <trkpt lat="45.20017" lon="5.73442">
        <ele>200.414</ele>
        <time>2021-03-13T07:53:44Z</time>
      </trkpt>
      <trkpt lat="45.20035" lon="5.73455">
        <ele>200.614</ele>
        <time>2021-03-13T07:53:51Z</time>
      </trkpt>
      <trkpt lat="45.2004" lon="5.73457">
        <ele>200.494</ele>
        <time>2021-03-13T07:53:53Z</time>
      </trkpt>
      <trkpt lat="45.2005" lon="5.7347">
        <ele>200.978</ele>
        <time>2021-03-13T07:53:58Z</time>
      </trkpt>
      <trkpt lat="45.20067" lon="5.73488">
        <ele>200.945</ele>
        <time>2021-03-13T07:54:05Z</time>
      </trkpt>
      <trkpt lat="45.20088" lon="5.73508">
        <ele>201.183</ele>
        <time>2021-03-13T07:54:12Z</time>
      </trkpt>
      <trkpt lat="45.20105" lon="5.73532">
        <ele>201.395</ele>
        <time>2021-03-13T07:54:20Z</time>
      </trkpt>
      <trkpt lat="45.20115" lon="5.73544">
        <ele>201.195</ele>
        <time>2021-03-13T07:54:25Z</time>
      </trkpt>
      <trkpt lat="45.20127" lon="5.73562">
        <ele>201.318</ele>
        <time>2021-03-13T07:54:31Z</time>
      </trkpt>
      <trkpt lat="45.20142" lon="5.73584">
        <ele>201.584</ele>
        <time>2021-03-13T07:54:38Z</time>
      </trkpt>
      <trkpt lat="45.20152" lon="5.73601">
        <ele>201.897</ele>
        <time>2021-03-13T07:54:44Z</time>
      </trkpt>
      <trkpt lat="45.2016" lon="5.73629">
        <ele>201.18</ele>
        <time>2021-03-13T07:54:50Z</time>
      </trkpt>
      <trkpt lat="45.20169" lon="5.73653">
        <ele>201.476</ele>
        <time>2021-03-13T07:54:56Z</time>
      </trkpt>
      <trkpt lat="45.20171" lon="5.73681">
        <ele>201.524</ele>
        <time>2021-03-13T07:55:03Z</time>
      </trkpt>
      <trkpt lat="45.20176" lon="5.73707">
        <ele>201.79</ele>
        <time>2021-03-13T07:55:09Z</time>
      </trkpt>
      <trkpt lat="45.20177" lon="5.73736">
        <ele>201.626</ele>
        <time>2021-03-13T07:55:15Z</time>
      </trkpt>
      <trkpt lat="45.20177" lon="5.73758">
        <ele>201.544</ele>
        <time>2021-03-13T07:55:21Z</time>
      </trkpt>
      <trkpt lat="45.2018" lon="5.73788">
        <ele>201.415</ele>
        <time>2021-03-13T07:55:28Z</time>
      </trkpt>
      <trkpt lat="45.20182" lon="5.73822">
        <ele>201.286</ele>
        <time>2021-03-13T07:55:36Z</time>
      </trkpt>
      <trkpt lat="45.20179" lon="5.73837">
        <ele>200.239</ele>
        <time>2021-03-13T07:55:42Z</time>
      </trkpt>
      <trkpt lat="45.20172" lon="5.73858">
        <ele>199.173</ele>
        <time>2021-03-13T07:55:48Z</time>
      </trkpt>
      <trkpt lat="45.20163" lon="5.73877">
        <ele>199.985</ele>
        <time>2021-03-13T07:55:54Z</time>
      </trkpt>
      <trkpt lat="45.20155" lon="5.7389">
        <ele>200.012</ele>
        <time>2021-03-13T07:56:00Z</time>
      </trkpt>
      <trkpt lat="45.20145" lon="5.7391">
        <ele>200.546</ele>
        <time>2021-03-13T07:56:07Z</time>
      </trkpt>
      <trkpt lat="45.20135" lon="5.73929">
        <ele>200.488</ele>
        <time>2021-03-13T07:56:14Z</time>
      </trkpt>
      <trkpt lat="45.20116" lon="5.73954">
        <ele>199.516</ele>
        <time>2021-03-13T07:56:22Z</time>
      </trkpt>
      <trkpt lat="45.20111" lon="5.73978">
        <ele>200.305</ele>
        <time>2021-03-13T07:56:28Z</time>
      </trkpt>
      <trkpt lat="45.20102" lon="5.7399">
        <ele>198.655</ele>
        <time>2021-03-13T07:56:33Z</time>
      </trkpt>
      <trkpt lat="45.20087" lon="5.74003">
        <ele>199.178</ele>
        <time>2021-03-13T07:56:39Z</time>
      </trkpt>
      <trkpt lat="45.20079" lon="5.74023">
        <ele>199.572</ele>
        <time>2021-03-13T07:56:44Z</time>
      </trkpt>
      <trkpt lat="45.20065" lon="5.74038">
        <ele>199.655</ele>
        <time>2021-03-13T07:56:50Z</time>
      </trkpt>
      <trkpt lat="45.20051" lon="5.74054">
        <ele>200.226</ele>
        <time>2021-03-13T07:56:56Z</time>
      </trkpt>
      <trkpt lat="45.2005" lon="5.74055">
        <ele>200.391</ele>
        <time>2021-03-13T07:56:57Z</time>
      </trkpt>
      <trkpt lat="45.20046" lon="5.74062">
        <ele>200.482</ele>
        <time>2021-03-13T07:57:05Z</time>
      </trkpt>
      <trkpt lat="45.20045" lon="5.74063">
        <ele>200.361</ele>
        <time>2021-03-13T07:57:06Z</time>
      </trkpt>
      <trkpt lat="45.2005" lon="5.74072">
        <ele>201.178</ele>
        <time>2021-03-13T07:57:09Z</time>
      </trkpt>
      <trkpt lat="45.20047" lon="5.74077">
        <ele>201.262</ele>
        <time>2021-03-13T07:57:12Z</time>
      </trkpt>
      <trkpt lat="45.2002" lon="5.74111">
        <ele>201.764</ele>
        <time>2021-03-13T07:57:19Z</time>
      </trkpt>
      <trkpt lat="45.20009" lon="5.74118">
        <ele>201.991</ele>
        <time>2021-03-13T07:57:22Z</time>
      </trkpt>
      <trkpt lat="45.20005" lon="5.74122">
        <ele>203.458</ele>
        <time>2021-03-13T07:57:24Z</time>
      </trkpt>
      <trkpt lat="45.19994" lon="5.7413">
        <ele>204.116</ele>
        <time>2021-03-13T07:57:28Z</time>
      </trkpt>
      <trkpt lat="45.19992" lon="5.74134">
        <ele>204.14</ele>
        <time>2021-03-13T07:57:30Z</time>
      </trkpt>
      <trkpt lat="45.19976" lon="5.7414">
        <ele>204.134</ele>
        <time>2021-03-13T07:57:34Z</time>
      </trkpt>
      <trkpt lat="45.19951" lon="5.74163">
        <ele>204.56</ele>
        <time>2021-03-13T07:57:43Z</time>
      </trkpt>
      <trkpt lat="45.19933" lon="5.74175">
        <ele>204.28</ele>
        <time>2021-03-13T07:57:49Z</time>
      </trkpt>
      <trkpt lat="45.19912" lon="5.74187">
        <ele>204.084</ele>
        <time>2021-03-13T07:57:56Z</time>
      </trkpt>
      <trkpt lat="45.19897" lon="5.74196">
        <ele>204.315</ele>
        <time>2021-03-13T07:58:01Z</time>
      </trkpt>
      <trkpt lat="45.1988" lon="5.74204">
        <ele>203.919</ele>
        <time>2021-03-13T07:58:07Z</time>
      </trkpt>
      <trkpt lat="45.19863" lon="5.74212">
        <ele>204.302</ele>
        <time>2021-03-13T07:58:13Z</time>
      </trkpt>
      <trkpt lat="45.19849" lon="5.74222">
        <ele>204.019</ele>
        <time>2021-03-13T07:58:19Z</time>
      </trkpt>
      <trkpt lat="45.1984" lon="5.74227">
        <ele>204.161</ele>
        <time>2021-03-13T07:58:24Z</time>
      </trkpt>
      <trkpt lat="45.1983" lon="5.74235">
        <ele>204.477</ele>
        <time>2021-03-13T07:58:29Z</time>
      </trkpt>
      <trkpt lat="45.19796" lon="5.74238">
        <ele>204.456</ele>
        <time>2021-03-13T07:58:36Z</time>
      </trkpt>
      <trkpt lat="45.19783" lon="5.74236">
        <ele>204.068</ele>
        <time>2021-03-13T07:58:41Z</time>
      </trkpt>
      <trkpt lat="45.19768" lon="5.74245">
        <ele>204.142</ele>
        <time>2021-03-13T07:58:45Z</time>
      </trkpt>
      <trkpt lat="45.19745" lon="5.74246">
        <ele>204.317</ele>
        <time>2021-03-13T07:58:52Z</time>
      </trkpt>
      <trkpt lat="45.1973" lon="5.74244">
        <ele>202.546</ele>
        <time>2021-03-13T07:58:58Z</time>
      </trkpt>
      <trkpt lat="45.19727" lon="5.74237">
        <ele>202.601</ele>
        <time>2021-03-13T07:59:02Z</time>
      </trkpt>
      <trkpt lat="45.19725" lon="5.74227">
        <ele>202.41</ele>
        <time>2021-03-13T07:59:05Z</time>
      </trkpt>
      <trkpt lat="45.19727" lon="5.742">
        <ele>202.679</ele>
        <time>2021-03-13T07:59:12Z</time>
      </trkpt>
      <trkpt lat="45.1972" lon="5.74171">
        <ele>202.527</ele>
        <time>2021-03-13T07:59:20Z</time>
      </trkpt>
      <trkpt lat="45.19719" lon="5.74164">
        <ele>202.687</ele>
        <time>2021-03-13T07:59:22Z</time>
      </trkpt>
      <trkpt lat="45.19714" lon="5.74143">
        <ele>202.504</ele>
        <time>2021-03-13T07:59:28Z</time>
      </trkpt>
      <trkpt lat="45.19706" lon="5.74115">
        <ele>202.903</ele>
        <time>2021-03-13T07:59:35Z</time>
      </trkpt>
      <trkpt lat="45.19702" lon="5.74089">
        <ele>202.825</ele>
        <time>2021-03-13T07:59:41Z</time>
      </trkpt>
      <trkpt lat="45.19706" lon="5.74071">
        <ele>203.273</ele>
        <time>2021-03-13T07:59:46Z</time>
      </trkpt>
      <trkpt lat="45.19702" lon="5.74052">
        <ele>202.654</ele>
        <time>2021-03-13T07:59:51Z</time>
      </trkpt>
      <trkpt lat="45.19699" lon="5.7403">
        <ele>203.063</ele>
        <time>2021-03-13T07:59:56Z</time>
      </trkpt>
      <trkpt lat="45.19693" lon="5.74012">
        <ele>203.195</ele>
        <time>2021-03-13T08:00:01Z</time>
      </trkpt>
      <trkpt lat="45.19685" lon="5.73995">
        <ele>203.332</ele>
        <time>2021-03-13T08:00:05Z</time>
      </trkpt>
      <trkpt lat="45.19663" lon="5.73999">
        <ele>202.772</ele>
        <time>2021-03-13T08:00:10Z</time>
      </trkpt>
      <trkpt lat="45.19644" lon="5.73999">
        <ele>202.302</ele>
        <time>2021-03-13T08:00:15Z</time>
      </trkpt>
      <trkpt lat="45.19628" lon="5.73995">
        <ele>202.784</ele>
        <time>2021-03-13T08:00:19Z</time>
      </trkpt>
      <trkpt lat="45.19613" lon="5.73994">
        <ele>202.623</ele>
        <time>2021-03-13T08:00:23Z</time>
      </trkpt>
      <trkpt lat="45.196" lon="5.73989">
        <ele>202.647</ele>
        <time>2021-03-13T08:00:27Z</time>
      </trkpt>
      <trkpt lat="45.19612" lon="5.73961">
        <ele>202.781</ele>
        <time>2021-03-13T08:00:33Z</time>
      </trkpt>
      <trkpt lat="45.19621" lon="5.73947">
        <ele>203.075</ele>
        <time>2021-03-13T08:00:38Z</time>
      </trkpt>
      <trkpt lat="45.19619" lon="5.73947">
        <ele>204.268</ele>
        <time>2021-03-13T08:00:43Z</time>
      </trkpt>
      <trkpt lat="45.19611" lon="5.73934">
        <ele>204.998</ele>
        <time>2021-03-13T08:01:00Z</time>
      </trkpt>
      <trkpt lat="45.19631" lon="5.73967">
        <ele>208.061</ele>
        <time>2021-03-13T08:01:20Z</time>
      </trkpt>
      <trkpt lat="45.19608" lon="5.73995">
        <ele>212.043</ele>
        <time>2021-03-13T08:01:42Z</time>
      </trkpt>
      <trkpt lat="45.19606" lon="5.73998">
        <ele>212.82</ele>
        <time>2021-03-13T08:01:44Z</time>
      </trkpt>
      <trkpt lat="45.19615" lon="5.73959">
        <ele>212.132</ele>
        <time>2021-03-13T08:01:54Z</time>
      </trkpt>
      <trkpt lat="45.19634" lon="5.73958">
        <ele>212.076</ele>
        <time>2021-03-13T08:01:58Z</time>
      </trkpt>
    </trkseg>
  </trk>
</gpx>